<?xml version="1.0" encoding="UTF-8" standalone="no" ?>
<gpx xmlns="http://www.topografix.com/GPX/1/1" xmlns:xsi="http://www.w3.org/2001/XMLSchema-instance" xsi:schemaLocation="http://www.topografix.com/GPX/1/1 http://www.topografix.com/GPX/1/1/gpx.xsd" version="1.1" creator="VisuGPX - https://www.visugpx.com">
  <metadata>
    <name>Terr\' Des Alpes à Chorges</name>
    <desc><![CDATA[ Challenge du 14 Juillet 2015 Terr\' Des Alpes à Chorges,circuit ombragé,technique et ludique.]]></desc>
  </metadata>
  <trk>
    <name><![CDATA[2015-07-14 12:30:32]]></name>
    <trkseg>
      <trkpt lat="44.54414" lon="6.2777">
        <ele>879.98</ele>
        <time>2015-07-14T06:42:06Z</time>
      </trkpt>
      <trkpt lat="44.54415" lon="6.2777">
        <ele>879.98</ele>
        <time>2015-07-14T06:42:07Z</time>
      </trkpt>
      <trkpt lat="44.54415" lon="6.2777">
        <ele>879.86</ele>
        <time>2015-07-14T06:42:42Z</time>
      </trkpt>
      <trkpt lat="44.54416" lon="6.27768">
        <ele>879.89</ele>
        <time>2015-07-14T06:43:01Z</time>
      </trkpt>
      <trkpt lat="44.54418" lon="6.27763">
        <ele>880.12</ele>
        <time>2015-07-14T06:43:16Z</time>
      </trkpt>
      <trkpt lat="44.54419" lon="6.27763">
        <ele>880.1</ele>
        <time>2015-07-14T06:43:17Z</time>
      </trkpt>
      <trkpt lat="44.5443" lon="6.2776">
        <ele>880.19</ele>
        <time>2015-07-14T06:43:29Z</time>
      </trkpt>
      <trkpt lat="44.54429" lon="6.27762">
        <ele>880.14</ele>
        <time>2015-07-14T06:43:31Z</time>
      </trkpt>
      <trkpt lat="44.54426" lon="6.27763">
        <ele>880.09</ele>
        <time>2015-07-14T06:43:33Z</time>
      </trkpt>
      <trkpt lat="44.54423" lon="6.27763">
        <ele>880.21</ele>
        <time>2015-07-14T06:43:49Z</time>
      </trkpt>
      <trkpt lat="44.5442" lon="6.27762">
        <ele>880.34</ele>
        <time>2015-07-14T06:44:14Z</time>
      </trkpt>
      <trkpt lat="44.54421" lon="6.27762">
        <ele>880.21</ele>
        <time>2015-07-14T06:44:26Z</time>
      </trkpt>
      <trkpt lat="44.54426" lon="6.27758">
        <ele>880.29</ele>
        <time>2015-07-14T06:44:31Z</time>
      </trkpt>
      <trkpt lat="44.54436" lon="6.27747">
        <ele>880.6</ele>
        <time>2015-07-14T06:44:44Z</time>
      </trkpt>
      <trkpt lat="44.54438" lon="6.27744">
        <ele>880.83</ele>
        <time>2015-07-14T06:44:49Z</time>
      </trkpt>
      <trkpt lat="44.54447" lon="6.27739">
        <ele>881.1</ele>
        <time>2015-07-14T06:44:55Z</time>
      </trkpt>
      <trkpt lat="44.54447" lon="6.27705">
        <ele>882.01</ele>
        <time>2015-07-14T06:45:08Z</time>
      </trkpt>
      <trkpt lat="44.54441" lon="6.27686">
        <ele>882.52</ele>
        <time>2015-07-14T06:45:17Z</time>
      </trkpt>
      <trkpt lat="44.54439" lon="6.27685">
        <ele>882.57</ele>
        <time>2015-07-14T06:45:18Z</time>
      </trkpt>
      <trkpt lat="44.54395" lon="6.27642">
        <ele>882.6</ele>
        <time>2015-07-14T06:45:36Z</time>
      </trkpt>
      <trkpt lat="44.54366" lon="6.27609">
        <ele>881.15</ele>
        <time>2015-07-14T06:45:45Z</time>
      </trkpt>
      <trkpt lat="44.54316" lon="6.27575">
        <ele>877.99</ele>
        <time>2015-07-14T06:45:55Z</time>
      </trkpt>
      <trkpt lat="44.543" lon="6.27567">
        <ele>876.74</ele>
        <time>2015-07-14T06:45:58Z</time>
      </trkpt>
      <trkpt lat="44.54296" lon="6.27568">
        <ele>876.35</ele>
        <time>2015-07-14T06:45:59Z</time>
      </trkpt>
      <trkpt lat="44.54292" lon="6.27572">
        <ele>875.66</ele>
        <time>2015-07-14T06:46:00Z</time>
      </trkpt>
      <trkpt lat="44.54289" lon="6.27576">
        <ele>875.38</ele>
        <time>2015-07-14T06:46:01Z</time>
      </trkpt>
      <trkpt lat="44.54286" lon="6.27581">
        <ele>875.14</ele>
        <time>2015-07-14T06:46:02Z</time>
      </trkpt>
      <trkpt lat="44.54282" lon="6.27585">
        <ele>874.92</ele>
        <time>2015-07-14T06:46:03Z</time>
      </trkpt>
      <trkpt lat="44.54248" lon="6.27625">
        <ele>872.65</ele>
        <time>2015-07-14T06:46:12Z</time>
      </trkpt>
      <trkpt lat="44.54232" lon="6.2765">
        <ele>871.38</ele>
        <time>2015-07-14T06:46:16Z</time>
      </trkpt>
      <trkpt lat="44.54228" lon="6.27653">
        <ele>871.1</ele>
        <time>2015-07-14T06:46:17Z</time>
      </trkpt>
      <trkpt lat="44.54223" lon="6.27653">
        <ele>870.84</ele>
        <time>2015-07-14T06:46:18Z</time>
      </trkpt>
      <trkpt lat="44.54215" lon="6.2765">
        <ele>870.16</ele>
        <time>2015-07-14T06:46:20Z</time>
      </trkpt>
      <trkpt lat="44.54211" lon="6.27646">
        <ele>869.79</ele>
        <time>2015-07-14T06:46:21Z</time>
      </trkpt>
      <trkpt lat="44.5421" lon="6.2764">
        <ele>869.48</ele>
        <time>2015-07-14T06:46:22Z</time>
      </trkpt>
      <trkpt lat="44.54208" lon="6.27635">
        <ele>869.23</ele>
        <time>2015-07-14T06:46:23Z</time>
      </trkpt>
      <trkpt lat="44.54207" lon="6.2763">
        <ele>869.06</ele>
        <time>2015-07-14T06:46:24Z</time>
      </trkpt>
      <trkpt lat="44.54208" lon="6.27626">
        <ele>868.86</ele>
        <time>2015-07-14T06:46:25Z</time>
      </trkpt>
      <trkpt lat="44.54209" lon="6.27623">
        <ele>868.91</ele>
        <time>2015-07-14T06:46:26Z</time>
      </trkpt>
      <trkpt lat="44.5421" lon="6.2762">
        <ele>869.07</ele>
        <time>2015-07-14T06:46:27Z</time>
      </trkpt>
      <trkpt lat="44.54212" lon="6.27617">
        <ele>869.29</ele>
        <time>2015-07-14T06:46:28Z</time>
      </trkpt>
      <trkpt lat="44.5424" lon="6.27589">
        <ele>871.08</ele>
        <time>2015-07-14T06:46:43Z</time>
      </trkpt>
      <trkpt lat="44.54261" lon="6.27559">
        <ele>873.33</ele>
        <time>2015-07-14T06:46:56Z</time>
      </trkpt>
      <trkpt lat="44.54261" lon="6.27556">
        <ele>873.48</ele>
        <time>2015-07-14T06:46:57Z</time>
      </trkpt>
      <trkpt lat="44.54238" lon="6.27519">
        <ele>874.76</ele>
        <time>2015-07-14T06:47:10Z</time>
      </trkpt>
      <trkpt lat="44.54199" lon="6.27484">
        <ele>875.29</ele>
        <time>2015-07-14T06:47:26Z</time>
      </trkpt>
      <trkpt lat="44.54168" lon="6.27445">
        <ele>877.26</ele>
        <time>2015-07-14T06:47:42Z</time>
      </trkpt>
      <trkpt lat="44.54128" lon="6.27439">
        <ele>880.06</ele>
        <time>2015-07-14T06:48:01Z</time>
      </trkpt>
      <trkpt lat="44.54097" lon="6.27449">
        <ele>882.63</ele>
        <time>2015-07-14T06:48:18Z</time>
      </trkpt>
      <trkpt lat="44.54059" lon="6.27468">
        <ele>885.02</ele>
        <time>2015-07-14T06:48:37Z</time>
      </trkpt>
      <trkpt lat="44.5402" lon="6.27478">
        <ele>886.44</ele>
        <time>2015-07-14T06:48:54Z</time>
      </trkpt>
      <trkpt lat="44.53955" lon="6.27454">
        <ele>887.47</ele>
        <time>2015-07-14T06:49:15Z</time>
      </trkpt>
      <trkpt lat="44.53885" lon="6.27442">
        <ele>888.52</ele>
        <time>2015-07-14T06:49:37Z</time>
      </trkpt>
      <trkpt lat="44.53814" lon="6.27439">
        <ele>889.98</ele>
        <time>2015-07-14T06:50:01Z</time>
      </trkpt>
      <trkpt lat="44.53756" lon="6.27445">
        <ele>891.22</ele>
        <time>2015-07-14T06:50:21Z</time>
      </trkpt>
      <trkpt lat="44.53698" lon="6.2744">
        <ele>892.6</ele>
        <time>2015-07-14T06:50:41Z</time>
      </trkpt>
      <trkpt lat="44.53652" lon="6.27426">
        <ele>895.1</ele>
        <time>2015-07-14T06:51:00Z</time>
      </trkpt>
      <trkpt lat="44.53612" lon="6.27415">
        <ele>898.13</ele>
        <time>2015-07-14T06:51:20Z</time>
      </trkpt>
      <trkpt lat="44.53579" lon="6.27407">
        <ele>901.16</ele>
        <time>2015-07-14T06:51:39Z</time>
      </trkpt>
      <trkpt lat="44.53549" lon="6.27412">
        <ele>904.26</ele>
        <time>2015-07-14T06:51:57Z</time>
      </trkpt>
      <trkpt lat="44.5352" lon="6.27434">
        <ele>907.07</ele>
        <time>2015-07-14T06:52:16Z</time>
      </trkpt>
      <trkpt lat="44.53497" lon="6.27451">
        <ele>909.36</ele>
        <time>2015-07-14T06:52:32Z</time>
      </trkpt>
      <trkpt lat="44.53475" lon="6.27465">
        <ele>911.76</ele>
        <time>2015-07-14T06:52:47Z</time>
      </trkpt>
      <trkpt lat="44.53447" lon="6.27483">
        <ele>914.81</ele>
        <time>2015-07-14T06:53:05Z</time>
      </trkpt>
      <trkpt lat="44.5342" lon="6.27498">
        <ele>917.92</ele>
        <time>2015-07-14T06:53:23Z</time>
      </trkpt>
      <trkpt lat="44.53397" lon="6.27512">
        <ele>920.38</ele>
        <time>2015-07-14T06:53:38Z</time>
      </trkpt>
      <trkpt lat="44.53387" lon="6.27506">
        <ele>921.36</ele>
        <time>2015-07-14T06:53:45Z</time>
      </trkpt>
      <trkpt lat="44.53386" lon="6.27504">
        <ele>921.55</ele>
        <time>2015-07-14T06:53:46Z</time>
      </trkpt>
      <trkpt lat="44.53386" lon="6.27501">
        <ele>921.72</ele>
        <time>2015-07-14T06:53:47Z</time>
      </trkpt>
      <trkpt lat="44.53387" lon="6.27499">
        <ele>921.87</ele>
        <time>2015-07-14T06:53:48Z</time>
      </trkpt>
      <trkpt lat="44.53387" lon="6.27497">
        <ele>922.03</ele>
        <time>2015-07-14T06:53:49Z</time>
      </trkpt>
      <trkpt lat="44.53388" lon="6.27495">
        <ele>922.16</ele>
        <time>2015-07-14T06:53:50Z</time>
      </trkpt>
      <trkpt lat="44.53389" lon="6.27494">
        <ele>922.32</ele>
        <time>2015-07-14T06:53:51Z</time>
      </trkpt>
      <trkpt lat="44.53391" lon="6.27492">
        <ele>922.53</ele>
        <time>2015-07-14T06:53:52Z</time>
      </trkpt>
      <trkpt lat="44.53392" lon="6.27491">
        <ele>922.75</ele>
        <time>2015-07-14T06:53:53Z</time>
      </trkpt>
      <trkpt lat="44.53393" lon="6.27489">
        <ele>923</ele>
        <time>2015-07-14T06:53:54Z</time>
      </trkpt>
      <trkpt lat="44.53395" lon="6.27488">
        <ele>923.26</ele>
        <time>2015-07-14T06:53:55Z</time>
      </trkpt>
      <trkpt lat="44.53396" lon="6.27487">
        <ele>923.69</ele>
        <time>2015-07-14T06:53:56Z</time>
      </trkpt>
      <trkpt lat="44.53421" lon="6.27455">
        <ele>925.96</ele>
        <time>2015-07-14T06:54:14Z</time>
      </trkpt>
      <trkpt lat="44.53441" lon="6.27425">
        <ele>929.09</ele>
        <time>2015-07-14T06:54:32Z</time>
      </trkpt>
      <trkpt lat="44.53455" lon="6.27387">
        <ele>932.09</ele>
        <time>2015-07-14T06:54:49Z</time>
      </trkpt>
      <trkpt lat="44.53468" lon="6.27344">
        <ele>935.12</ele>
        <time>2015-07-14T06:55:08Z</time>
      </trkpt>
      <trkpt lat="44.53479" lon="6.27318">
        <ele>938.01</ele>
        <time>2015-07-14T06:55:22Z</time>
      </trkpt>
      <trkpt lat="44.53497" lon="6.27293">
        <ele>940.43</ele>
        <time>2015-07-14T06:55:37Z</time>
      </trkpt>
      <trkpt lat="44.53502" lon="6.27285">
        <ele>941.36</ele>
        <time>2015-07-14T06:55:42Z</time>
      </trkpt>
      <trkpt lat="44.53501" lon="6.27283">
        <ele>941.58</ele>
        <time>2015-07-14T06:55:43Z</time>
      </trkpt>
      <trkpt lat="44.53489" lon="6.2729">
        <ele>942.86</ele>
        <time>2015-07-14T06:55:50Z</time>
      </trkpt>
      <trkpt lat="44.53466" lon="6.2731">
        <ele>945.15</ele>
        <time>2015-07-14T06:56:06Z</time>
      </trkpt>
      <trkpt lat="44.5345" lon="6.2732">
        <ele>946.2</ele>
        <time>2015-07-14T06:56:16Z</time>
      </trkpt>
      <trkpt lat="44.53449" lon="6.27321">
        <ele>946.3</ele>
        <time>2015-07-14T06:56:17Z</time>
      </trkpt>
      <trkpt lat="44.53432" lon="6.27341">
        <ele>947.43</ele>
        <time>2015-07-14T06:56:28Z</time>
      </trkpt>
      <trkpt lat="44.53409" lon="6.27368">
        <ele>948.66</ele>
        <time>2015-07-14T06:56:43Z</time>
      </trkpt>
      <trkpt lat="44.5338" lon="6.27373">
        <ele>948.92</ele>
        <time>2015-07-14T06:56:54Z</time>
      </trkpt>
      <trkpt lat="44.53356" lon="6.27347">
        <ele>949.9</ele>
        <time>2015-07-14T06:57:07Z</time>
      </trkpt>
      <trkpt lat="44.53327" lon="6.27342">
        <ele>952.12</ele>
        <time>2015-07-14T06:57:24Z</time>
      </trkpt>
      <trkpt lat="44.53312" lon="6.27332">
        <ele>954.16</ele>
        <time>2015-07-14T06:57:35Z</time>
      </trkpt>
      <trkpt lat="44.5329" lon="6.27335">
        <ele>956.14</ele>
        <time>2015-07-14T06:57:50Z</time>
      </trkpt>
      <trkpt lat="44.53283" lon="6.27339">
        <ele>956.56</ele>
        <time>2015-07-14T06:57:54Z</time>
      </trkpt>
      <trkpt lat="44.53266" lon="6.27367">
        <ele>959.1</ele>
        <time>2015-07-14T06:58:09Z</time>
      </trkpt>
      <trkpt lat="44.53246" lon="6.27392">
        <ele>960.58</ele>
        <time>2015-07-14T06:58:23Z</time>
      </trkpt>
      <trkpt lat="44.53232" lon="6.27396">
        <ele>961.3</ele>
        <time>2015-07-14T06:58:31Z</time>
      </trkpt>
      <trkpt lat="44.53215" lon="6.27398">
        <ele>963.62</ele>
        <time>2015-07-14T06:58:43Z</time>
      </trkpt>
      <trkpt lat="44.53202" lon="6.27387">
        <ele>965.78</ele>
        <time>2015-07-14T06:58:53Z</time>
      </trkpt>
      <trkpt lat="44.53185" lon="6.27358">
        <ele>968.23</ele>
        <time>2015-07-14T06:59:12Z</time>
      </trkpt>
      <trkpt lat="44.53183" lon="6.27351">
        <ele>969.23</ele>
        <time>2015-07-14T06:59:17Z</time>
      </trkpt>
      <trkpt lat="44.5318" lon="6.27327">
        <ele>972.09</ele>
        <time>2015-07-14T06:59:30Z</time>
      </trkpt>
      <trkpt lat="44.53178" lon="6.2732">
        <ele>973.05</ele>
        <time>2015-07-14T06:59:34Z</time>
      </trkpt>
      <trkpt lat="44.53168" lon="6.27314">
        <ele>974.98</ele>
        <time>2015-07-14T06:59:44Z</time>
      </trkpt>
      <trkpt lat="44.53165" lon="6.27316">
        <ele>975.29</ele>
        <time>2015-07-14T06:59:47Z</time>
      </trkpt>
      <trkpt lat="44.5316" lon="6.27316">
        <ele>976.04</ele>
        <time>2015-07-14T06:59:51Z</time>
      </trkpt>
      <trkpt lat="44.53155" lon="6.27317">
        <ele>976.63</ele>
        <time>2015-07-14T06:59:54Z</time>
      </trkpt>
      <trkpt lat="44.53142" lon="6.27323">
        <ele>979.25</ele>
        <time>2015-07-14T07:00:08Z</time>
      </trkpt>
      <trkpt lat="44.53138" lon="6.27324">
        <ele>979.79</ele>
        <time>2015-07-14T07:00:11Z</time>
      </trkpt>
      <trkpt lat="44.53126" lon="6.27327">
        <ele>982.56</ele>
        <time>2015-07-14T07:00:26Z</time>
      </trkpt>
      <trkpt lat="44.53119" lon="6.27316">
        <ele>985.19</ele>
        <time>2015-07-14T07:00:39Z</time>
      </trkpt>
      <trkpt lat="44.53117" lon="6.27311">
        <ele>986.37</ele>
        <time>2015-07-14T07:00:44Z</time>
      </trkpt>
      <trkpt lat="44.53107" lon="6.27308">
        <ele>989.23</ele>
        <time>2015-07-14T07:00:58Z</time>
      </trkpt>
      <trkpt lat="44.53099" lon="6.27312">
        <ele>990.86</ele>
        <time>2015-07-14T07:01:07Z</time>
      </trkpt>
      <trkpt lat="44.53084" lon="6.27317">
        <ele>993.86</ele>
        <time>2015-07-14T07:01:24Z</time>
      </trkpt>
      <trkpt lat="44.53077" lon="6.27319">
        <ele>996.6</ele>
        <time>2015-07-14T07:01:42Z</time>
      </trkpt>
      <trkpt lat="44.53061" lon="6.2732">
        <ele>999.26</ele>
        <time>2015-07-14T07:02:00Z</time>
      </trkpt>
      <trkpt lat="44.53042" lon="6.27335">
        <ele>1002.09</ele>
        <time>2015-07-14T07:02:20Z</time>
      </trkpt>
      <trkpt lat="44.53035" lon="6.27344">
        <ele>1003.41</ele>
        <time>2015-07-14T07:02:30Z</time>
      </trkpt>
      <trkpt lat="44.5302" lon="6.27361">
        <ele>1006.01</ele>
        <time>2015-07-14T07:02:48Z</time>
      </trkpt>
      <trkpt lat="44.53013" lon="6.27371">
        <ele>1007.51</ele>
        <time>2015-07-14T07:02:59Z</time>
      </trkpt>
      <trkpt lat="44.53008" lon="6.27368">
        <ele>1008.36</ele>
        <time>2015-07-14T07:03:06Z</time>
      </trkpt>
      <trkpt lat="44.53005" lon="6.27361">
        <ele>1009.7</ele>
        <time>2015-07-14T07:03:15Z</time>
      </trkpt>
      <trkpt lat="44.53006" lon="6.27337">
        <ele>1012.29</ele>
        <time>2015-07-14T07:03:33Z</time>
      </trkpt>
      <trkpt lat="44.53006" lon="6.27335">
        <ele>1012.39</ele>
        <time>2015-07-14T07:03:34Z</time>
      </trkpt>
      <trkpt lat="44.53009" lon="6.27322">
        <ele>1013.2</ele>
        <time>2015-07-14T07:03:42Z</time>
      </trkpt>
      <trkpt lat="44.53014" lon="6.27304">
        <ele>1014.3</ele>
        <time>2015-07-14T07:03:55Z</time>
      </trkpt>
      <trkpt lat="44.53015" lon="6.27298">
        <ele>1014.73</ele>
        <time>2015-07-14T07:03:59Z</time>
      </trkpt>
      <trkpt lat="44.53016" lon="6.27288">
        <ele>1015.4</ele>
        <time>2015-07-14T07:04:05Z</time>
      </trkpt>
      <trkpt lat="44.53013" lon="6.27264">
        <ele>1017.43</ele>
        <time>2015-07-14T07:04:21Z</time>
      </trkpt>
      <trkpt lat="44.53005" lon="6.27243">
        <ele>1020.49</ele>
        <time>2015-07-14T07:04:38Z</time>
      </trkpt>
      <trkpt lat="44.52997" lon="6.27231">
        <ele>1022.69</ele>
        <time>2015-07-14T07:04:54Z</time>
      </trkpt>
      <trkpt lat="44.52996" lon="6.27231">
        <ele>1022.49</ele>
        <time>2015-07-14T07:05:43Z</time>
      </trkpt>
      <trkpt lat="44.52974" lon="6.27213">
        <ele>1022.16</ele>
        <time>2015-07-14T07:05:56Z</time>
      </trkpt>
      <trkpt lat="44.52956" lon="6.27191">
        <ele>1019.03</ele>
        <time>2015-07-14T07:06:04Z</time>
      </trkpt>
      <trkpt lat="44.52956" lon="6.27128">
        <ele>1016.25</ele>
        <time>2015-07-14T07:06:15Z</time>
      </trkpt>
      <trkpt lat="44.52959" lon="6.2712">
        <ele>1015.95</ele>
        <time>2015-07-14T07:06:16Z</time>
      </trkpt>
      <trkpt lat="44.52963" lon="6.27113">
        <ele>1015.61</ele>
        <time>2015-07-14T07:06:17Z</time>
      </trkpt>
      <trkpt lat="44.52968" lon="6.27105">
        <ele>1015.29</ele>
        <time>2015-07-14T07:06:18Z</time>
      </trkpt>
      <trkpt lat="44.52973" lon="6.27097">
        <ele>1014.94</ele>
        <time>2015-07-14T07:06:19Z</time>
      </trkpt>
      <trkpt lat="44.52977" lon="6.27088">
        <ele>1014.54</ele>
        <time>2015-07-14T07:06:20Z</time>
      </trkpt>
      <trkpt lat="44.52981" lon="6.27079">
        <ele>1014.11</ele>
        <time>2015-07-14T07:06:21Z</time>
      </trkpt>
      <trkpt lat="44.52984" lon="6.2707">
        <ele>1013.68</ele>
        <time>2015-07-14T07:06:22Z</time>
      </trkpt>
      <trkpt lat="44.52986" lon="6.27061">
        <ele>1013.29</ele>
        <time>2015-07-14T07:06:23Z</time>
      </trkpt>
      <trkpt lat="44.52986" lon="6.27052">
        <ele>1012.97</ele>
        <time>2015-07-14T07:06:24Z</time>
      </trkpt>
      <trkpt lat="44.52984" lon="6.27045">
        <ele>1012.72</ele>
        <time>2015-07-14T07:06:25Z</time>
      </trkpt>
      <trkpt lat="44.52983" lon="6.27038">
        <ele>1012.52</ele>
        <time>2015-07-14T07:06:26Z</time>
      </trkpt>
      <trkpt lat="44.52983" lon="6.27032">
        <ele>1012.38</ele>
        <time>2015-07-14T07:06:27Z</time>
      </trkpt>
      <trkpt lat="44.52983" lon="6.27026">
        <ele>1012.48</ele>
        <time>2015-07-14T07:06:28Z</time>
      </trkpt>
      <trkpt lat="44.52984" lon="6.2702">
        <ele>1012.48</ele>
        <time>2015-07-14T07:06:29Z</time>
      </trkpt>
      <trkpt lat="44.53" lon="6.26982">
        <ele>1014.65</ele>
        <time>2015-07-14T07:06:41Z</time>
      </trkpt>
      <trkpt lat="44.53019" lon="6.26959">
        <ele>1017.78</ele>
        <time>2015-07-14T07:06:54Z</time>
      </trkpt>
      <trkpt lat="44.53031" lon="6.26934">
        <ele>1020.04</ele>
        <time>2015-07-14T07:07:08Z</time>
      </trkpt>
      <trkpt lat="44.53048" lon="6.26916">
        <ele>1023.16</ele>
        <time>2015-07-14T07:07:23Z</time>
      </trkpt>
      <trkpt lat="44.53058" lon="6.26909">
        <ele>1024.31</ele>
        <time>2015-07-14T07:07:31Z</time>
      </trkpt>
      <trkpt lat="44.53059" lon="6.26908">
        <ele>1024.45</ele>
        <time>2015-07-14T07:07:32Z</time>
      </trkpt>
      <trkpt lat="44.5306" lon="6.26906">
        <ele>1024.57</ele>
        <time>2015-07-14T07:07:33Z</time>
      </trkpt>
      <trkpt lat="44.53063" lon="6.26866">
        <ele>1026.49</ele>
        <time>2015-07-14T07:07:50Z</time>
      </trkpt>
      <trkpt lat="44.53071" lon="6.26835">
        <ele>1029.79</ele>
        <time>2015-07-14T07:08:08Z</time>
      </trkpt>
      <trkpt lat="44.53089" lon="6.26823">
        <ele>1031.92</ele>
        <time>2015-07-14T07:08:22Z</time>
      </trkpt>
      <trkpt lat="44.53091" lon="6.26821">
        <ele>1032.08</ele>
        <time>2015-07-14T07:08:23Z</time>
      </trkpt>
      <trkpt lat="44.53117" lon="6.2679">
        <ele>1034.23</ele>
        <time>2015-07-14T07:08:42Z</time>
      </trkpt>
      <trkpt lat="44.53126" lon="6.26753">
        <ele>1034.26</ele>
        <time>2015-07-14T07:08:54Z</time>
      </trkpt>
      <trkpt lat="44.53116" lon="6.26705">
        <ele>1035.17</ele>
        <time>2015-07-14T07:09:10Z</time>
      </trkpt>
      <trkpt lat="44.53102" lon="6.26655">
        <ele>1036.77</ele>
        <time>2015-07-14T07:09:27Z</time>
      </trkpt>
      <trkpt lat="44.53099" lon="6.26591">
        <ele>1037.22</ele>
        <time>2015-07-14T07:09:42Z</time>
      </trkpt>
      <trkpt lat="44.53098" lon="6.26529">
        <ele>1039.77</ele>
        <time>2015-07-14T07:09:58Z</time>
      </trkpt>
      <trkpt lat="44.53103" lon="6.26464">
        <ele>1042.09</ele>
        <time>2015-07-14T07:10:16Z</time>
      </trkpt>
      <trkpt lat="44.53126" lon="6.26414">
        <ele>1043.86</ele>
        <time>2015-07-14T07:10:33Z</time>
      </trkpt>
      <trkpt lat="44.53168" lon="6.26399">
        <ele>1046.79</ele>
        <time>2015-07-14T07:10:50Z</time>
      </trkpt>
      <trkpt lat="44.53192" lon="6.26379">
        <ele>1047.26</ele>
        <time>2015-07-14T07:10:58Z</time>
      </trkpt>
      <trkpt lat="44.53196" lon="6.26376">
        <ele>1047.14</ele>
        <time>2015-07-14T07:10:59Z</time>
      </trkpt>
      <trkpt lat="44.53212" lon="6.26368">
        <ele>1046.34</ele>
        <time>2015-07-14T07:11:02Z</time>
      </trkpt>
      <trkpt lat="44.53217" lon="6.26367">
        <ele>1045.95</ele>
        <time>2015-07-14T07:11:03Z</time>
      </trkpt>
      <trkpt lat="44.53223" lon="6.26368">
        <ele>1045.06</ele>
        <time>2015-07-14T07:11:04Z</time>
      </trkpt>
      <trkpt lat="44.53228" lon="6.26369">
        <ele>1045.06</ele>
        <time>2015-07-14T07:11:05Z</time>
      </trkpt>
      <trkpt lat="44.5329" lon="6.2638">
        <ele>1042.52</ele>
        <time>2015-07-14T07:11:17Z</time>
      </trkpt>
      <trkpt lat="44.53304" lon="6.26382">
        <ele>1042.16</ele>
        <time>2015-07-14T07:11:20Z</time>
      </trkpt>
      <trkpt lat="44.53341" lon="6.26398">
        <ele>1041.84</ele>
        <time>2015-07-14T07:11:30Z</time>
      </trkpt>
      <trkpt lat="44.53344" lon="6.26401">
        <ele>1041.81</ele>
        <time>2015-07-14T07:11:31Z</time>
      </trkpt>
      <trkpt lat="44.53348" lon="6.26402">
        <ele>1041.74</ele>
        <time>2015-07-14T07:11:32Z</time>
      </trkpt>
      <trkpt lat="44.53352" lon="6.26399">
        <ele>1041.59</ele>
        <time>2015-07-14T07:11:33Z</time>
      </trkpt>
      <trkpt lat="44.53356" lon="6.26395">
        <ele>1041.39</ele>
        <time>2015-07-14T07:11:34Z</time>
      </trkpt>
      <trkpt lat="44.53358" lon="6.2639">
        <ele>1041.19</ele>
        <time>2015-07-14T07:11:35Z</time>
      </trkpt>
      <trkpt lat="44.53361" lon="6.26383">
        <ele>1040.99</ele>
        <time>2015-07-14T07:11:36Z</time>
      </trkpt>
      <trkpt lat="44.53372" lon="6.26353">
        <ele>1040.2</ele>
        <time>2015-07-14T07:11:41Z</time>
      </trkpt>
      <trkpt lat="44.53374" lon="6.26348">
        <ele>1040.1</ele>
        <time>2015-07-14T07:11:42Z</time>
      </trkpt>
      <trkpt lat="44.53375" lon="6.26343">
        <ele>1040</ele>
        <time>2015-07-14T07:11:43Z</time>
      </trkpt>
      <trkpt lat="44.53388" lon="6.26271">
        <ele>1040.25</ele>
        <time>2015-07-14T07:11:57Z</time>
      </trkpt>
      <trkpt lat="44.53406" lon="6.26244">
        <ele>1041.16</ele>
        <time>2015-07-14T07:12:08Z</time>
      </trkpt>
      <trkpt lat="44.53421" lon="6.26191">
        <ele>1043.78</ele>
        <time>2015-07-14T07:12:27Z</time>
      </trkpt>
      <trkpt lat="44.53434" lon="6.26148">
        <ele>1046.53</ele>
        <time>2015-07-14T07:12:47Z</time>
      </trkpt>
      <trkpt lat="44.53444" lon="6.26113">
        <ele>1049.56</ele>
        <time>2015-07-14T07:13:07Z</time>
      </trkpt>
      <trkpt lat="44.5345" lon="6.26092">
        <ele>1052.16</ele>
        <time>2015-07-14T07:13:22Z</time>
      </trkpt>
      <trkpt lat="44.53456" lon="6.26073">
        <ele>1055.26</ele>
        <time>2015-07-14T07:13:39Z</time>
      </trkpt>
      <trkpt lat="44.53463" lon="6.26052">
        <ele>1058.64</ele>
        <time>2015-07-14T07:13:56Z</time>
      </trkpt>
      <trkpt lat="44.53475" lon="6.26035">
        <ele>1061.45</ele>
        <time>2015-07-14T07:14:15Z</time>
      </trkpt>
      <trkpt lat="44.53484" lon="6.26025">
        <ele>1064.54</ele>
        <time>2015-07-14T07:14:31Z</time>
      </trkpt>
      <trkpt lat="44.53494" lon="6.26018">
        <ele>1067.63</ele>
        <time>2015-07-14T07:14:46Z</time>
      </trkpt>
      <trkpt lat="44.53509" lon="6.26009">
        <ele>1070.71</ele>
        <time>2015-07-14T07:15:03Z</time>
      </trkpt>
      <trkpt lat="44.5352" lon="6.26005">
        <ele>1072.68</ele>
        <time>2015-07-14T07:15:16Z</time>
      </trkpt>
      <trkpt lat="44.53541" lon="6.25991">
        <ele>1075.84</ele>
        <time>2015-07-14T07:15:38Z</time>
      </trkpt>
      <trkpt lat="44.53553" lon="6.25975">
        <ele>1078.14</ele>
        <time>2015-07-14T07:15:55Z</time>
      </trkpt>
      <trkpt lat="44.53559" lon="6.2596">
        <ele>1079.66</ele>
        <time>2015-07-14T07:16:10Z</time>
      </trkpt>
      <trkpt lat="44.53558" lon="6.25948">
        <ele>1080.88</ele>
        <time>2015-07-14T07:16:37Z</time>
      </trkpt>
      <trkpt lat="44.53565" lon="6.25929">
        <ele>1082.38</ele>
        <time>2015-07-14T07:16:56Z</time>
      </trkpt>
      <trkpt lat="44.53565" lon="6.25927">
        <ele>1082.45</ele>
        <time>2015-07-14T07:16:57Z</time>
      </trkpt>
      <trkpt lat="44.53567" lon="6.25917">
        <ele>1083.53</ele>
        <time>2015-07-14T07:17:07Z</time>
      </trkpt>
      <trkpt lat="44.53571" lon="6.25902">
        <ele>1084.71</ele>
        <time>2015-07-14T07:17:16Z</time>
      </trkpt>
      <trkpt lat="44.5358" lon="6.25887">
        <ele>1086.39</ele>
        <time>2015-07-14T07:17:29Z</time>
      </trkpt>
      <trkpt lat="44.53581" lon="6.25886">
        <ele>1086.67</ele>
        <time>2015-07-14T07:17:31Z</time>
      </trkpt>
      <trkpt lat="44.53592" lon="6.25872">
        <ele>1089.39</ele>
        <time>2015-07-14T07:17:49Z</time>
      </trkpt>
      <trkpt lat="44.53599" lon="6.25857">
        <ele>1091.89</ele>
        <time>2015-07-14T07:18:03Z</time>
      </trkpt>
      <trkpt lat="44.53608" lon="6.25842">
        <ele>1093.4</ele>
        <time>2015-07-14T07:18:20Z</time>
      </trkpt>
      <trkpt lat="44.53612" lon="6.25836">
        <ele>1093.39</ele>
        <time>2015-07-14T07:18:23Z</time>
      </trkpt>
      <trkpt lat="44.53614" lon="6.25833">
        <ele>1093.37</ele>
        <time>2015-07-14T07:18:24Z</time>
      </trkpt>
      <trkpt lat="44.53616" lon="6.25831">
        <ele>1093.34</ele>
        <time>2015-07-14T07:18:25Z</time>
      </trkpt>
      <trkpt lat="44.53619" lon="6.2583">
        <ele>1093.22</ele>
        <time>2015-07-14T07:18:26Z</time>
      </trkpt>
      <trkpt lat="44.53622" lon="6.2583">
        <ele>1093.22</ele>
        <time>2015-07-14T07:18:27Z</time>
      </trkpt>
      <trkpt lat="44.5364" lon="6.25827">
        <ele>1092.4</ele>
        <time>2015-07-14T07:18:34Z</time>
      </trkpt>
      <trkpt lat="44.53663" lon="6.2582">
        <ele>1091.76</ele>
        <time>2015-07-14T07:18:44Z</time>
      </trkpt>
      <trkpt lat="44.53677" lon="6.2581">
        <ele>1092.88</ele>
        <time>2015-07-14T07:18:58Z</time>
      </trkpt>
      <trkpt lat="44.53697" lon="6.25788">
        <ele>1092.65</ele>
        <time>2015-07-14T07:19:10Z</time>
      </trkpt>
      <trkpt lat="44.53708" lon="6.25769">
        <ele>1093.03</ele>
        <time>2015-07-14T07:19:19Z</time>
      </trkpt>
      <trkpt lat="44.5372" lon="6.25755">
        <ele>1093.68</ele>
        <time>2015-07-14T07:19:26Z</time>
      </trkpt>
      <trkpt lat="44.53741" lon="6.25729">
        <ele>1093.53</ele>
        <time>2015-07-14T07:19:37Z</time>
      </trkpt>
      <trkpt lat="44.53759" lon="6.25709">
        <ele>1092.83</ele>
        <time>2015-07-14T07:19:47Z</time>
      </trkpt>
      <trkpt lat="44.53778" lon="6.25679">
        <ele>1092.26</ele>
        <time>2015-07-14T07:19:58Z</time>
      </trkpt>
      <trkpt lat="44.53794" lon="6.25665">
        <ele>1091.13</ele>
        <time>2015-07-14T07:20:07Z</time>
      </trkpt>
      <trkpt lat="44.53796" lon="6.25666">
        <ele>1090.58</ele>
        <time>2015-07-14T07:20:09Z</time>
      </trkpt>
      <trkpt lat="44.53823" lon="6.25658">
        <ele>1086.96</ele>
        <time>2015-07-14T07:20:17Z</time>
      </trkpt>
      <trkpt lat="44.53841" lon="6.25651">
        <ele>1083.49</ele>
        <time>2015-07-14T07:20:24Z</time>
      </trkpt>
      <trkpt lat="44.53846" lon="6.25651">
        <ele>1082.54</ele>
        <time>2015-07-14T07:20:26Z</time>
      </trkpt>
      <trkpt lat="44.53856" lon="6.25646">
        <ele>1080.46</ele>
        <time>2015-07-14T07:20:30Z</time>
      </trkpt>
      <trkpt lat="44.53872" lon="6.25647">
        <ele>1076.51</ele>
        <time>2015-07-14T07:20:37Z</time>
      </trkpt>
      <trkpt lat="44.53888" lon="6.25649">
        <ele>1073.08</ele>
        <time>2015-07-14T07:20:43Z</time>
      </trkpt>
      <trkpt lat="44.53892" lon="6.25652">
        <ele>1071.97</ele>
        <time>2015-07-14T07:20:45Z</time>
      </trkpt>
      <trkpt lat="44.53897" lon="6.25653">
        <ele>1070.82</ele>
        <time>2015-07-14T07:20:47Z</time>
      </trkpt>
      <trkpt lat="44.53914" lon="6.25657">
        <ele>1067.08</ele>
        <time>2015-07-14T07:20:53Z</time>
      </trkpt>
      <trkpt lat="44.53924" lon="6.25664">
        <ele>1063.59</ele>
        <time>2015-07-14T07:20:58Z</time>
      </trkpt>
      <trkpt lat="44.5393" lon="6.25669">
        <ele>1060.46</ele>
        <time>2015-07-14T07:21:04Z</time>
      </trkpt>
      <trkpt lat="44.53945" lon="6.25672">
        <ele>1057.72</ele>
        <time>2015-07-14T07:21:25Z</time>
      </trkpt>
      <trkpt lat="44.5395" lon="6.25676">
        <ele>1055.08</ele>
        <time>2015-07-14T07:21:34Z</time>
      </trkpt>
      <trkpt lat="44.53957" lon="6.25674">
        <ele>1053.71</ele>
        <time>2015-07-14T07:21:57Z</time>
      </trkpt>
      <trkpt lat="44.53964" lon="6.25679">
        <ele>1053.57</ele>
        <time>2015-07-14T07:22:20Z</time>
      </trkpt>
      <trkpt lat="44.53968" lon="6.25684">
        <ele>1052.38</ele>
        <time>2015-07-14T07:22:24Z</time>
      </trkpt>
      <trkpt lat="44.53982" lon="6.25685">
        <ele>1048.91</ele>
        <time>2015-07-14T07:22:31Z</time>
      </trkpt>
      <trkpt lat="44.53994" lon="6.25669">
        <ele>1045.8</ele>
        <time>2015-07-14T07:22:37Z</time>
      </trkpt>
      <trkpt lat="44.54013" lon="6.2564">
        <ele>1042.49</ele>
        <time>2015-07-14T07:22:46Z</time>
      </trkpt>
      <trkpt lat="44.54024" lon="6.2562">
        <ele>1040.87</ele>
        <time>2015-07-14T07:22:50Z</time>
      </trkpt>
      <trkpt lat="44.54031" lon="6.2561">
        <ele>1040.16</ele>
        <time>2015-07-14T07:22:52Z</time>
      </trkpt>
      <trkpt lat="44.54036" lon="6.256">
        <ele>1039.55</ele>
        <time>2015-07-14T07:22:54Z</time>
      </trkpt>
      <trkpt lat="44.54043" lon="6.25582">
        <ele>1038.81</ele>
        <time>2015-07-14T07:22:57Z</time>
      </trkpt>
      <trkpt lat="44.54048" lon="6.2557">
        <ele>1038.24</ele>
        <time>2015-07-14T07:22:59Z</time>
      </trkpt>
      <trkpt lat="44.5406" lon="6.25523">
        <ele>1037.46</ele>
        <time>2015-07-14T07:23:10Z</time>
      </trkpt>
      <trkpt lat="44.54066" lon="6.25494">
        <ele>1040.25</ele>
        <time>2015-07-14T07:23:21Z</time>
      </trkpt>
      <trkpt lat="44.54067" lon="6.25475">
        <ele>1042.07</ele>
        <time>2015-07-14T07:23:36Z</time>
      </trkpt>
      <trkpt lat="44.54067" lon="6.25468">
        <ele>1042.41</ele>
        <time>2015-07-14T07:24:03Z</time>
      </trkpt>
      <trkpt lat="44.54069" lon="6.25457">
        <ele>1042.39</ele>
        <time>2015-07-14T07:24:33Z</time>
      </trkpt>
      <trkpt lat="44.54071" lon="6.25455">
        <ele>1042.24</ele>
        <time>2015-07-14T07:24:45Z</time>
      </trkpt>
      <trkpt lat="44.54083" lon="6.25449">
        <ele>1041.93</ele>
        <time>2015-07-14T07:24:51Z</time>
      </trkpt>
      <trkpt lat="44.54101" lon="6.25465">
        <ele>1038.59</ele>
        <time>2015-07-14T07:25:00Z</time>
      </trkpt>
      <trkpt lat="44.54103" lon="6.25466">
        <ele>1038.11</ele>
        <time>2015-07-14T07:25:01Z</time>
      </trkpt>
      <trkpt lat="44.54104" lon="6.25482">
        <ele>1034.7</ele>
        <time>2015-07-14T07:25:08Z</time>
      </trkpt>
      <trkpt lat="44.54105" lon="6.25485">
        <ele>1033.77</ele>
        <time>2015-07-14T07:25:10Z</time>
      </trkpt>
      <trkpt lat="44.54107" lon="6.25492">
        <ele>1032.4</ele>
        <time>2015-07-14T07:25:14Z</time>
      </trkpt>
      <trkpt lat="44.5412" lon="6.25502">
        <ele>1028.34</ele>
        <time>2015-07-14T07:25:22Z</time>
      </trkpt>
      <trkpt lat="44.54132" lon="6.25509">
        <ele>1026.56</ele>
        <time>2015-07-14T07:25:27Z</time>
      </trkpt>
      <trkpt lat="44.5414" lon="6.25513">
        <ele>1025.19</ele>
        <time>2015-07-14T07:25:32Z</time>
      </trkpt>
      <trkpt lat="44.54137" lon="6.25525">
        <ele>1023.12</ele>
        <time>2015-07-14T07:25:38Z</time>
      </trkpt>
      <trkpt lat="44.54137" lon="6.25537">
        <ele>1020.17</ele>
        <time>2015-07-14T07:25:46Z</time>
      </trkpt>
      <trkpt lat="44.54147" lon="6.25544">
        <ele>1019.08</ele>
        <time>2015-07-14T07:26:08Z</time>
      </trkpt>
      <trkpt lat="44.54142" lon="6.25559">
        <ele>1017.67</ele>
        <time>2015-07-14T07:26:16Z</time>
      </trkpt>
      <trkpt lat="44.54145" lon="6.25562">
        <ele>1016.76</ele>
        <time>2015-07-14T07:26:18Z</time>
      </trkpt>
      <trkpt lat="44.54161" lon="6.25573">
        <ele>1014.08</ele>
        <time>2015-07-14T07:26:25Z</time>
      </trkpt>
      <trkpt lat="44.5418" lon="6.25557">
        <ele>1010.86</ele>
        <time>2015-07-14T07:26:32Z</time>
      </trkpt>
      <trkpt lat="44.54205" lon="6.25564">
        <ele>1008.56</ele>
        <time>2015-07-14T07:26:40Z</time>
      </trkpt>
      <trkpt lat="44.54208" lon="6.25572">
        <ele>1008.03</ele>
        <time>2015-07-14T07:26:42Z</time>
      </trkpt>
      <trkpt lat="44.54211" lon="6.25585">
        <ele>1007.52</ele>
        <time>2015-07-14T07:26:45Z</time>
      </trkpt>
      <trkpt lat="44.54215" lon="6.25591">
        <ele>1007.92</ele>
        <time>2015-07-14T07:26:58Z</time>
      </trkpt>
      <trkpt lat="44.54216" lon="6.25593">
        <ele>1007.77</ele>
        <time>2015-07-14T07:27:31Z</time>
      </trkpt>
      <trkpt lat="44.54217" lon="6.25596">
        <ele>1008.04</ele>
        <time>2015-07-14T07:27:54Z</time>
      </trkpt>
      <trkpt lat="44.54233" lon="6.25612">
        <ele>1007.21</ele>
        <time>2015-07-14T07:28:03Z</time>
      </trkpt>
      <trkpt lat="44.54248" lon="6.25617">
        <ele>1006.73</ele>
        <time>2015-07-14T07:28:08Z</time>
      </trkpt>
      <trkpt lat="44.54269" lon="6.25606">
        <ele>1006.29</ele>
        <time>2015-07-14T07:28:17Z</time>
      </trkpt>
      <trkpt lat="44.54273" lon="6.25608">
        <ele>1006.09</ele>
        <time>2015-07-14T07:28:18Z</time>
      </trkpt>
      <trkpt lat="44.54285" lon="6.2562">
        <ele>1004.69</ele>
        <time>2015-07-14T07:28:22Z</time>
      </trkpt>
      <trkpt lat="44.54288" lon="6.25621">
        <ele>1004.26</ele>
        <time>2015-07-14T07:28:23Z</time>
      </trkpt>
      <trkpt lat="44.54291" lon="6.25622">
        <ele>1003.88</ele>
        <time>2015-07-14T07:28:24Z</time>
      </trkpt>
      <trkpt lat="44.54293" lon="6.25624">
        <ele>1003.54</ele>
        <time>2015-07-14T07:28:25Z</time>
      </trkpt>
      <trkpt lat="44.54296" lon="6.25626">
        <ele>1003.21</ele>
        <time>2015-07-14T07:28:26Z</time>
      </trkpt>
      <trkpt lat="44.54298" lon="6.25626">
        <ele>1002.9</ele>
        <time>2015-07-14T07:28:27Z</time>
      </trkpt>
      <trkpt lat="44.54301" lon="6.25626">
        <ele>1002.6</ele>
        <time>2015-07-14T07:28:28Z</time>
      </trkpt>
      <trkpt lat="44.54305" lon="6.25624">
        <ele>1002.31</ele>
        <time>2015-07-14T07:28:29Z</time>
      </trkpt>
      <trkpt lat="44.54309" lon="6.2562">
        <ele>1002.03</ele>
        <time>2015-07-14T07:28:30Z</time>
      </trkpt>
      <trkpt lat="44.54312" lon="6.25615">
        <ele>1001.69</ele>
        <time>2015-07-14T07:28:31Z</time>
      </trkpt>
      <trkpt lat="44.54314" lon="6.25611">
        <ele>1001.26</ele>
        <time>2015-07-14T07:28:32Z</time>
      </trkpt>
      <trkpt lat="44.54323" lon="6.25608">
        <ele>1000.22</ele>
        <time>2015-07-14T07:28:35Z</time>
      </trkpt>
      <trkpt lat="44.54325" lon="6.25611">
        <ele>999.98</ele>
        <time>2015-07-14T07:28:36Z</time>
      </trkpt>
      <trkpt lat="44.54328" lon="6.25613">
        <ele>999.8</ele>
        <time>2015-07-14T07:28:37Z</time>
      </trkpt>
      <trkpt lat="44.54331" lon="6.25612">
        <ele>999.52</ele>
        <time>2015-07-14T07:28:38Z</time>
      </trkpt>
      <trkpt lat="44.54333" lon="6.25611">
        <ele>999.47</ele>
        <time>2015-07-14T07:28:39Z</time>
      </trkpt>
      <trkpt lat="44.54335" lon="6.2561">
        <ele>999.43</ele>
        <time>2015-07-14T07:28:40Z</time>
      </trkpt>
      <trkpt lat="44.54336" lon="6.25609">
        <ele>999.46</ele>
        <time>2015-07-14T07:28:41Z</time>
      </trkpt>
      <trkpt lat="44.54359" lon="6.25587">
        <ele>999.93</ele>
        <time>2015-07-14T07:28:53Z</time>
      </trkpt>
      <trkpt lat="44.54377" lon="6.25549">
        <ele>1000.96</ele>
        <time>2015-07-14T07:29:05Z</time>
      </trkpt>
      <trkpt lat="44.54388" lon="6.2553">
        <ele>1003.28</ele>
        <time>2015-07-14T07:29:17Z</time>
      </trkpt>
      <trkpt lat="44.54397" lon="6.25515">
        <ele>1003.21</ele>
        <time>2015-07-14T07:29:36Z</time>
      </trkpt>
      <trkpt lat="44.54409" lon="6.2548">
        <ele>1004.43</ele>
        <time>2015-07-14T07:29:49Z</time>
      </trkpt>
      <trkpt lat="44.54409" lon="6.25478">
        <ele>1005.06</ele>
        <time>2015-07-14T07:29:50Z</time>
      </trkpt>
      <trkpt lat="44.54411" lon="6.25477">
        <ele>1005.62</ele>
        <time>2015-07-14T07:29:52Z</time>
      </trkpt>
      <trkpt lat="44.54412" lon="6.25476">
        <ele>1005.91</ele>
        <time>2015-07-14T07:29:53Z</time>
      </trkpt>
      <trkpt lat="44.54414" lon="6.25475">
        <ele>1006.17</ele>
        <time>2015-07-14T07:29:54Z</time>
      </trkpt>
      <trkpt lat="44.54415" lon="6.25474">
        <ele>1006.39</ele>
        <time>2015-07-14T07:29:55Z</time>
      </trkpt>
      <trkpt lat="44.54416" lon="6.25474">
        <ele>1006.62</ele>
        <time>2015-07-14T07:29:56Z</time>
      </trkpt>
      <trkpt lat="44.54417" lon="6.25473">
        <ele>1006.85</ele>
        <time>2015-07-14T07:29:57Z</time>
      </trkpt>
      <trkpt lat="44.54419" lon="6.2547">
        <ele>1007.27</ele>
        <time>2015-07-14T07:29:59Z</time>
      </trkpt>
      <trkpt lat="44.5442" lon="6.25468">
        <ele>1007.47</ele>
        <time>2015-07-14T07:30:00Z</time>
      </trkpt>
      <trkpt lat="44.54438" lon="6.25426">
        <ele>1007.42</ele>
        <time>2015-07-14T07:30:12Z</time>
      </trkpt>
      <trkpt lat="44.54444" lon="6.25408">
        <ele>1006.38</ele>
        <time>2015-07-14T07:30:16Z</time>
      </trkpt>
      <trkpt lat="44.54444" lon="6.25406">
        <ele>1006.28</ele>
        <time>2015-07-14T07:30:17Z</time>
      </trkpt>
      <trkpt lat="44.54454" lon="6.25383">
        <ele>1008.09</ele>
        <time>2015-07-14T07:30:30Z</time>
      </trkpt>
      <trkpt lat="44.54462" lon="6.25355">
        <ele>1008.52</ele>
        <time>2015-07-14T07:30:41Z</time>
      </trkpt>
      <trkpt lat="44.54465" lon="6.25347">
        <ele>1008.43</ele>
        <time>2015-07-14T07:30:46Z</time>
      </trkpt>
      <trkpt lat="44.54466" lon="6.25344">
        <ele>1008.36</ele>
        <time>2015-07-14T07:30:47Z</time>
      </trkpt>
      <trkpt lat="44.54468" lon="6.2534">
        <ele>1008.24</ele>
        <time>2015-07-14T07:30:48Z</time>
      </trkpt>
      <trkpt lat="44.54469" lon="6.25336">
        <ele>1008.07</ele>
        <time>2015-07-14T07:30:49Z</time>
      </trkpt>
      <trkpt lat="44.54471" lon="6.25331">
        <ele>1007.9</ele>
        <time>2015-07-14T07:30:50Z</time>
      </trkpt>
      <trkpt lat="44.54472" lon="6.25328">
        <ele>1007.66</ele>
        <time>2015-07-14T07:30:51Z</time>
      </trkpt>
      <trkpt lat="44.54489" lon="6.25292">
        <ele>1004.37</ele>
        <time>2015-07-14T07:31:00Z</time>
      </trkpt>
      <trkpt lat="44.54493" lon="6.25281">
        <ele>1002.44</ele>
        <time>2015-07-14T07:31:04Z</time>
      </trkpt>
      <trkpt lat="44.54493" lon="6.25278">
        <ele>1001.9</ele>
        <time>2015-07-14T07:31:05Z</time>
      </trkpt>
      <trkpt lat="44.54494" lon="6.25276">
        <ele>1000.94</ele>
        <time>2015-07-14T07:31:06Z</time>
      </trkpt>
      <trkpt lat="44.54493" lon="6.25272">
        <ele>1000.44</ele>
        <time>2015-07-14T07:31:07Z</time>
      </trkpt>
      <trkpt lat="44.54493" lon="6.25268">
        <ele>999.94</ele>
        <time>2015-07-14T07:31:08Z</time>
      </trkpt>
      <trkpt lat="44.54492" lon="6.25263">
        <ele>999.43</ele>
        <time>2015-07-14T07:31:09Z</time>
      </trkpt>
      <trkpt lat="44.54492" lon="6.25258">
        <ele>998.89</ele>
        <time>2015-07-14T07:31:10Z</time>
      </trkpt>
      <trkpt lat="44.54492" lon="6.25253">
        <ele>998.3</ele>
        <time>2015-07-14T07:31:11Z</time>
      </trkpt>
      <trkpt lat="44.54493" lon="6.2525">
        <ele>997.73</ele>
        <time>2015-07-14T07:31:12Z</time>
      </trkpt>
      <trkpt lat="44.54494" lon="6.25248">
        <ele>997.18</ele>
        <time>2015-07-14T07:31:13Z</time>
      </trkpt>
      <trkpt lat="44.54495" lon="6.25247">
        <ele>996.65</ele>
        <time>2015-07-14T07:31:14Z</time>
      </trkpt>
      <trkpt lat="44.54497" lon="6.25247">
        <ele>996.21</ele>
        <time>2015-07-14T07:31:15Z</time>
      </trkpt>
      <trkpt lat="44.54499" lon="6.25247">
        <ele>995.81</ele>
        <time>2015-07-14T07:31:16Z</time>
      </trkpt>
      <trkpt lat="44.545" lon="6.25244">
        <ele>995.45</ele>
        <time>2015-07-14T07:31:17Z</time>
      </trkpt>
      <trkpt lat="44.54502" lon="6.25241">
        <ele>995.05</ele>
        <time>2015-07-14T07:31:18Z</time>
      </trkpt>
      <trkpt lat="44.54504" lon="6.25238">
        <ele>994.64</ele>
        <time>2015-07-14T07:31:19Z</time>
      </trkpt>
      <trkpt lat="44.54505" lon="6.25236">
        <ele>994.28</ele>
        <time>2015-07-14T07:31:20Z</time>
      </trkpt>
      <trkpt lat="44.54506" lon="6.25234">
        <ele>993.98</ele>
        <time>2015-07-14T07:31:21Z</time>
      </trkpt>
      <trkpt lat="44.54508" lon="6.25232">
        <ele>993.75</ele>
        <time>2015-07-14T07:31:22Z</time>
      </trkpt>
      <trkpt lat="44.5451" lon="6.25229">
        <ele>993.6</ele>
        <time>2015-07-14T07:31:23Z</time>
      </trkpt>
      <trkpt lat="44.54512" lon="6.25226">
        <ele>993.51</ele>
        <time>2015-07-14T07:31:24Z</time>
      </trkpt>
      <trkpt lat="44.54512" lon="6.25223">
        <ele>993.47</ele>
        <time>2015-07-14T07:31:25Z</time>
      </trkpt>
      <trkpt lat="44.54512" lon="6.2522">
        <ele>993.47</ele>
        <time>2015-07-14T07:31:26Z</time>
      </trkpt>
      <trkpt lat="44.54511" lon="6.25218">
        <ele>993.53</ele>
        <time>2015-07-14T07:31:27Z</time>
      </trkpt>
      <trkpt lat="44.5451" lon="6.25216">
        <ele>993.65</ele>
        <time>2015-07-14T07:31:28Z</time>
      </trkpt>
      <trkpt lat="44.5451" lon="6.25214">
        <ele>993.82</ele>
        <time>2015-07-14T07:31:29Z</time>
      </trkpt>
      <trkpt lat="44.54508" lon="6.25206">
        <ele>994.81</ele>
        <time>2015-07-14T07:31:33Z</time>
      </trkpt>
      <trkpt lat="44.54508" lon="6.25204">
        <ele>994.99</ele>
        <time>2015-07-14T07:31:34Z</time>
      </trkpt>
      <trkpt lat="44.54509" lon="6.25167">
        <ele>997.06</ele>
        <time>2015-07-14T07:31:47Z</time>
      </trkpt>
      <trkpt lat="44.54511" lon="6.25151">
        <ele>997.62</ele>
        <time>2015-07-14T07:32:02Z</time>
      </trkpt>
      <trkpt lat="44.54512" lon="6.2514">
        <ele>997.62</ele>
        <time>2015-07-14T07:32:18Z</time>
      </trkpt>
      <trkpt lat="44.54513" lon="6.25137">
        <ele>997.59</ele>
        <time>2015-07-14T07:32:19Z</time>
      </trkpt>
      <trkpt lat="44.54514" lon="6.25133">
        <ele>997.43</ele>
        <time>2015-07-14T07:32:20Z</time>
      </trkpt>
      <trkpt lat="44.54515" lon="6.25129">
        <ele>997.29</ele>
        <time>2015-07-14T07:32:21Z</time>
      </trkpt>
      <trkpt lat="44.54516" lon="6.25126">
        <ele>997.11</ele>
        <time>2015-07-14T07:32:22Z</time>
      </trkpt>
      <trkpt lat="44.54516" lon="6.25122">
        <ele>996.9</ele>
        <time>2015-07-14T07:32:23Z</time>
      </trkpt>
      <trkpt lat="44.54517" lon="6.25118">
        <ele>996.66</ele>
        <time>2015-07-14T07:32:24Z</time>
      </trkpt>
      <trkpt lat="44.5452" lon="6.25113">
        <ele>996.43</ele>
        <time>2015-07-14T07:32:25Z</time>
      </trkpt>
      <trkpt lat="44.54522" lon="6.25108">
        <ele>996.11</ele>
        <time>2015-07-14T07:32:26Z</time>
      </trkpt>
      <trkpt lat="44.54524" lon="6.25105">
        <ele>995.72</ele>
        <time>2015-07-14T07:32:27Z</time>
      </trkpt>
      <trkpt lat="44.54526" lon="6.25101">
        <ele>995.35</ele>
        <time>2015-07-14T07:32:28Z</time>
      </trkpt>
      <trkpt lat="44.54528" lon="6.25098">
        <ele>995.02</ele>
        <time>2015-07-14T07:32:29Z</time>
      </trkpt>
      <trkpt lat="44.54529" lon="6.25093">
        <ele>994.73</ele>
        <time>2015-07-14T07:32:30Z</time>
      </trkpt>
      <trkpt lat="44.54539" lon="6.25058">
        <ele>993.58</ele>
        <time>2015-07-14T07:32:36Z</time>
      </trkpt>
      <trkpt lat="44.54561" lon="6.24984">
        <ele>990.52</ele>
        <time>2015-07-14T07:32:49Z</time>
      </trkpt>
      <trkpt lat="44.54567" lon="6.24951">
        <ele>989.56</ele>
        <time>2015-07-14T07:32:58Z</time>
      </trkpt>
      <trkpt lat="44.54568" lon="6.24946">
        <ele>989.42</ele>
        <time>2015-07-14T07:32:59Z</time>
      </trkpt>
      <trkpt lat="44.54586" lon="6.24899">
        <ele>986.61</ele>
        <time>2015-07-14T07:33:10Z</time>
      </trkpt>
      <trkpt lat="44.54587" lon="6.24893">
        <ele>985.98</ele>
        <time>2015-07-14T07:33:12Z</time>
      </trkpt>
      <trkpt lat="44.54588" lon="6.24879">
        <ele>984.9</ele>
        <time>2015-07-14T07:33:15Z</time>
      </trkpt>
      <trkpt lat="44.54597" lon="6.24862">
        <ele>982.22</ele>
        <time>2015-07-14T07:33:25Z</time>
      </trkpt>
      <trkpt lat="44.54597" lon="6.24859">
        <ele>981.84</ele>
        <time>2015-07-14T07:33:37Z</time>
      </trkpt>
      <trkpt lat="44.54598" lon="6.24854">
        <ele>981.81</ele>
        <time>2015-07-14T07:33:42Z</time>
      </trkpt>
      <trkpt lat="44.5461" lon="6.24809">
        <ele>979.62</ele>
        <time>2015-07-14T07:33:54Z</time>
      </trkpt>
      <trkpt lat="44.54618" lon="6.24789">
        <ele>977.42</ele>
        <time>2015-07-14T07:33:59Z</time>
      </trkpt>
      <trkpt lat="44.54624" lon="6.24773">
        <ele>976.44</ele>
        <time>2015-07-14T07:34:02Z</time>
      </trkpt>
      <trkpt lat="44.54628" lon="6.24738">
        <ele>973.75</ele>
        <time>2015-07-14T07:34:10Z</time>
      </trkpt>
      <trkpt lat="44.54624" lon="6.24735">
        <ele>972.94</ele>
        <time>2015-07-14T07:34:12Z</time>
      </trkpt>
      <trkpt lat="44.54623" lon="6.24736">
        <ele>972.61</ele>
        <time>2015-07-14T07:34:13Z</time>
      </trkpt>
      <trkpt lat="44.54619" lon="6.24739">
        <ele>971.71</ele>
        <time>2015-07-14T07:34:17Z</time>
      </trkpt>
      <trkpt lat="44.54617" lon="6.24739">
        <ele>971.58</ele>
        <time>2015-07-14T07:34:18Z</time>
      </trkpt>
      <trkpt lat="44.54616" lon="6.2474">
        <ele>971.52</ele>
        <time>2015-07-14T07:34:19Z</time>
      </trkpt>
      <trkpt lat="44.54615" lon="6.2474">
        <ele>971.47</ele>
        <time>2015-07-14T07:34:20Z</time>
      </trkpt>
      <trkpt lat="44.546" lon="6.24734">
        <ele>972.13</ele>
        <time>2015-07-14T07:34:32Z</time>
      </trkpt>
      <trkpt lat="44.54577" lon="6.24699">
        <ele>974.13</ele>
        <time>2015-07-14T07:34:48Z</time>
      </trkpt>
      <trkpt lat="44.54571" lon="6.24672">
        <ele>975.54</ele>
        <time>2015-07-14T07:34:58Z</time>
      </trkpt>
      <trkpt lat="44.54571" lon="6.2467">
        <ele>975.65</ele>
        <time>2015-07-14T07:34:59Z</time>
      </trkpt>
      <trkpt lat="44.54571" lon="6.24668">
        <ele>975.75</ele>
        <time>2015-07-14T07:35:00Z</time>
      </trkpt>
      <trkpt lat="44.54571" lon="6.24665">
        <ele>975.85</ele>
        <time>2015-07-14T07:35:01Z</time>
      </trkpt>
      <trkpt lat="44.54571" lon="6.24662">
        <ele>975.98</ele>
        <time>2015-07-14T07:35:02Z</time>
      </trkpt>
      <trkpt lat="44.54571" lon="6.24658">
        <ele>976.1</ele>
        <time>2015-07-14T07:35:03Z</time>
      </trkpt>
      <trkpt lat="44.5457" lon="6.24656">
        <ele>976.21</ele>
        <time>2015-07-14T07:35:04Z</time>
      </trkpt>
      <trkpt lat="44.5457" lon="6.24653">
        <ele>976.32</ele>
        <time>2015-07-14T07:35:05Z</time>
      </trkpt>
      <trkpt lat="44.5457" lon="6.24651">
        <ele>976.45</ele>
        <time>2015-07-14T07:35:06Z</time>
      </trkpt>
      <trkpt lat="44.5457" lon="6.24648">
        <ele>976.59</ele>
        <time>2015-07-14T07:35:07Z</time>
      </trkpt>
      <trkpt lat="44.54571" lon="6.24645">
        <ele>976.73</ele>
        <time>2015-07-14T07:35:08Z</time>
      </trkpt>
      <trkpt lat="44.54568" lon="6.24603">
        <ele>979.05</ele>
        <time>2015-07-14T07:35:23Z</time>
      </trkpt>
      <trkpt lat="44.54548" lon="6.24577">
        <ele>980.79</ele>
        <time>2015-07-14T07:35:37Z</time>
      </trkpt>
      <trkpt lat="44.54527" lon="6.24567">
        <ele>983.09</ele>
        <time>2015-07-14T07:35:50Z</time>
      </trkpt>
      <trkpt lat="44.54502" lon="6.24553">
        <ele>984.59</ele>
        <time>2015-07-14T07:36:03Z</time>
      </trkpt>
      <trkpt lat="44.54474" lon="6.24538">
        <ele>986.59</ele>
        <time>2015-07-14T07:36:18Z</time>
      </trkpt>
      <trkpt lat="44.54443" lon="6.24543">
        <ele>988.14</ele>
        <time>2015-07-14T07:36:33Z</time>
      </trkpt>
      <trkpt lat="44.54408" lon="6.24557">
        <ele>989.27</ele>
        <time>2015-07-14T07:36:46Z</time>
      </trkpt>
      <trkpt lat="44.54377" lon="6.24568">
        <ele>989.72</ele>
        <time>2015-07-14T07:36:58Z</time>
      </trkpt>
      <trkpt lat="44.54336" lon="6.24557">
        <ele>989.72</ele>
        <time>2015-07-14T07:37:11Z</time>
      </trkpt>
      <trkpt lat="44.54303" lon="6.24515">
        <ele>989.42</ele>
        <time>2015-07-14T07:37:24Z</time>
      </trkpt>
      <trkpt lat="44.54274" lon="6.24488">
        <ele>989.1</ele>
        <time>2015-07-14T07:37:33Z</time>
      </trkpt>
      <trkpt lat="44.54262" lon="6.24482">
        <ele>988.84</ele>
        <time>2015-07-14T07:37:36Z</time>
      </trkpt>
      <trkpt lat="44.54216" lon="6.24465">
        <ele>987.7</ele>
        <time>2015-07-14T07:37:46Z</time>
      </trkpt>
      <trkpt lat="44.54212" lon="6.24462">
        <ele>987.66</ele>
        <time>2015-07-14T07:37:47Z</time>
      </trkpt>
      <trkpt lat="44.54208" lon="6.24458">
        <ele>987.61</ele>
        <time>2015-07-14T07:37:48Z</time>
      </trkpt>
      <trkpt lat="44.54162" lon="6.24429">
        <ele>985.47</ele>
        <time>2015-07-14T07:37:59Z</time>
      </trkpt>
      <trkpt lat="44.54131" lon="6.24425">
        <ele>983.38</ele>
        <time>2015-07-14T07:38:08Z</time>
      </trkpt>
      <trkpt lat="44.54112" lon="6.24417">
        <ele>982.14</ele>
        <time>2015-07-14T07:38:12Z</time>
      </trkpt>
      <trkpt lat="44.54074" lon="6.24396">
        <ele>978.74</ele>
        <time>2015-07-14T07:38:18Z</time>
      </trkpt>
      <trkpt lat="44.54049" lon="6.24384">
        <ele>975.46</ele>
        <time>2015-07-14T07:38:22Z</time>
      </trkpt>
      <trkpt lat="44.54045" lon="6.24378">
        <ele>974.82</ele>
        <time>2015-07-14T07:38:23Z</time>
      </trkpt>
      <trkpt lat="44.54043" lon="6.24372">
        <ele>974.3</ele>
        <time>2015-07-14T07:38:24Z</time>
      </trkpt>
      <trkpt lat="44.54043" lon="6.24365">
        <ele>973.89</ele>
        <time>2015-07-14T07:38:25Z</time>
      </trkpt>
      <trkpt lat="44.54043" lon="6.2436">
        <ele>973.55</ele>
        <time>2015-07-14T07:38:26Z</time>
      </trkpt>
      <trkpt lat="44.54044" lon="6.24355">
        <ele>973.37</ele>
        <time>2015-07-14T07:38:27Z</time>
      </trkpt>
      <trkpt lat="44.54043" lon="6.24352">
        <ele>973.34</ele>
        <time>2015-07-14T07:38:28Z</time>
      </trkpt>
      <trkpt lat="44.54043" lon="6.24349">
        <ele>973.42</ele>
        <time>2015-07-14T07:38:29Z</time>
      </trkpt>
      <trkpt lat="44.54043" lon="6.24346">
        <ele>973.57</ele>
        <time>2015-07-14T07:38:30Z</time>
      </trkpt>
      <trkpt lat="44.54043" lon="6.24344">
        <ele>973.8</ele>
        <time>2015-07-14T07:38:31Z</time>
      </trkpt>
      <trkpt lat="44.54041" lon="6.24313">
        <ele>976.06</ele>
        <time>2015-07-14T07:38:42Z</time>
      </trkpt>
      <trkpt lat="44.54041" lon="6.24282">
        <ele>977.66</ele>
        <time>2015-07-14T07:38:51Z</time>
      </trkpt>
      <trkpt lat="44.54041" lon="6.2428">
        <ele>977.8</ele>
        <time>2015-07-14T07:38:52Z</time>
      </trkpt>
      <trkpt lat="44.54042" lon="6.24277">
        <ele>977.97</ele>
        <time>2015-07-14T07:38:53Z</time>
      </trkpt>
      <trkpt lat="44.54042" lon="6.24273">
        <ele>978.15</ele>
        <time>2015-07-14T07:38:54Z</time>
      </trkpt>
      <trkpt lat="44.54041" lon="6.2427">
        <ele>978.34</ele>
        <time>2015-07-14T07:38:55Z</time>
      </trkpt>
      <trkpt lat="44.54042" lon="6.24267">
        <ele>978.53</ele>
        <time>2015-07-14T07:38:56Z</time>
      </trkpt>
      <trkpt lat="44.54042" lon="6.24264">
        <ele>978.73</ele>
        <time>2015-07-14T07:38:57Z</time>
      </trkpt>
      <trkpt lat="44.54042" lon="6.24261">
        <ele>978.92</ele>
        <time>2015-07-14T07:38:58Z</time>
      </trkpt>
      <trkpt lat="44.54042" lon="6.24258">
        <ele>979.07</ele>
        <time>2015-07-14T07:38:59Z</time>
      </trkpt>
      <trkpt lat="44.54043" lon="6.24255">
        <ele>979.25</ele>
        <time>2015-07-14T07:39:00Z</time>
      </trkpt>
      <trkpt lat="44.54042" lon="6.24252">
        <ele>979.42</ele>
        <time>2015-07-14T07:39:01Z</time>
      </trkpt>
      <trkpt lat="44.54042" lon="6.24209">
        <ele>980.56</ele>
        <time>2015-07-14T07:39:14Z</time>
      </trkpt>
      <trkpt lat="44.54025" lon="6.24169">
        <ele>980.34</ele>
        <time>2015-07-14T07:39:26Z</time>
      </trkpt>
      <trkpt lat="44.54005" lon="6.24156">
        <ele>980.12</ele>
        <time>2015-07-14T07:39:32Z</time>
      </trkpt>
      <trkpt lat="44.53992" lon="6.24141">
        <ele>979.57</ele>
        <time>2015-07-14T07:39:36Z</time>
      </trkpt>
      <trkpt lat="44.53977" lon="6.24096">
        <ele>978.51</ele>
        <time>2015-07-14T07:39:46Z</time>
      </trkpt>
      <trkpt lat="44.5396" lon="6.24047">
        <ele>979.59</ele>
        <time>2015-07-14T07:39:57Z</time>
      </trkpt>
      <trkpt lat="44.53952" lon="6.24028">
        <ele>980.14</ele>
        <time>2015-07-14T07:40:02Z</time>
      </trkpt>
      <trkpt lat="44.53951" lon="6.24024">
        <ele>980.23</ele>
        <time>2015-07-14T07:40:03Z</time>
      </trkpt>
      <trkpt lat="44.53949" lon="6.24021">
        <ele>980.35</ele>
        <time>2015-07-14T07:40:04Z</time>
      </trkpt>
      <trkpt lat="44.53947" lon="6.24019">
        <ele>980.47</ele>
        <time>2015-07-14T07:40:05Z</time>
      </trkpt>
      <trkpt lat="44.53946" lon="6.24016">
        <ele>980.59</ele>
        <time>2015-07-14T07:40:06Z</time>
      </trkpt>
      <trkpt lat="44.53944" lon="6.24014">
        <ele>980.73</ele>
        <time>2015-07-14T07:40:07Z</time>
      </trkpt>
      <trkpt lat="44.53934" lon="6.2399">
        <ele>983.71</ele>
        <time>2015-07-14T07:40:19Z</time>
      </trkpt>
      <trkpt lat="44.53931" lon="6.23962">
        <ele>986.09</ele>
        <time>2015-07-14T07:40:31Z</time>
      </trkpt>
      <trkpt lat="44.53933" lon="6.23935">
        <ele>988.09</ele>
        <time>2015-07-14T07:40:44Z</time>
      </trkpt>
      <trkpt lat="44.53934" lon="6.23926">
        <ele>988.78</ele>
        <time>2015-07-14T07:40:48Z</time>
      </trkpt>
      <trkpt lat="44.53931" lon="6.23903">
        <ele>991.22</ele>
        <time>2015-07-14T07:40:59Z</time>
      </trkpt>
      <trkpt lat="44.53931" lon="6.23901">
        <ele>991.33</ele>
        <time>2015-07-14T07:41:00Z</time>
      </trkpt>
      <trkpt lat="44.53931" lon="6.239">
        <ele>991.44</ele>
        <time>2015-07-14T07:41:01Z</time>
      </trkpt>
      <trkpt lat="44.5393" lon="6.23898">
        <ele>991.56</ele>
        <time>2015-07-14T07:41:02Z</time>
      </trkpt>
      <trkpt lat="44.53929" lon="6.23896">
        <ele>991.74</ele>
        <time>2015-07-14T07:41:03Z</time>
      </trkpt>
      <trkpt lat="44.53929" lon="6.23895">
        <ele>991.98</ele>
        <time>2015-07-14T07:41:04Z</time>
      </trkpt>
      <trkpt lat="44.53928" lon="6.23893">
        <ele>992.23</ele>
        <time>2015-07-14T07:41:05Z</time>
      </trkpt>
      <trkpt lat="44.53928" lon="6.23891">
        <ele>992.44</ele>
        <time>2015-07-14T07:41:06Z</time>
      </trkpt>
      <trkpt lat="44.53924" lon="6.23881">
        <ele>993.37</ele>
        <time>2015-07-14T07:41:12Z</time>
      </trkpt>
      <trkpt lat="44.53923" lon="6.23879">
        <ele>993.77</ele>
        <time>2015-07-14T07:41:13Z</time>
      </trkpt>
      <trkpt lat="44.53923" lon="6.23878">
        <ele>993.98</ele>
        <time>2015-07-14T07:41:14Z</time>
      </trkpt>
      <trkpt lat="44.53922" lon="6.23876">
        <ele>994.18</ele>
        <time>2015-07-14T07:41:15Z</time>
      </trkpt>
      <trkpt lat="44.53921" lon="6.23875">
        <ele>994.35</ele>
        <time>2015-07-14T07:41:16Z</time>
      </trkpt>
      <trkpt lat="44.53915" lon="6.2386">
        <ele>996.4</ele>
        <time>2015-07-14T07:41:26Z</time>
      </trkpt>
      <trkpt lat="44.53914" lon="6.23859">
        <ele>996.61</ele>
        <time>2015-07-14T07:41:27Z</time>
      </trkpt>
      <trkpt lat="44.53913" lon="6.23858">
        <ele>996.79</ele>
        <time>2015-07-14T07:41:28Z</time>
      </trkpt>
      <trkpt lat="44.53913" lon="6.23857">
        <ele>996.95</ele>
        <time>2015-07-14T07:41:29Z</time>
      </trkpt>
      <trkpt lat="44.539" lon="6.23845">
        <ele>999.24</ele>
        <time>2015-07-14T07:41:44Z</time>
      </trkpt>
      <trkpt lat="44.53884" lon="6.23835">
        <ele>1001.99</ele>
        <time>2015-07-14T07:42:06Z</time>
      </trkpt>
      <trkpt lat="44.53872" lon="6.23818">
        <ele>1004.04</ele>
        <time>2015-07-14T07:42:24Z</time>
      </trkpt>
      <trkpt lat="44.53858" lon="6.23806">
        <ele>1007.05</ele>
        <time>2015-07-14T07:42:42Z</time>
      </trkpt>
      <trkpt lat="44.53845" lon="6.23793">
        <ele>1008.64</ele>
        <time>2015-07-14T07:42:58Z</time>
      </trkpt>
      <trkpt lat="44.53833" lon="6.23783">
        <ele>1009.58</ele>
        <time>2015-07-14T07:43:09Z</time>
      </trkpt>
      <trkpt lat="44.53822" lon="6.2376">
        <ele>1011.38</ele>
        <time>2015-07-14T07:43:24Z</time>
      </trkpt>
      <trkpt lat="44.53818" lon="6.23734">
        <ele>1013.2</ele>
        <time>2015-07-14T07:43:39Z</time>
      </trkpt>
      <trkpt lat="44.53822" lon="6.23714">
        <ele>1015.76</ele>
        <time>2015-07-14T07:43:51Z</time>
      </trkpt>
      <trkpt lat="44.53818" lon="6.23687">
        <ele>1017.96</ele>
        <time>2015-07-14T07:44:06Z</time>
      </trkpt>
      <trkpt lat="44.53806" lon="6.23658">
        <ele>1019.83</ele>
        <time>2015-07-14T07:44:24Z</time>
      </trkpt>
      <trkpt lat="44.53806" lon="6.23657">
        <ele>1019.96</ele>
        <time>2015-07-14T07:44:25Z</time>
      </trkpt>
      <trkpt lat="44.53806" lon="6.23655">
        <ele>1020.08</ele>
        <time>2015-07-14T07:44:26Z</time>
      </trkpt>
      <trkpt lat="44.53805" lon="6.23652">
        <ele>1020.18</ele>
        <time>2015-07-14T07:44:27Z</time>
      </trkpt>
      <trkpt lat="44.53805" lon="6.2365">
        <ele>1020.36</ele>
        <time>2015-07-14T07:44:28Z</time>
      </trkpt>
      <trkpt lat="44.53804" lon="6.23648">
        <ele>1020.36</ele>
        <time>2015-07-14T07:44:29Z</time>
      </trkpt>
      <trkpt lat="44.53804" lon="6.23646">
        <ele>1020.52</ele>
        <time>2015-07-14T07:44:30Z</time>
      </trkpt>
      <trkpt lat="44.53803" lon="6.23643">
        <ele>1020.6</ele>
        <time>2015-07-14T07:44:31Z</time>
      </trkpt>
      <trkpt lat="44.53803" lon="6.23641">
        <ele>1020.68</ele>
        <time>2015-07-14T07:44:32Z</time>
      </trkpt>
      <trkpt lat="44.53803" lon="6.23638">
        <ele>1020.76</ele>
        <time>2015-07-14T07:44:33Z</time>
      </trkpt>
      <trkpt lat="44.53802" lon="6.23636">
        <ele>1020.84</ele>
        <time>2015-07-14T07:44:34Z</time>
      </trkpt>
      <trkpt lat="44.53802" lon="6.23634">
        <ele>1020.91</ele>
        <time>2015-07-14T07:44:35Z</time>
      </trkpt>
      <trkpt lat="44.53799" lon="6.23601">
        <ele>1022.38</ele>
        <time>2015-07-14T07:44:50Z</time>
      </trkpt>
      <trkpt lat="44.53796" lon="6.23561">
        <ele>1024.75</ele>
        <time>2015-07-14T07:45:08Z</time>
      </trkpt>
      <trkpt lat="44.53788" lon="6.23515">
        <ele>1026.63</ele>
        <time>2015-07-14T07:45:29Z</time>
      </trkpt>
      <trkpt lat="44.53782" lon="6.2347">
        <ele>1027.42</ele>
        <time>2015-07-14T07:45:44Z</time>
      </trkpt>
      <trkpt lat="44.53775" lon="6.23418">
        <ele>1027.34</ele>
        <time>2015-07-14T07:45:58Z</time>
      </trkpt>
      <trkpt lat="44.53755" lon="6.23345">
        <ele>1026.61</ele>
        <time>2015-07-14T07:46:13Z</time>
      </trkpt>
      <trkpt lat="44.53737" lon="6.23281">
        <ele>1023.23</ele>
        <time>2015-07-14T07:46:21Z</time>
      </trkpt>
      <trkpt lat="44.53722" lon="6.23206">
        <ele>1019.83</ele>
        <time>2015-07-14T07:46:28Z</time>
      </trkpt>
      <trkpt lat="44.53709" lon="6.23132">
        <ele>1016.5</ele>
        <time>2015-07-14T07:46:35Z</time>
      </trkpt>
      <trkpt lat="44.53687" lon="6.2303">
        <ele>1012.57</ele>
        <time>2015-07-14T07:46:44Z</time>
      </trkpt>
      <trkpt lat="44.53677" lon="6.23007">
        <ele>1010.45</ele>
        <time>2015-07-14T07:46:48Z</time>
      </trkpt>
      <trkpt lat="44.53675" lon="6.23006">
        <ele>1010.15</ele>
        <time>2015-07-14T07:46:49Z</time>
      </trkpt>
      <trkpt lat="44.53674" lon="6.23005">
        <ele>1009.95</ele>
        <time>2015-07-14T07:46:50Z</time>
      </trkpt>
      <trkpt lat="44.53673" lon="6.23004">
        <ele>1009.79</ele>
        <time>2015-07-14T07:46:51Z</time>
      </trkpt>
      <trkpt lat="44.53672" lon="6.23003">
        <ele>1009.66</ele>
        <time>2015-07-14T07:46:52Z</time>
      </trkpt>
      <trkpt lat="44.53669" lon="6.23002">
        <ele>1009.55</ele>
        <time>2015-07-14T07:46:53Z</time>
      </trkpt>
      <trkpt lat="44.53665" lon="6.23001">
        <ele>1009.4</ele>
        <time>2015-07-14T07:46:54Z</time>
      </trkpt>
      <trkpt lat="44.53649" lon="6.22995">
        <ele>1008.77</ele>
        <time>2015-07-14T07:46:57Z</time>
      </trkpt>
      <trkpt lat="44.53609" lon="6.22973">
        <ele>1005.55</ele>
        <time>2015-07-14T07:47:03Z</time>
      </trkpt>
      <trkpt lat="44.53584" lon="6.22955">
        <ele>1003.19</ele>
        <time>2015-07-14T07:47:07Z</time>
      </trkpt>
      <trkpt lat="44.53575" lon="6.22945">
        <ele>1002.37</ele>
        <time>2015-07-14T07:47:09Z</time>
      </trkpt>
      <trkpt lat="44.53541" lon="6.22888">
        <ele>999.68</ele>
        <time>2015-07-14T07:47:19Z</time>
      </trkpt>
      <trkpt lat="44.53538" lon="6.22883">
        <ele>999.51</ele>
        <time>2015-07-14T07:47:20Z</time>
      </trkpt>
      <trkpt lat="44.53535" lon="6.22878">
        <ele>999.38</ele>
        <time>2015-07-14T07:47:21Z</time>
      </trkpt>
      <trkpt lat="44.53533" lon="6.22872">
        <ele>999.27</ele>
        <time>2015-07-14T07:47:22Z</time>
      </trkpt>
      <trkpt lat="44.53533" lon="6.22866">
        <ele>999.17</ele>
        <time>2015-07-14T07:47:23Z</time>
      </trkpt>
      <trkpt lat="44.53533" lon="6.2286">
        <ele>999.1</ele>
        <time>2015-07-14T07:47:24Z</time>
      </trkpt>
      <trkpt lat="44.53533" lon="6.22853">
        <ele>999.03</ele>
        <time>2015-07-14T07:47:25Z</time>
      </trkpt>
      <trkpt lat="44.53533" lon="6.2283">
        <ele>998.79</ele>
        <time>2015-07-14T07:47:28Z</time>
      </trkpt>
      <trkpt lat="44.53528" lon="6.22758">
        <ele>995.99</ele>
        <time>2015-07-14T07:47:37Z</time>
      </trkpt>
      <trkpt lat="44.53527" lon="6.22752">
        <ele>995.93</ele>
        <time>2015-07-14T07:47:38Z</time>
      </trkpt>
      <trkpt lat="44.53525" lon="6.22746">
        <ele>995.91</ele>
        <time>2015-07-14T07:47:39Z</time>
      </trkpt>
      <trkpt lat="44.5352" lon="6.22706">
        <ele>996.2</ele>
        <time>2015-07-14T07:47:46Z</time>
      </trkpt>
      <trkpt lat="44.5351" lon="6.22655">
        <ele>996.72</ele>
        <time>2015-07-14T07:47:57Z</time>
      </trkpt>
      <trkpt lat="44.5351" lon="6.22648">
        <ele>997.01</ele>
        <time>2015-07-14T07:47:59Z</time>
      </trkpt>
      <trkpt lat="44.53507" lon="6.22593">
        <ele>998.15</ele>
        <time>2015-07-14T07:48:13Z</time>
      </trkpt>
      <trkpt lat="44.53501" lon="6.22563">
        <ele>1000.57</ele>
        <time>2015-07-14T07:48:26Z</time>
      </trkpt>
      <trkpt lat="44.53497" lon="6.22542">
        <ele>1002.43</ele>
        <time>2015-07-14T07:48:36Z</time>
      </trkpt>
      <trkpt lat="44.53497" lon="6.2254">
        <ele>1002.56</ele>
        <time>2015-07-14T07:48:37Z</time>
      </trkpt>
      <trkpt lat="44.53497" lon="6.22537">
        <ele>1002.68</ele>
        <time>2015-07-14T07:48:38Z</time>
      </trkpt>
      <trkpt lat="44.53497" lon="6.22535">
        <ele>1002.84</ele>
        <time>2015-07-14T07:48:39Z</time>
      </trkpt>
      <trkpt lat="44.53497" lon="6.22533">
        <ele>1003.04</ele>
        <time>2015-07-14T07:48:40Z</time>
      </trkpt>
      <trkpt lat="44.53497" lon="6.2253">
        <ele>1003.21</ele>
        <time>2015-07-14T07:48:41Z</time>
      </trkpt>
      <trkpt lat="44.53492" lon="6.22502">
        <ele>1005.38</ele>
        <time>2015-07-14T07:48:56Z</time>
      </trkpt>
      <trkpt lat="44.53487" lon="6.22482">
        <ele>1007.06</ele>
        <time>2015-07-14T07:49:06Z</time>
      </trkpt>
      <trkpt lat="44.53487" lon="6.2248">
        <ele>1007.22</ele>
        <time>2015-07-14T07:49:07Z</time>
      </trkpt>
      <trkpt lat="44.53486" lon="6.22478">
        <ele>1007.4</ele>
        <time>2015-07-14T07:49:08Z</time>
      </trkpt>
      <trkpt lat="44.53486" lon="6.22477">
        <ele>1007.63</ele>
        <time>2015-07-14T07:49:09Z</time>
      </trkpt>
      <trkpt lat="44.53485" lon="6.22475">
        <ele>1007.88</ele>
        <time>2015-07-14T07:49:10Z</time>
      </trkpt>
      <trkpt lat="44.53484" lon="6.22473">
        <ele>1008.11</ele>
        <time>2015-07-14T07:49:11Z</time>
      </trkpt>
      <trkpt lat="44.53484" lon="6.22472">
        <ele>1008.33</ele>
        <time>2015-07-14T07:49:12Z</time>
      </trkpt>
      <trkpt lat="44.53483" lon="6.2247">
        <ele>1008.53</ele>
        <time>2015-07-14T07:49:13Z</time>
      </trkpt>
      <trkpt lat="44.53482" lon="6.22468">
        <ele>1008.94</ele>
        <time>2015-07-14T07:49:14Z</time>
      </trkpt>
      <trkpt lat="44.53482" lon="6.22466">
        <ele>1008.94</ele>
        <time>2015-07-14T07:49:15Z</time>
      </trkpt>
      <trkpt lat="44.53482" lon="6.22464">
        <ele>1009.42</ele>
        <time>2015-07-14T07:49:16Z</time>
      </trkpt>
      <trkpt lat="44.53481" lon="6.22462">
        <ele>1009.6</ele>
        <time>2015-07-14T07:49:17Z</time>
      </trkpt>
      <trkpt lat="44.53481" lon="6.22461">
        <ele>1009.77</ele>
        <time>2015-07-14T07:49:18Z</time>
      </trkpt>
      <trkpt lat="44.5348" lon="6.22459">
        <ele>1009.93</ele>
        <time>2015-07-14T07:49:19Z</time>
      </trkpt>
      <trkpt lat="44.5348" lon="6.22457">
        <ele>1010.08</ele>
        <time>2015-07-14T07:49:20Z</time>
      </trkpt>
      <trkpt lat="44.5348" lon="6.22455">
        <ele>1010.21</ele>
        <time>2015-07-14T07:49:21Z</time>
      </trkpt>
      <trkpt lat="44.53465" lon="6.22431">
        <ele>1012.75</ele>
        <time>2015-07-14T07:49:38Z</time>
      </trkpt>
      <trkpt lat="44.53442" lon="6.22438">
        <ele>1015.14</ele>
        <time>2015-07-14T07:49:55Z</time>
      </trkpt>
      <trkpt lat="44.53423" lon="6.22451">
        <ele>1018.19</ele>
        <time>2015-07-14T07:50:12Z</time>
      </trkpt>
      <trkpt lat="44.53404" lon="6.22466">
        <ele>1021.21</ele>
        <time>2015-07-14T07:50:31Z</time>
      </trkpt>
      <trkpt lat="44.53397" lon="6.22472">
        <ele>1022.27</ele>
        <time>2015-07-14T07:50:38Z</time>
      </trkpt>
      <trkpt lat="44.53397" lon="6.22473">
        <ele>1022.4</ele>
        <time>2015-07-14T07:50:39Z</time>
      </trkpt>
      <trkpt lat="44.53389" lon="6.2248">
        <ele>1023.58</ele>
        <time>2015-07-14T07:50:47Z</time>
      </trkpt>
      <trkpt lat="44.53368" lon="6.22489">
        <ele>1026.32</ele>
        <time>2015-07-14T07:51:04Z</time>
      </trkpt>
      <trkpt lat="44.53352" lon="6.22489">
        <ele>1028.3</ele>
        <time>2015-07-14T07:51:17Z</time>
      </trkpt>
      <trkpt lat="44.53347" lon="6.22488">
        <ele>1029.16</ele>
        <time>2015-07-14T07:51:21Z</time>
      </trkpt>
      <trkpt lat="44.53346" lon="6.22488">
        <ele>1029.33</ele>
        <time>2015-07-14T07:51:22Z</time>
      </trkpt>
      <trkpt lat="44.53344" lon="6.22487">
        <ele>1029.49</ele>
        <time>2015-07-14T07:51:23Z</time>
      </trkpt>
      <trkpt lat="44.53343" lon="6.22487">
        <ele>1029.65</ele>
        <time>2015-07-14T07:51:24Z</time>
      </trkpt>
      <trkpt lat="44.53341" lon="6.22487">
        <ele>1029.8</ele>
        <time>2015-07-14T07:51:25Z</time>
      </trkpt>
      <trkpt lat="44.53319" lon="6.22473">
        <ele>1032.02</ele>
        <time>2015-07-14T07:51:41Z</time>
      </trkpt>
      <trkpt lat="44.53309" lon="6.22435">
        <ele>1033.6</ele>
        <time>2015-07-14T07:51:57Z</time>
      </trkpt>
      <trkpt lat="44.53296" lon="6.22398">
        <ele>1034.35</ele>
        <time>2015-07-14T07:52:10Z</time>
      </trkpt>
      <trkpt lat="44.53313" lon="6.22343">
        <ele>1033.55</ele>
        <time>2015-07-14T07:52:23Z</time>
      </trkpt>
      <trkpt lat="44.53326" lon="6.22307">
        <ele>1033.37</ele>
        <time>2015-07-14T07:52:32Z</time>
      </trkpt>
      <trkpt lat="44.53332" lon="6.22283">
        <ele>1032.24</ele>
        <time>2015-07-14T07:52:39Z</time>
      </trkpt>
      <trkpt lat="44.53332" lon="6.22282">
        <ele>1032.06</ele>
        <time>2015-07-14T07:52:40Z</time>
      </trkpt>
      <trkpt lat="44.5333" lon="6.22281">
        <ele>1031.91</ele>
        <time>2015-07-14T07:52:41Z</time>
      </trkpt>
      <trkpt lat="44.53329" lon="6.22282">
        <ele>1031.8</ele>
        <time>2015-07-14T07:52:42Z</time>
      </trkpt>
      <trkpt lat="44.53328" lon="6.22283">
        <ele>1031.74</ele>
        <time>2015-07-14T07:52:43Z</time>
      </trkpt>
      <trkpt lat="44.53326" lon="6.22285">
        <ele>1031.67</ele>
        <time>2015-07-14T07:52:44Z</time>
      </trkpt>
      <trkpt lat="44.53326" lon="6.22287">
        <ele>1031.67</ele>
        <time>2015-07-14T07:52:45Z</time>
      </trkpt>
      <trkpt lat="44.53326" lon="6.22288">
        <ele>1031.66</ele>
        <time>2015-07-14T07:52:46Z</time>
      </trkpt>
      <trkpt lat="44.53326" lon="6.22288">
        <ele>1031.65</ele>
        <time>2015-07-14T07:53:02Z</time>
      </trkpt>
      <trkpt lat="44.53325" lon="6.22289">
        <ele>1031.62</ele>
        <time>2015-07-14T07:55:59Z</time>
      </trkpt>
      <trkpt lat="44.53324" lon="6.22285">
        <ele>1031.47</ele>
        <time>2015-07-14T07:59:18Z</time>
      </trkpt>
      <trkpt lat="44.53323" lon="6.22278">
        <ele>1031.11</ele>
        <time>2015-07-14T08:00:27Z</time>
      </trkpt>
      <trkpt lat="44.53322" lon="6.22276">
        <ele>1031.05</ele>
        <time>2015-07-14T08:00:46Z</time>
      </trkpt>
      <trkpt lat="44.53324" lon="6.22272">
        <ele>1031.16</ele>
        <time>2015-07-14T08:01:06Z</time>
      </trkpt>
      <trkpt lat="44.53321" lon="6.22269">
        <ele>1031.15</ele>
        <time>2015-07-14T08:01:22Z</time>
      </trkpt>
      <trkpt lat="44.53299" lon="6.22252">
        <ele>1030.52</ele>
        <time>2015-07-14T08:01:32Z</time>
      </trkpt>
      <trkpt lat="44.53283" lon="6.22242">
        <ele>1030.09</ele>
        <time>2015-07-14T08:01:36Z</time>
      </trkpt>
      <trkpt lat="44.53252" lon="6.22241">
        <ele>1028.91</ele>
        <time>2015-07-14T08:01:42Z</time>
      </trkpt>
      <trkpt lat="44.53213" lon="6.22249">
        <ele>1028.38</ele>
        <time>2015-07-14T08:01:54Z</time>
      </trkpt>
      <trkpt lat="44.53189" lon="6.2225">
        <ele>1029.17</ele>
        <time>2015-07-14T08:02:01Z</time>
      </trkpt>
      <trkpt lat="44.53166" lon="6.2226">
        <ele>1028.85</ele>
        <time>2015-07-14T08:02:06Z</time>
      </trkpt>
      <trkpt lat="44.53125" lon="6.22285">
        <ele>1028.34</ele>
        <time>2015-07-14T08:02:18Z</time>
      </trkpt>
      <trkpt lat="44.53084" lon="6.22281">
        <ele>1029.51</ele>
        <time>2015-07-14T08:02:30Z</time>
      </trkpt>
      <trkpt lat="44.53064" lon="6.22287">
        <ele>1029.28</ele>
        <time>2015-07-14T08:02:34Z</time>
      </trkpt>
      <trkpt lat="44.53054" lon="6.22296">
        <ele>1028.9</ele>
        <time>2015-07-14T08:02:36Z</time>
      </trkpt>
      <trkpt lat="44.53044" lon="6.22305">
        <ele>1028.33</ele>
        <time>2015-07-14T08:02:38Z</time>
      </trkpt>
      <trkpt lat="44.53025" lon="6.22315">
        <ele>1027.42</ele>
        <time>2015-07-14T08:02:43Z</time>
      </trkpt>
      <trkpt lat="44.53017" lon="6.22319">
        <ele>1027.6</ele>
        <time>2015-07-14T08:02:45Z</time>
      </trkpt>
      <trkpt lat="44.52962" lon="6.22359">
        <ele>1026.32</ele>
        <time>2015-07-14T08:02:55Z</time>
      </trkpt>
      <trkpt lat="44.52954" lon="6.22342">
        <ele>1024.99</ele>
        <time>2015-07-14T08:03:00Z</time>
      </trkpt>
      <trkpt lat="44.52981" lon="6.22298">
        <ele>1021.81</ele>
        <time>2015-07-14T08:03:11Z</time>
      </trkpt>
      <trkpt lat="44.53002" lon="6.22284">
        <ele>1018.35</ele>
        <time>2015-07-14T08:03:18Z</time>
      </trkpt>
      <trkpt lat="44.53012" lon="6.22275">
        <ele>1015.22</ele>
        <time>2015-07-14T08:03:22Z</time>
      </trkpt>
      <trkpt lat="44.53014" lon="6.22273">
        <ele>1014.47</ele>
        <time>2015-07-14T08:03:23Z</time>
      </trkpt>
      <trkpt lat="44.53018" lon="6.22241">
        <ele>1010.33</ele>
        <time>2015-07-14T08:03:29Z</time>
      </trkpt>
      <trkpt lat="44.53021" lon="6.22221">
        <ele>1008.53</ele>
        <time>2015-07-14T08:03:33Z</time>
      </trkpt>
      <trkpt lat="44.53023" lon="6.2221">
        <ele>1008.12</ele>
        <time>2015-07-14T08:03:36Z</time>
      </trkpt>
      <trkpt lat="44.53024" lon="6.22184">
        <ele>1008.53</ele>
        <time>2015-07-14T08:03:46Z</time>
      </trkpt>
      <trkpt lat="44.53027" lon="6.22148">
        <ele>1008.89</ele>
        <time>2015-07-14T08:03:57Z</time>
      </trkpt>
      <trkpt lat="44.5303" lon="6.22127">
        <ele>1009.23</ele>
        <time>2015-07-14T08:04:02Z</time>
      </trkpt>
      <trkpt lat="44.53034" lon="6.22102">
        <ele>1009.61</ele>
        <time>2015-07-14T08:04:08Z</time>
      </trkpt>
      <trkpt lat="44.53041" lon="6.22089">
        <ele>1009.74</ele>
        <time>2015-07-14T08:04:12Z</time>
      </trkpt>
      <trkpt lat="44.53052" lon="6.22041">
        <ele>1010.94</ele>
        <time>2015-07-14T08:04:24Z</time>
      </trkpt>
      <trkpt lat="44.53033" lon="6.22011">
        <ele>1011.35</ele>
        <time>2015-07-14T08:04:33Z</time>
      </trkpt>
      <trkpt lat="44.53013" lon="6.22002">
        <ele>1012.32</ele>
        <time>2015-07-14T08:04:43Z</time>
      </trkpt>
      <trkpt lat="44.53011" lon="6.22">
        <ele>1012.58</ele>
        <time>2015-07-14T08:04:44Z</time>
      </trkpt>
      <trkpt lat="44.53002" lon="6.2199">
        <ele>1013.92</ele>
        <time>2015-07-14T08:04:50Z</time>
      </trkpt>
      <trkpt lat="44.52976" lon="6.21969">
        <ele>1014.36</ele>
        <time>2015-07-14T08:05:03Z</time>
      </trkpt>
      <trkpt lat="44.52965" lon="6.21966">
        <ele>1014.64</ele>
        <time>2015-07-14T08:05:09Z</time>
      </trkpt>
      <trkpt lat="44.52945" lon="6.21958">
        <ele>1015.03</ele>
        <time>2015-07-14T08:05:17Z</time>
      </trkpt>
      <trkpt lat="44.52915" lon="6.2196">
        <ele>1016.01</ele>
        <time>2015-07-14T08:05:28Z</time>
      </trkpt>
      <trkpt lat="44.52905" lon="6.21963">
        <ele>1019.22</ele>
        <time>2015-07-14T08:05:39Z</time>
      </trkpt>
      <trkpt lat="44.52885" lon="6.21971">
        <ele>1022.32</ele>
        <time>2015-07-14T08:05:57Z</time>
      </trkpt>
      <trkpt lat="44.52874" lon="6.21973">
        <ele>1023.7</ele>
        <time>2015-07-14T08:06:07Z</time>
      </trkpt>
      <trkpt lat="44.52849" lon="6.21961">
        <ele>1022.35</ele>
        <time>2015-07-14T08:06:18Z</time>
      </trkpt>
      <trkpt lat="44.5284" lon="6.21946">
        <ele>1019.27</ele>
        <time>2015-07-14T08:06:24Z</time>
      </trkpt>
      <trkpt lat="44.52835" lon="6.21932">
        <ele>1015.72</ele>
        <time>2015-07-14T08:06:28Z</time>
      </trkpt>
      <trkpt lat="44.52833" lon="6.21925">
        <ele>1013.46</ele>
        <time>2015-07-14T08:06:32Z</time>
      </trkpt>
      <trkpt lat="44.52834" lon="6.21911">
        <ele>1012.03</ele>
        <time>2015-07-14T08:06:42Z</time>
      </trkpt>
      <trkpt lat="44.52844" lon="6.2189">
        <ele>1014.56</ele>
        <time>2015-07-14T08:06:54Z</time>
      </trkpt>
      <trkpt lat="44.5286" lon="6.2187">
        <ele>1015.77</ele>
        <time>2015-07-14T08:07:06Z</time>
      </trkpt>
      <trkpt lat="44.52864" lon="6.21847">
        <ele>1018.03</ele>
        <time>2015-07-14T08:07:19Z</time>
      </trkpt>
      <trkpt lat="44.52875" lon="6.2184">
        <ele>1021.06</ele>
        <time>2015-07-14T08:07:34Z</time>
      </trkpt>
      <trkpt lat="44.52883" lon="6.21839">
        <ele>1022.3</ele>
        <time>2015-07-14T08:07:44Z</time>
      </trkpt>
      <trkpt lat="44.529" lon="6.21838">
        <ele>1024.79</ele>
        <time>2015-07-14T08:07:59Z</time>
      </trkpt>
      <trkpt lat="44.52919" lon="6.21836">
        <ele>1027.85</ele>
        <time>2015-07-14T08:08:18Z</time>
      </trkpt>
      <trkpt lat="44.52934" lon="6.21833">
        <ele>1030.3</ele>
        <time>2015-07-14T08:08:33Z</time>
      </trkpt>
      <trkpt lat="44.52945" lon="6.21829">
        <ele>1032.15</ele>
        <time>2015-07-14T08:08:47Z</time>
      </trkpt>
      <trkpt lat="44.52952" lon="6.21821">
        <ele>1034.03</ele>
        <time>2015-07-14T08:09:03Z</time>
      </trkpt>
      <trkpt lat="44.52954" lon="6.21816">
        <ele>1033.84</ele>
        <time>2015-07-14T08:09:18Z</time>
      </trkpt>
      <trkpt lat="44.52961" lon="6.2178">
        <ele>1033.6</ele>
        <time>2015-07-14T08:09:32Z</time>
      </trkpt>
      <trkpt lat="44.52977" lon="6.21762">
        <ele>1033.87</ele>
        <time>2015-07-14T08:09:41Z</time>
      </trkpt>
      <trkpt lat="44.52979" lon="6.2176">
        <ele>1034.03</ele>
        <time>2015-07-14T08:09:42Z</time>
      </trkpt>
      <trkpt lat="44.52981" lon="6.21759">
        <ele>1034.12</ele>
        <time>2015-07-14T08:09:43Z</time>
      </trkpt>
      <trkpt lat="44.52983" lon="6.21758">
        <ele>1034.21</ele>
        <time>2015-07-14T08:09:44Z</time>
      </trkpt>
      <trkpt lat="44.52985" lon="6.21757">
        <ele>1034.29</ele>
        <time>2015-07-14T08:09:45Z</time>
      </trkpt>
      <trkpt lat="44.52987" lon="6.21757">
        <ele>1034.38</ele>
        <time>2015-07-14T08:09:46Z</time>
      </trkpt>
      <trkpt lat="44.52989" lon="6.21756">
        <ele>1034.43</ele>
        <time>2015-07-14T08:09:47Z</time>
      </trkpt>
      <trkpt lat="44.53002" lon="6.21753">
        <ele>1034.41</ele>
        <time>2015-07-14T08:09:51Z</time>
      </trkpt>
      <trkpt lat="44.53007" lon="6.21752">
        <ele>1034.29</ele>
        <time>2015-07-14T08:09:52Z</time>
      </trkpt>
      <trkpt lat="44.53013" lon="6.21751">
        <ele>1034.12</ele>
        <time>2015-07-14T08:09:53Z</time>
      </trkpt>
      <trkpt lat="44.53019" lon="6.21749">
        <ele>1033.86</ele>
        <time>2015-07-14T08:09:54Z</time>
      </trkpt>
      <trkpt lat="44.53024" lon="6.21746">
        <ele>1033.57</ele>
        <time>2015-07-14T08:09:55Z</time>
      </trkpt>
      <trkpt lat="44.53029" lon="6.21744">
        <ele>1033.28</ele>
        <time>2015-07-14T08:09:56Z</time>
      </trkpt>
      <trkpt lat="44.53034" lon="6.21743">
        <ele>1033</ele>
        <time>2015-07-14T08:09:57Z</time>
      </trkpt>
      <trkpt lat="44.53037" lon="6.21743">
        <ele>1032.73</ele>
        <time>2015-07-14T08:09:58Z</time>
      </trkpt>
      <trkpt lat="44.5304" lon="6.21742">
        <ele>1032.48</ele>
        <time>2015-07-14T08:09:59Z</time>
      </trkpt>
      <trkpt lat="44.53044" lon="6.21741">
        <ele>1032.28</ele>
        <time>2015-07-14T08:10:00Z</time>
      </trkpt>
      <trkpt lat="44.53052" lon="6.21737">
        <ele>1031.88</ele>
        <time>2015-07-14T08:10:02Z</time>
      </trkpt>
      <trkpt lat="44.53056" lon="6.21734">
        <ele>1031.69</ele>
        <time>2015-07-14T08:10:03Z</time>
      </trkpt>
      <trkpt lat="44.5306" lon="6.21732">
        <ele>1031.47</ele>
        <time>2015-07-14T08:10:04Z</time>
      </trkpt>
      <trkpt lat="44.53063" lon="6.2173">
        <ele>1031.22</ele>
        <time>2015-07-14T08:10:05Z</time>
      </trkpt>
      <trkpt lat="44.53066" lon="6.21728">
        <ele>1030.99</ele>
        <time>2015-07-14T08:10:06Z</time>
      </trkpt>
      <trkpt lat="44.53069" lon="6.21726">
        <ele>1030.55</ele>
        <time>2015-07-14T08:10:07Z</time>
      </trkpt>
      <trkpt lat="44.53072" lon="6.21723">
        <ele>1030.34</ele>
        <time>2015-07-14T08:10:08Z</time>
      </trkpt>
      <trkpt lat="44.53075" lon="6.21721">
        <ele>1030.15</ele>
        <time>2015-07-14T08:10:09Z</time>
      </trkpt>
      <trkpt lat="44.53093" lon="6.21699">
        <ele>1029.11</ele>
        <time>2015-07-14T08:10:19Z</time>
      </trkpt>
      <trkpt lat="44.53106" lon="6.21678">
        <ele>1028.68</ele>
        <time>2015-07-14T08:10:27Z</time>
      </trkpt>
      <trkpt lat="44.53111" lon="6.2167">
        <ele>1028.65</ele>
        <time>2015-07-14T08:10:31Z</time>
      </trkpt>
      <trkpt lat="44.53129" lon="6.21633">
        <ele>1030.36</ele>
        <time>2015-07-14T08:10:45Z</time>
      </trkpt>
      <trkpt lat="44.53135" lon="6.21616">
        <ele>1031.42</ele>
        <time>2015-07-14T08:10:52Z</time>
      </trkpt>
      <trkpt lat="44.53138" lon="6.21606">
        <ele>1031.69</ele>
        <time>2015-07-14T08:10:56Z</time>
      </trkpt>
      <trkpt lat="44.53149" lon="6.21562">
        <ele>1033.09</ele>
        <time>2015-07-14T08:11:10Z</time>
      </trkpt>
      <trkpt lat="44.5315" lon="6.21522">
        <ele>1033.94</ele>
        <time>2015-07-14T08:11:20Z</time>
      </trkpt>
      <trkpt lat="44.5315" lon="6.2151">
        <ele>1034.07</ele>
        <time>2015-07-14T08:11:23Z</time>
      </trkpt>
      <trkpt lat="44.53148" lon="6.21465">
        <ele>1035.85</ele>
        <time>2015-07-14T08:11:35Z</time>
      </trkpt>
      <trkpt lat="44.53147" lon="6.21452">
        <ele>1036.36</ele>
        <time>2015-07-14T08:11:38Z</time>
      </trkpt>
      <trkpt lat="44.5314" lon="6.21415">
        <ele>1037.4</ele>
        <time>2015-07-14T08:11:49Z</time>
      </trkpt>
      <trkpt lat="44.53141" lon="6.21389">
        <ele>1038.77</ele>
        <time>2015-07-14T08:11:59Z</time>
      </trkpt>
      <trkpt lat="44.53143" lon="6.2136">
        <ele>1041.47</ele>
        <time>2015-07-14T08:12:11Z</time>
      </trkpt>
      <trkpt lat="44.53143" lon="6.21351">
        <ele>1041.89</ele>
        <time>2015-07-14T08:12:14Z</time>
      </trkpt>
      <trkpt lat="44.53143" lon="6.21341">
        <ele>1042.59</ele>
        <time>2015-07-14T08:12:19Z</time>
      </trkpt>
      <trkpt lat="44.53143" lon="6.21307">
        <ele>1045.25</ele>
        <time>2015-07-14T08:12:32Z</time>
      </trkpt>
      <trkpt lat="44.53143" lon="6.21304">
        <ele>1045.25</ele>
        <time>2015-07-14T08:12:33Z</time>
      </trkpt>
      <trkpt lat="44.53142" lon="6.21292">
        <ele>1046.09</ele>
        <time>2015-07-14T08:12:39Z</time>
      </trkpt>
      <trkpt lat="44.53134" lon="6.2125">
        <ele>1049.17</ele>
        <time>2015-07-14T08:12:56Z</time>
      </trkpt>
      <trkpt lat="44.5313" lon="6.21245">
        <ele>1050.4</ele>
        <time>2015-07-14T08:13:00Z</time>
      </trkpt>
      <trkpt lat="44.53127" lon="6.2124">
        <ele>1051.29</ele>
        <time>2015-07-14T08:13:03Z</time>
      </trkpt>
      <trkpt lat="44.53123" lon="6.21227">
        <ele>1052.82</ele>
        <time>2015-07-14T08:13:10Z</time>
      </trkpt>
      <trkpt lat="44.53122" lon="6.21211">
        <ele>1053.78</ele>
        <time>2015-07-14T08:13:18Z</time>
      </trkpt>
      <trkpt lat="44.53108" lon="6.21193">
        <ele>1055.37</ele>
        <time>2015-07-14T08:13:32Z</time>
      </trkpt>
      <trkpt lat="44.53107" lon="6.21189">
        <ele>1055.68</ele>
        <time>2015-07-14T08:13:34Z</time>
      </trkpt>
      <trkpt lat="44.531" lon="6.21175">
        <ele>1056.95</ele>
        <time>2015-07-14T08:13:43Z</time>
      </trkpt>
      <trkpt lat="44.53095" lon="6.21168">
        <ele>1057.68</ele>
        <time>2015-07-14T08:13:48Z</time>
      </trkpt>
      <trkpt lat="44.53079" lon="6.21141">
        <ele>1058.81</ele>
        <time>2015-07-14T08:14:03Z</time>
      </trkpt>
      <trkpt lat="44.53065" lon="6.21123">
        <ele>1058.69</ele>
        <time>2015-07-14T08:14:15Z</time>
      </trkpt>
      <trkpt lat="44.53064" lon="6.21121">
        <ele>1058.76</ele>
        <time>2015-07-14T08:14:16Z</time>
      </trkpt>
      <trkpt lat="44.5305" lon="6.21106">
        <ele>1060.32</ele>
        <time>2015-07-14T08:14:27Z</time>
      </trkpt>
      <trkpt lat="44.53044" lon="6.21096">
        <ele>1061.45</ele>
        <time>2015-07-14T08:14:33Z</time>
      </trkpt>
      <trkpt lat="44.53026" lon="6.2107">
        <ele>1063.54</ele>
        <time>2015-07-14T08:14:46Z</time>
      </trkpt>
      <trkpt lat="44.53004" lon="6.2103">
        <ele>1063.28</ele>
        <time>2015-07-14T08:14:59Z</time>
      </trkpt>
      <trkpt lat="44.5299" lon="6.21">
        <ele>1063.96</ele>
        <time>2015-07-14T08:15:10Z</time>
      </trkpt>
      <trkpt lat="44.52972" lon="6.20973">
        <ele>1064.65</ele>
        <time>2015-07-14T08:15:20Z</time>
      </trkpt>
      <trkpt lat="44.52954" lon="6.20939">
        <ele>1063.76</ele>
        <time>2015-07-14T08:15:28Z</time>
      </trkpt>
      <trkpt lat="44.52949" lon="6.20894">
        <ele>1064.22</ele>
        <time>2015-07-14T08:15:39Z</time>
      </trkpt>
      <trkpt lat="44.52945" lon="6.20862">
        <ele>1065.41</ele>
        <time>2015-07-14T08:15:49Z</time>
      </trkpt>
      <trkpt lat="44.52942" lon="6.20856">
        <ele>1065.96</ele>
        <time>2015-07-14T08:15:52Z</time>
      </trkpt>
      <trkpt lat="44.52935" lon="6.20829">
        <ele>1068.51</ele>
        <time>2015-07-14T08:16:06Z</time>
      </trkpt>
      <trkpt lat="44.52926" lon="6.20818">
        <ele>1070.03</ele>
        <time>2015-07-14T08:16:14Z</time>
      </trkpt>
      <trkpt lat="44.52906" lon="6.20813">
        <ele>1072.51</ele>
        <time>2015-07-14T08:16:27Z</time>
      </trkpt>
      <trkpt lat="44.52886" lon="6.20815">
        <ele>1074.07</ele>
        <time>2015-07-14T08:16:40Z</time>
      </trkpt>
      <trkpt lat="44.52859" lon="6.20808">
        <ele>1074.7</ele>
        <time>2015-07-14T08:16:54Z</time>
      </trkpt>
      <trkpt lat="44.52835" lon="6.20798">
        <ele>1074.74</ele>
        <time>2015-07-14T08:17:06Z</time>
      </trkpt>
      <trkpt lat="44.52819" lon="6.20783">
        <ele>1076.24</ele>
        <time>2015-07-14T08:17:18Z</time>
      </trkpt>
      <trkpt lat="44.52802" lon="6.2078">
        <ele>1077.95</ele>
        <time>2015-07-14T08:17:29Z</time>
      </trkpt>
      <trkpt lat="44.52797" lon="6.20776">
        <ele>1079.08</ele>
        <time>2015-07-14T08:17:43Z</time>
      </trkpt>
      <trkpt lat="44.52794" lon="6.20766">
        <ele>1078.61</ele>
        <time>2015-07-14T08:17:47Z</time>
      </trkpt>
      <trkpt lat="44.52792" lon="6.2076">
        <ele>1078.14</ele>
        <time>2015-07-14T08:17:49Z</time>
      </trkpt>
      <trkpt lat="44.52771" lon="6.2075">
        <ele>1076.09</ele>
        <time>2015-07-14T08:17:59Z</time>
      </trkpt>
      <trkpt lat="44.52767" lon="6.2075">
        <ele>1076</ele>
        <time>2015-07-14T08:18:01Z</time>
      </trkpt>
      <trkpt lat="44.52758" lon="6.20752">
        <ele>1076.31</ele>
        <time>2015-07-14T08:18:07Z</time>
      </trkpt>
      <trkpt lat="44.52748" lon="6.20753">
        <ele>1077.48</ele>
        <time>2015-07-14T08:18:13Z</time>
      </trkpt>
      <trkpt lat="44.52744" lon="6.20755">
        <ele>1077.95</ele>
        <time>2015-07-14T08:18:16Z</time>
      </trkpt>
      <trkpt lat="44.52739" lon="6.20754">
        <ele>1078.3</ele>
        <time>2015-07-14T08:18:19Z</time>
      </trkpt>
      <trkpt lat="44.52727" lon="6.20754">
        <ele>1079.25</ele>
        <time>2015-07-14T08:18:26Z</time>
      </trkpt>
      <trkpt lat="44.527" lon="6.20753">
        <ele>1080.2</ele>
        <time>2015-07-14T08:18:38Z</time>
      </trkpt>
      <trkpt lat="44.52665" lon="6.20754">
        <ele>1077.98</ele>
        <time>2015-07-14T08:18:49Z</time>
      </trkpt>
      <trkpt lat="44.52653" lon="6.20755">
        <ele>1075.67</ele>
        <time>2015-07-14T08:18:55Z</time>
      </trkpt>
      <trkpt lat="44.52647" lon="6.20752">
        <ele>1073.97</ele>
        <time>2015-07-14T08:18:59Z</time>
      </trkpt>
      <trkpt lat="44.52637" lon="6.2075">
        <ele>1070.07</ele>
        <time>2015-07-14T08:19:06Z</time>
      </trkpt>
      <trkpt lat="44.52638" lon="6.20745">
        <ele>1067.88</ele>
        <time>2015-07-14T08:19:12Z</time>
      </trkpt>
      <trkpt lat="44.5264" lon="6.20742">
        <ele>1067.39</ele>
        <time>2015-07-14T08:19:14Z</time>
      </trkpt>
      <trkpt lat="44.52652" lon="6.20724">
        <ele>1064.57</ele>
        <time>2015-07-14T08:19:23Z</time>
      </trkpt>
      <trkpt lat="44.52661" lon="6.20718">
        <ele>1063.12</ele>
        <time>2015-07-14T08:19:27Z</time>
      </trkpt>
      <trkpt lat="44.52688" lon="6.20692">
        <ele>1060.99</ele>
        <time>2015-07-14T08:19:36Z</time>
      </trkpt>
      <trkpt lat="44.52694" lon="6.20666">
        <ele>1060.12</ele>
        <time>2015-07-14T08:19:43Z</time>
      </trkpt>
      <trkpt lat="44.52696" lon="6.20641">
        <ele>1059.52</ele>
        <time>2015-07-14T08:19:52Z</time>
      </trkpt>
      <trkpt lat="44.52703" lon="6.2063">
        <ele>1059.62</ele>
        <time>2015-07-14T08:19:56Z</time>
      </trkpt>
      <trkpt lat="44.52718" lon="6.20602">
        <ele>1059.36</ele>
        <time>2015-07-14T08:20:06Z</time>
      </trkpt>
      <trkpt lat="44.52729" lon="6.20588">
        <ele>1059.13</ele>
        <time>2015-07-14T08:20:09Z</time>
      </trkpt>
      <trkpt lat="44.52757" lon="6.20552">
        <ele>1058.14</ele>
        <time>2015-07-14T08:20:16Z</time>
      </trkpt>
      <trkpt lat="44.52762" lon="6.20534">
        <ele>1057.8</ele>
        <time>2015-07-14T08:20:20Z</time>
      </trkpt>
      <trkpt lat="44.52755" lon="6.2052">
        <ele>1058.19</ele>
        <time>2015-07-14T08:20:28Z</time>
      </trkpt>
      <trkpt lat="44.52755" lon="6.2051">
        <ele>1060.9</ele>
        <time>2015-07-14T08:20:44Z</time>
      </trkpt>
      <trkpt lat="44.52754" lon="6.20507">
        <ele>1061.18</ele>
        <time>2015-07-14T08:21:10Z</time>
      </trkpt>
      <trkpt lat="44.52747" lon="6.2048">
        <ele>1060.71</ele>
        <time>2015-07-14T08:21:18Z</time>
      </trkpt>
      <trkpt lat="44.52737" lon="6.20441">
        <ele>1059.43</ele>
        <time>2015-07-14T08:21:28Z</time>
      </trkpt>
      <trkpt lat="44.52736" lon="6.20421">
        <ele>1060.67</ele>
        <time>2015-07-14T08:21:39Z</time>
      </trkpt>
      <trkpt lat="44.52734" lon="6.20384">
        <ele>1062.24</ele>
        <time>2015-07-14T08:21:54Z</time>
      </trkpt>
      <trkpt lat="44.52733" lon="6.20378">
        <ele>1062.05</ele>
        <time>2015-07-14T08:21:55Z</time>
      </trkpt>
      <trkpt lat="44.52742" lon="6.20335">
        <ele>1058.94</ele>
        <time>2015-07-14T08:22:02Z</time>
      </trkpt>
      <trkpt lat="44.52746" lon="6.20314">
        <ele>1057.43</ele>
        <time>2015-07-14T08:22:05Z</time>
      </trkpt>
      <trkpt lat="44.52746" lon="6.20264">
        <ele>1053.95</ele>
        <time>2015-07-14T08:22:13Z</time>
      </trkpt>
      <trkpt lat="44.52751" lon="6.20223">
        <ele>1050.47</ele>
        <time>2015-07-14T08:22:20Z</time>
      </trkpt>
      <trkpt lat="44.52752" lon="6.20196">
        <ele>1046.69</ele>
        <time>2015-07-14T08:22:25Z</time>
      </trkpt>
      <trkpt lat="44.52752" lon="6.20184">
        <ele>1044.9</ele>
        <time>2015-07-14T08:22:27Z</time>
      </trkpt>
      <trkpt lat="44.52742" lon="6.20148">
        <ele>1040.82</ele>
        <time>2015-07-14T08:22:32Z</time>
      </trkpt>
      <trkpt lat="44.5274" lon="6.20142">
        <ele>1040.19</ele>
        <time>2015-07-14T08:22:33Z</time>
      </trkpt>
      <trkpt lat="44.52725" lon="6.201">
        <ele>1035.93</ele>
        <time>2015-07-14T08:22:43Z</time>
      </trkpt>
      <trkpt lat="44.52726" lon="6.20096">
        <ele>1034.01</ele>
        <time>2015-07-14T08:22:50Z</time>
      </trkpt>
      <trkpt lat="44.5272" lon="6.2007">
        <ele>1032.48</ele>
        <time>2015-07-14T08:22:58Z</time>
      </trkpt>
      <trkpt lat="44.52708" lon="6.20047">
        <ele>1029.45</ele>
        <time>2015-07-14T08:23:04Z</time>
      </trkpt>
      <trkpt lat="44.52695" lon="6.20032">
        <ele>1025.65</ele>
        <time>2015-07-14T08:23:08Z</time>
      </trkpt>
      <trkpt lat="44.52697" lon="6.20015">
        <ele>1022.4</ele>
        <time>2015-07-14T08:23:12Z</time>
      </trkpt>
      <trkpt lat="44.527" lon="6.20002">
        <ele>1020.35</ele>
        <time>2015-07-14T08:23:15Z</time>
      </trkpt>
      <trkpt lat="44.527" lon="6.19973">
        <ele>1016.49</ele>
        <time>2015-07-14T08:23:20Z</time>
      </trkpt>
      <trkpt lat="44.52694" lon="6.19945">
        <ele>1012.08</ele>
        <time>2015-07-14T08:23:25Z</time>
      </trkpt>
      <trkpt lat="44.5268" lon="6.19923">
        <ele>1007.19</ele>
        <time>2015-07-14T08:23:30Z</time>
      </trkpt>
      <trkpt lat="44.52671" lon="6.19905">
        <ele>1003.04</ele>
        <time>2015-07-14T08:23:34Z</time>
      </trkpt>
      <trkpt lat="44.52653" lon="6.19881">
        <ele>999.55</ele>
        <time>2015-07-14T08:23:40Z</time>
      </trkpt>
      <trkpt lat="44.52647" lon="6.1987">
        <ele>998.39</ele>
        <time>2015-07-14T08:23:42Z</time>
      </trkpt>
      <trkpt lat="44.52635" lon="6.19839">
        <ele>994.72</ele>
        <time>2015-07-14T08:23:48Z</time>
      </trkpt>
      <trkpt lat="44.5262" lon="6.19806">
        <ele>990.6</ele>
        <time>2015-07-14T08:23:54Z</time>
      </trkpt>
      <trkpt lat="44.52611" lon="6.19797">
        <ele>987.23</ele>
        <time>2015-07-14T08:23:57Z</time>
      </trkpt>
      <trkpt lat="44.52609" lon="6.19794">
        <ele>986.45</ele>
        <time>2015-07-14T08:23:58Z</time>
      </trkpt>
      <trkpt lat="44.52607" lon="6.19782">
        <ele>984.3</ele>
        <time>2015-07-14T08:24:01Z</time>
      </trkpt>
      <trkpt lat="44.5261" lon="6.19748">
        <ele>980.65</ele>
        <time>2015-07-14T08:24:07Z</time>
      </trkpt>
      <trkpt lat="44.52617" lon="6.19719">
        <ele>976.54</ele>
        <time>2015-07-14T08:24:14Z</time>
      </trkpt>
      <trkpt lat="44.52617" lon="6.19714">
        <ele>973.48</ele>
        <time>2015-07-14T08:24:22Z</time>
      </trkpt>
      <trkpt lat="44.5262" lon="6.19708">
        <ele>972.92</ele>
        <time>2015-07-14T08:24:37Z</time>
      </trkpt>
      <trkpt lat="44.52621" lon="6.19705">
        <ele>972.91</ele>
        <time>2015-07-14T08:24:38Z</time>
      </trkpt>
      <trkpt lat="44.52622" lon="6.19701">
        <ele>972.89</ele>
        <time>2015-07-14T08:24:39Z</time>
      </trkpt>
      <trkpt lat="44.52623" lon="6.19697">
        <ele>972.81</ele>
        <time>2015-07-14T08:24:40Z</time>
      </trkpt>
      <trkpt lat="44.52623" lon="6.19692">
        <ele>972.69</ele>
        <time>2015-07-14T08:24:41Z</time>
      </trkpt>
      <trkpt lat="44.52624" lon="6.19687">
        <ele>972.55</ele>
        <time>2015-07-14T08:24:42Z</time>
      </trkpt>
      <trkpt lat="44.52626" lon="6.19681">
        <ele>972.34</ele>
        <time>2015-07-14T08:24:43Z</time>
      </trkpt>
      <trkpt lat="44.52627" lon="6.19677">
        <ele>972.03</ele>
        <time>2015-07-14T08:24:44Z</time>
      </trkpt>
      <trkpt lat="44.52629" lon="6.19673">
        <ele>971.68</ele>
        <time>2015-07-14T08:24:45Z</time>
      </trkpt>
      <trkpt lat="44.52631" lon="6.1967">
        <ele>970.95</ele>
        <time>2015-07-14T08:24:46Z</time>
      </trkpt>
      <trkpt lat="44.52633" lon="6.19668">
        <ele>970.54</ele>
        <time>2015-07-14T08:24:47Z</time>
      </trkpt>
      <trkpt lat="44.52636" lon="6.19665">
        <ele>970.14</ele>
        <time>2015-07-14T08:24:48Z</time>
      </trkpt>
      <trkpt lat="44.5264" lon="6.19662">
        <ele>969.78</ele>
        <time>2015-07-14T08:24:49Z</time>
      </trkpt>
      <trkpt lat="44.52655" lon="6.19652">
        <ele>968.46</ele>
        <time>2015-07-14T08:24:52Z</time>
      </trkpt>
      <trkpt lat="44.5266" lon="6.19646">
        <ele>967.99</ele>
        <time>2015-07-14T08:24:53Z</time>
      </trkpt>
      <trkpt lat="44.52666" lon="6.1964">
        <ele>967.42</ele>
        <time>2015-07-14T08:24:54Z</time>
      </trkpt>
      <trkpt lat="44.52671" lon="6.19631">
        <ele>966.78</ele>
        <time>2015-07-14T08:24:55Z</time>
      </trkpt>
      <trkpt lat="44.52675" lon="6.19621">
        <ele>966.1</ele>
        <time>2015-07-14T08:24:56Z</time>
      </trkpt>
      <trkpt lat="44.5268" lon="6.1961">
        <ele>965.38</ele>
        <time>2015-07-14T08:24:57Z</time>
      </trkpt>
      <trkpt lat="44.52698" lon="6.19566">
        <ele>961.57</ele>
        <time>2015-07-14T08:25:01Z</time>
      </trkpt>
      <trkpt lat="44.52714" lon="6.19538">
        <ele>958.68</ele>
        <time>2015-07-14T08:25:04Z</time>
      </trkpt>
      <trkpt lat="44.52718" lon="6.19528">
        <ele>957.71</ele>
        <time>2015-07-14T08:25:05Z</time>
      </trkpt>
      <trkpt lat="44.52727" lon="6.19508">
        <ele>955.46</ele>
        <time>2015-07-14T08:25:07Z</time>
      </trkpt>
      <trkpt lat="44.52733" lon="6.19499">
        <ele>954.37</ele>
        <time>2015-07-14T08:25:08Z</time>
      </trkpt>
      <trkpt lat="44.52746" lon="6.19484">
        <ele>951.22</ele>
        <time>2015-07-14T08:25:10Z</time>
      </trkpt>
      <trkpt lat="44.52766" lon="6.1946">
        <ele>948.11</ele>
        <time>2015-07-14T08:25:13Z</time>
      </trkpt>
      <trkpt lat="44.52782" lon="6.19446">
        <ele>946.11</ele>
        <time>2015-07-14T08:25:15Z</time>
      </trkpt>
      <trkpt lat="44.52803" lon="6.1943">
        <ele>943.25</ele>
        <time>2015-07-14T08:25:18Z</time>
      </trkpt>
      <trkpt lat="44.5281" lon="6.19423">
        <ele>942.3</ele>
        <time>2015-07-14T08:25:19Z</time>
      </trkpt>
      <trkpt lat="44.52817" lon="6.19415">
        <ele>941.35</ele>
        <time>2015-07-14T08:25:20Z</time>
      </trkpt>
      <trkpt lat="44.52823" lon="6.19406">
        <ele>940.39</ele>
        <time>2015-07-14T08:25:21Z</time>
      </trkpt>
      <trkpt lat="44.52829" lon="6.19396">
        <ele>939.36</ele>
        <time>2015-07-14T08:25:22Z</time>
      </trkpt>
      <trkpt lat="44.52835" lon="6.19385">
        <ele>938.29</ele>
        <time>2015-07-14T08:25:23Z</time>
      </trkpt>
      <trkpt lat="44.52856" lon="6.19353">
        <ele>934.81</ele>
        <time>2015-07-14T08:25:26Z</time>
      </trkpt>
      <trkpt lat="44.52863" lon="6.19345">
        <ele>933.56</ele>
        <time>2015-07-14T08:25:27Z</time>
      </trkpt>
      <trkpt lat="44.5287" lon="6.19339">
        <ele>932.37</ele>
        <time>2015-07-14T08:25:28Z</time>
      </trkpt>
      <trkpt lat="44.52888" lon="6.19323">
        <ele>929.36</ele>
        <time>2015-07-14T08:25:31Z</time>
      </trkpt>
      <trkpt lat="44.52892" lon="6.19318">
        <ele>928.41</ele>
        <time>2015-07-14T08:25:32Z</time>
      </trkpt>
      <trkpt lat="44.52895" lon="6.19312">
        <ele>927.47</ele>
        <time>2015-07-14T08:25:33Z</time>
      </trkpt>
      <trkpt lat="44.52897" lon="6.19307">
        <ele>925.73</ele>
        <time>2015-07-14T08:25:34Z</time>
      </trkpt>
      <trkpt lat="44.52898" lon="6.19302">
        <ele>925.07</ele>
        <time>2015-07-14T08:25:35Z</time>
      </trkpt>
      <trkpt lat="44.52899" lon="6.19298">
        <ele>924.55</ele>
        <time>2015-07-14T08:25:36Z</time>
      </trkpt>
      <trkpt lat="44.52904" lon="6.19289">
        <ele>922.53</ele>
        <time>2015-07-14T08:25:42Z</time>
      </trkpt>
      <trkpt lat="44.52905" lon="6.1929">
        <ele>922.31</ele>
        <time>2015-07-14T08:25:43Z</time>
      </trkpt>
      <trkpt lat="44.52905" lon="6.19291">
        <ele>922.13</ele>
        <time>2015-07-14T08:25:44Z</time>
      </trkpt>
      <trkpt lat="44.52906" lon="6.19293">
        <ele>921.99</ele>
        <time>2015-07-14T08:25:45Z</time>
      </trkpt>
      <trkpt lat="44.52905" lon="6.193">
        <ele>921.51</ele>
        <time>2015-07-14T08:25:50Z</time>
      </trkpt>
      <trkpt lat="44.52905" lon="6.19303">
        <ele>921.41</ele>
        <time>2015-07-14T08:25:51Z</time>
      </trkpt>
      <trkpt lat="44.52904" lon="6.19305">
        <ele>921.32</ele>
        <time>2015-07-14T08:25:52Z</time>
      </trkpt>
      <trkpt lat="44.52904" lon="6.19309">
        <ele>921.24</ele>
        <time>2015-07-14T08:25:53Z</time>
      </trkpt>
      <trkpt lat="44.52903" lon="6.19312">
        <ele>921.16</ele>
        <time>2015-07-14T08:25:54Z</time>
      </trkpt>
      <trkpt lat="44.52905" lon="6.19327">
        <ele>920.76</ele>
        <time>2015-07-14T08:25:58Z</time>
      </trkpt>
      <trkpt lat="44.52906" lon="6.19329">
        <ele>920.7</ele>
        <time>2015-07-14T08:25:59Z</time>
      </trkpt>
      <trkpt lat="44.52908" lon="6.19331">
        <ele>920.66</ele>
        <time>2015-07-14T08:26:00Z</time>
      </trkpt>
      <trkpt lat="44.5292" lon="6.19352">
        <ele>921.2</ele>
        <time>2015-07-14T08:26:12Z</time>
      </trkpt>
      <trkpt lat="44.52931" lon="6.19387">
        <ele>924.24</ele>
        <time>2015-07-14T08:26:29Z</time>
      </trkpt>
      <trkpt lat="44.52937" lon="6.19412">
        <ele>927.27</ele>
        <time>2015-07-14T08:26:43Z</time>
      </trkpt>
      <trkpt lat="44.5294" lon="6.19436">
        <ele>930.35</ele>
        <time>2015-07-14T08:26:56Z</time>
      </trkpt>
      <trkpt lat="44.52951" lon="6.19467">
        <ele>933.35</ele>
        <time>2015-07-14T08:27:13Z</time>
      </trkpt>
      <trkpt lat="44.52976" lon="6.19504">
        <ele>936.26</ele>
        <time>2015-07-14T08:27:36Z</time>
      </trkpt>
      <trkpt lat="44.52999" lon="6.1954">
        <ele>939.06</ele>
        <time>2015-07-14T08:27:58Z</time>
      </trkpt>
      <trkpt lat="44.53026" lon="6.19564">
        <ele>941.86</ele>
        <time>2015-07-14T08:28:19Z</time>
      </trkpt>
      <trkpt lat="44.53037" lon="6.19604">
        <ele>943.23</ele>
        <time>2015-07-14T08:28:40Z</time>
      </trkpt>
      <trkpt lat="44.53041" lon="6.19655">
        <ele>943.53</ele>
        <time>2015-07-14T08:28:59Z</time>
      </trkpt>
      <trkpt lat="44.53052" lon="6.19703">
        <ele>943.71</ele>
        <time>2015-07-14T08:29:16Z</time>
      </trkpt>
      <trkpt lat="44.53061" lon="6.19754">
        <ele>944.65</ele>
        <time>2015-07-14T08:29:34Z</time>
      </trkpt>
      <trkpt lat="44.53071" lon="6.1979">
        <ele>944.38</ele>
        <time>2015-07-14T08:29:46Z</time>
      </trkpt>
      <trkpt lat="44.53091" lon="6.19832">
        <ele>942.84</ele>
        <time>2015-07-14T08:29:54Z</time>
      </trkpt>
      <trkpt lat="44.53097" lon="6.19845">
        <ele>942.47</ele>
        <time>2015-07-14T08:29:56Z</time>
      </trkpt>
      <trkpt lat="44.53102" lon="6.19855">
        <ele>942.24</ele>
        <time>2015-07-14T08:29:58Z</time>
      </trkpt>
      <trkpt lat="44.53103" lon="6.19861">
        <ele>942.16</ele>
        <time>2015-07-14T08:29:59Z</time>
      </trkpt>
      <trkpt lat="44.53103" lon="6.19867">
        <ele>942.13</ele>
        <time>2015-07-14T08:30:00Z</time>
      </trkpt>
      <trkpt lat="44.53102" lon="6.19871">
        <ele>942.11</ele>
        <time>2015-07-14T08:30:01Z</time>
      </trkpt>
      <trkpt lat="44.53101" lon="6.19876">
        <ele>942.11</ele>
        <time>2015-07-14T08:30:02Z</time>
      </trkpt>
      <trkpt lat="44.531" lon="6.1988">
        <ele>942.11</ele>
        <time>2015-07-14T08:30:03Z</time>
      </trkpt>
      <trkpt lat="44.53098" lon="6.19885">
        <ele>942.11</ele>
        <time>2015-07-14T08:30:04Z</time>
      </trkpt>
      <trkpt lat="44.53096" lon="6.19889">
        <ele>942.12</ele>
        <time>2015-07-14T08:30:05Z</time>
      </trkpt>
      <trkpt lat="44.53095" lon="6.19895">
        <ele>942.13</ele>
        <time>2015-07-14T08:30:06Z</time>
      </trkpt>
      <trkpt lat="44.53094" lon="6.199">
        <ele>942.12</ele>
        <time>2015-07-14T08:30:07Z</time>
      </trkpt>
      <trkpt lat="44.53093" lon="6.19906">
        <ele>942.06</ele>
        <time>2015-07-14T08:30:08Z</time>
      </trkpt>
      <trkpt lat="44.53093" lon="6.19911">
        <ele>941.98</ele>
        <time>2015-07-14T08:30:09Z</time>
      </trkpt>
      <trkpt lat="44.53093" lon="6.19917">
        <ele>941.92</ele>
        <time>2015-07-14T08:30:10Z</time>
      </trkpt>
      <trkpt lat="44.53093" lon="6.19923">
        <ele>941.86</ele>
        <time>2015-07-14T08:30:11Z</time>
      </trkpt>
      <trkpt lat="44.53093" lon="6.1993">
        <ele>941.8</ele>
        <time>2015-07-14T08:30:12Z</time>
      </trkpt>
      <trkpt lat="44.53094" lon="6.19936">
        <ele>941.74</ele>
        <time>2015-07-14T08:30:13Z</time>
      </trkpt>
      <trkpt lat="44.53092" lon="6.19987">
        <ele>940.77</ele>
        <time>2015-07-14T08:30:20Z</time>
      </trkpt>
      <trkpt lat="44.53092" lon="6.19995">
        <ele>940.6</ele>
        <time>2015-07-14T08:30:21Z</time>
      </trkpt>
      <trkpt lat="44.53091" lon="6.20002">
        <ele>940.45</ele>
        <time>2015-07-14T08:30:22Z</time>
      </trkpt>
      <trkpt lat="44.53084" lon="6.2005">
        <ele>940.37</ele>
        <time>2015-07-14T08:30:32Z</time>
      </trkpt>
      <trkpt lat="44.53085" lon="6.20091">
        <ele>941.06</ele>
        <time>2015-07-14T08:30:44Z</time>
      </trkpt>
      <trkpt lat="44.5308" lon="6.20118">
        <ele>942.94</ele>
        <time>2015-07-14T08:30:53Z</time>
      </trkpt>
      <trkpt lat="44.53081" lon="6.20121">
        <ele>943.14</ele>
        <time>2015-07-14T08:30:54Z</time>
      </trkpt>
      <trkpt lat="44.53083" lon="6.20124">
        <ele>943.56</ele>
        <time>2015-07-14T08:30:55Z</time>
      </trkpt>
      <trkpt lat="44.53085" lon="6.20126">
        <ele>943.77</ele>
        <time>2015-07-14T08:30:56Z</time>
      </trkpt>
      <trkpt lat="44.53087" lon="6.20127">
        <ele>943.96</ele>
        <time>2015-07-14T08:30:57Z</time>
      </trkpt>
      <trkpt lat="44.5309" lon="6.20127">
        <ele>944.17</ele>
        <time>2015-07-14T08:30:58Z</time>
      </trkpt>
      <trkpt lat="44.53091" lon="6.20127">
        <ele>944.37</ele>
        <time>2015-07-14T08:30:59Z</time>
      </trkpt>
      <trkpt lat="44.53093" lon="6.20126">
        <ele>944.56</ele>
        <time>2015-07-14T08:31:00Z</time>
      </trkpt>
      <trkpt lat="44.53095" lon="6.20126">
        <ele>944.74</ele>
        <time>2015-07-14T08:31:01Z</time>
      </trkpt>
      <trkpt lat="44.53096" lon="6.20126">
        <ele>944.91</ele>
        <time>2015-07-14T08:31:02Z</time>
      </trkpt>
      <trkpt lat="44.53097" lon="6.20125">
        <ele>945.1</ele>
        <time>2015-07-14T08:31:03Z</time>
      </trkpt>
      <trkpt lat="44.53114" lon="6.20112">
        <ele>946.52</ele>
        <time>2015-07-14T08:31:15Z</time>
      </trkpt>
      <trkpt lat="44.53135" lon="6.20118">
        <ele>948.63</ele>
        <time>2015-07-14T08:31:30Z</time>
      </trkpt>
      <trkpt lat="44.53147" lon="6.20148">
        <ele>951.6</ele>
        <time>2015-07-14T08:31:46Z</time>
      </trkpt>
      <trkpt lat="44.53157" lon="6.20175">
        <ele>953.39</ele>
        <time>2015-07-14T08:32:00Z</time>
      </trkpt>
      <trkpt lat="44.5316" lon="6.20179">
        <ele>953.8</ele>
        <time>2015-07-14T08:32:03Z</time>
      </trkpt>
      <trkpt lat="44.53162" lon="6.2018">
        <ele>953.99</ele>
        <time>2015-07-14T08:32:04Z</time>
      </trkpt>
      <trkpt lat="44.53167" lon="6.20181">
        <ele>955.07</ele>
        <time>2015-07-14T08:32:08Z</time>
      </trkpt>
      <trkpt lat="44.53168" lon="6.20181">
        <ele>955.28</ele>
        <time>2015-07-14T08:32:09Z</time>
      </trkpt>
      <trkpt lat="44.53169" lon="6.20179">
        <ele>955.47</ele>
        <time>2015-07-14T08:32:10Z</time>
      </trkpt>
      <trkpt lat="44.5317" lon="6.20178">
        <ele>955.63</ele>
        <time>2015-07-14T08:32:11Z</time>
      </trkpt>
      <trkpt lat="44.53171" lon="6.20176">
        <ele>955.77</ele>
        <time>2015-07-14T08:32:12Z</time>
      </trkpt>
      <trkpt lat="44.53172" lon="6.20175">
        <ele>955.9</ele>
        <time>2015-07-14T08:32:13Z</time>
      </trkpt>
      <trkpt lat="44.53173" lon="6.20173">
        <ele>956.03</ele>
        <time>2015-07-14T08:32:14Z</time>
      </trkpt>
      <trkpt lat="44.53173" lon="6.20172">
        <ele>956.16</ele>
        <time>2015-07-14T08:32:15Z</time>
      </trkpt>
      <trkpt lat="44.53185" lon="6.20141">
        <ele>958.4</ele>
        <time>2015-07-14T08:32:31Z</time>
      </trkpt>
      <trkpt lat="44.53208" lon="6.20131">
        <ele>960.42</ele>
        <time>2015-07-14T08:32:47Z</time>
      </trkpt>
      <trkpt lat="44.5323" lon="6.20127">
        <ele>962.59</ele>
        <time>2015-07-14T08:33:03Z</time>
      </trkpt>
      <trkpt lat="44.53237" lon="6.20124">
        <ele>964.19</ele>
        <time>2015-07-14T08:33:18Z</time>
      </trkpt>
      <trkpt lat="44.5324" lon="6.20123">
        <ele>964.57</ele>
        <time>2015-07-14T08:33:29Z</time>
      </trkpt>
      <trkpt lat="44.53241" lon="6.20122">
        <ele>964.58</ele>
        <time>2015-07-14T08:33:30Z</time>
      </trkpt>
      <trkpt lat="44.53243" lon="6.20121">
        <ele>964.59</ele>
        <time>2015-07-14T08:33:31Z</time>
      </trkpt>
      <trkpt lat="44.53244" lon="6.20121">
        <ele>964.58</ele>
        <time>2015-07-14T08:33:32Z</time>
      </trkpt>
      <trkpt lat="44.53245" lon="6.2012">
        <ele>964.56</ele>
        <time>2015-07-14T08:33:33Z</time>
      </trkpt>
      <trkpt lat="44.53246" lon="6.20119">
        <ele>964.56</ele>
        <time>2015-07-14T08:33:34Z</time>
      </trkpt>
      <trkpt lat="44.53248" lon="6.20119">
        <ele>964.54</ele>
        <time>2015-07-14T08:33:35Z</time>
      </trkpt>
      <trkpt lat="44.53249" lon="6.20119">
        <ele>964.52</ele>
        <time>2015-07-14T08:33:36Z</time>
      </trkpt>
      <trkpt lat="44.53251" lon="6.20119">
        <ele>964.5</ele>
        <time>2015-07-14T08:33:37Z</time>
      </trkpt>
      <trkpt lat="44.53253" lon="6.20119">
        <ele>964.48</ele>
        <time>2015-07-14T08:33:38Z</time>
      </trkpt>
      <trkpt lat="44.53285" lon="6.2013">
        <ele>963.44</ele>
        <time>2015-07-14T08:33:47Z</time>
      </trkpt>
      <trkpt lat="44.53309" lon="6.20159">
        <ele>960.73</ele>
        <time>2015-07-14T08:33:53Z</time>
      </trkpt>
      <trkpt lat="44.53333" lon="6.20229">
        <ele>957.03</ele>
        <time>2015-07-14T08:34:02Z</time>
      </trkpt>
      <trkpt lat="44.53341" lon="6.20249">
        <ele>956.48</ele>
        <time>2015-07-14T08:34:05Z</time>
      </trkpt>
      <trkpt lat="44.53343" lon="6.20256">
        <ele>956.33</ele>
        <time>2015-07-14T08:34:06Z</time>
      </trkpt>
      <trkpt lat="44.53352" lon="6.20286">
        <ele>955.65</ele>
        <time>2015-07-14T08:34:10Z</time>
      </trkpt>
      <trkpt lat="44.53384" lon="6.20366">
        <ele>952.52</ele>
        <time>2015-07-14T08:34:20Z</time>
      </trkpt>
      <trkpt lat="44.53399" lon="6.20446">
        <ele>948.54</ele>
        <time>2015-07-14T08:34:27Z</time>
      </trkpt>
      <trkpt lat="44.53416" lon="6.20512">
        <ele>944.48</ele>
        <time>2015-07-14T08:34:33Z</time>
      </trkpt>
      <trkpt lat="44.53419" lon="6.20522">
        <ele>943.63</ele>
        <time>2015-07-14T08:34:34Z</time>
      </trkpt>
      <trkpt lat="44.53436" lon="6.20562">
        <ele>939.34</ele>
        <time>2015-07-14T08:34:38Z</time>
      </trkpt>
      <trkpt lat="44.53463" lon="6.206">
        <ele>935.15</ele>
        <time>2015-07-14T08:34:42Z</time>
      </trkpt>
      <trkpt lat="44.53481" lon="6.20631">
        <ele>932.65</ele>
        <time>2015-07-14T08:34:45Z</time>
      </trkpt>
      <trkpt lat="44.53518" lon="6.20667">
        <ele>930.62</ele>
        <time>2015-07-14T08:34:51Z</time>
      </trkpt>
      <trkpt lat="44.53546" lon="6.20706">
        <ele>930.41</ele>
        <time>2015-07-14T08:35:00Z</time>
      </trkpt>
      <trkpt lat="44.53566" lon="6.20723">
        <ele>932.36</ele>
        <time>2015-07-14T08:35:12Z</time>
      </trkpt>
      <trkpt lat="44.53582" lon="6.20754">
        <ele>933.75</ele>
        <time>2015-07-14T08:35:26Z</time>
      </trkpt>
      <trkpt lat="44.53586" lon="6.20765">
        <ele>933.85</ele>
        <time>2015-07-14T08:35:29Z</time>
      </trkpt>
      <trkpt lat="44.53609" lon="6.2081">
        <ele>934.14</ele>
        <time>2015-07-14T08:35:42Z</time>
      </trkpt>
      <trkpt lat="44.53627" lon="6.20844">
        <ele>936.58</ele>
        <time>2015-07-14T08:35:56Z</time>
      </trkpt>
      <trkpt lat="44.53639" lon="6.20884">
        <ele>939.43</ele>
        <time>2015-07-14T08:36:13Z</time>
      </trkpt>
      <trkpt lat="44.53642" lon="6.20906">
        <ele>940.28</ele>
        <time>2015-07-14T08:36:22Z</time>
      </trkpt>
      <trkpt lat="44.53648" lon="6.20932">
        <ele>940.77</ele>
        <time>2015-07-14T08:36:33Z</time>
      </trkpt>
      <trkpt lat="44.53649" lon="6.20939">
        <ele>941.47</ele>
        <time>2015-07-14T08:36:37Z</time>
      </trkpt>
      <trkpt lat="44.53648" lon="6.20945">
        <ele>941.82</ele>
        <time>2015-07-14T08:36:40Z</time>
      </trkpt>
      <trkpt lat="44.53642" lon="6.20983">
        <ele>943.91</ele>
        <time>2015-07-14T08:36:57Z</time>
      </trkpt>
      <trkpt lat="44.53642" lon="6.2101">
        <ele>946.54</ele>
        <time>2015-07-14T08:37:12Z</time>
      </trkpt>
      <trkpt lat="44.53641" lon="6.21037">
        <ele>949.01</ele>
        <time>2015-07-14T08:37:27Z</time>
      </trkpt>
      <trkpt lat="44.53641" lon="6.2104">
        <ele>949.39</ele>
        <time>2015-07-14T08:37:29Z</time>
      </trkpt>
      <trkpt lat="44.53641" lon="6.21067">
        <ele>951.53</ele>
        <time>2015-07-14T08:37:43Z</time>
      </trkpt>
      <trkpt lat="44.53643" lon="6.21095">
        <ele>953.4</ele>
        <time>2015-07-14T08:37:57Z</time>
      </trkpt>
      <trkpt lat="44.53637" lon="6.21111">
        <ele>953.9</ele>
        <time>2015-07-14T08:38:08Z</time>
      </trkpt>
      <trkpt lat="44.53633" lon="6.21113">
        <ele>954</ele>
        <time>2015-07-14T08:38:10Z</time>
      </trkpt>
      <trkpt lat="44.53615" lon="6.21115">
        <ele>955.22</ele>
        <time>2015-07-14T08:38:21Z</time>
      </trkpt>
      <trkpt lat="44.53612" lon="6.21119">
        <ele>955.46</ele>
        <time>2015-07-14T08:38:23Z</time>
      </trkpt>
      <trkpt lat="44.5361" lon="6.21121">
        <ele>955.59</ele>
        <time>2015-07-14T08:38:24Z</time>
      </trkpt>
      <trkpt lat="44.53609" lon="6.21124">
        <ele>955.69</ele>
        <time>2015-07-14T08:38:25Z</time>
      </trkpt>
      <trkpt lat="44.53608" lon="6.21126">
        <ele>955.78</ele>
        <time>2015-07-14T08:38:26Z</time>
      </trkpt>
      <trkpt lat="44.53607" lon="6.21128">
        <ele>955.85</ele>
        <time>2015-07-14T08:38:27Z</time>
      </trkpt>
      <trkpt lat="44.53585" lon="6.21151">
        <ele>957.56</ele>
        <time>2015-07-14T08:38:40Z</time>
      </trkpt>
      <trkpt lat="44.53583" lon="6.21155">
        <ele>958</ele>
        <time>2015-07-14T08:38:43Z</time>
      </trkpt>
      <trkpt lat="44.53582" lon="6.21158">
        <ele>958.11</ele>
        <time>2015-07-14T08:38:44Z</time>
      </trkpt>
      <trkpt lat="44.53568" lon="6.21204">
        <ele>957.4</ele>
        <time>2015-07-14T08:38:54Z</time>
      </trkpt>
      <trkpt lat="44.53564" lon="6.21208">
        <ele>957.17</ele>
        <time>2015-07-14T08:38:55Z</time>
      </trkpt>
      <trkpt lat="44.53561" lon="6.2121">
        <ele>956.99</ele>
        <time>2015-07-14T08:38:56Z</time>
      </trkpt>
      <trkpt lat="44.53559" lon="6.21211">
        <ele>956.81</ele>
        <time>2015-07-14T08:38:57Z</time>
      </trkpt>
      <trkpt lat="44.53556" lon="6.21213">
        <ele>956.64</ele>
        <time>2015-07-14T08:38:58Z</time>
      </trkpt>
      <trkpt lat="44.53555" lon="6.21216">
        <ele>956.51</ele>
        <time>2015-07-14T08:38:59Z</time>
      </trkpt>
      <trkpt lat="44.53553" lon="6.2122">
        <ele>956.43</ele>
        <time>2015-07-14T08:39:00Z</time>
      </trkpt>
      <trkpt lat="44.53552" lon="6.21223">
        <ele>956.4</ele>
        <time>2015-07-14T08:39:01Z</time>
      </trkpt>
      <trkpt lat="44.53543" lon="6.21241">
        <ele>958.01</ele>
        <time>2015-07-14T08:39:10Z</time>
      </trkpt>
      <trkpt lat="44.53528" lon="6.21263">
        <ele>959.31</ele>
        <time>2015-07-14T08:39:21Z</time>
      </trkpt>
      <trkpt lat="44.53527" lon="6.21267">
        <ele>959.31</ele>
        <time>2015-07-14T08:39:22Z</time>
      </trkpt>
      <trkpt lat="44.53503" lon="6.21299">
        <ele>962.04</ele>
        <time>2015-07-14T08:39:34Z</time>
      </trkpt>
      <trkpt lat="44.53502" lon="6.21301">
        <ele>962.2</ele>
        <time>2015-07-14T08:39:35Z</time>
      </trkpt>
      <trkpt lat="44.53494" lon="6.21313">
        <ele>963.1</ele>
        <time>2015-07-14T08:39:40Z</time>
      </trkpt>
      <trkpt lat="44.53484" lon="6.21333">
        <ele>966.43</ele>
        <time>2015-07-14T08:39:51Z</time>
      </trkpt>
      <trkpt lat="44.53475" lon="6.21349">
        <ele>968.16</ele>
        <time>2015-07-14T08:39:58Z</time>
      </trkpt>
      <trkpt lat="44.53472" lon="6.21353">
        <ele>968.71</ele>
        <time>2015-07-14T08:40:01Z</time>
      </trkpt>
      <trkpt lat="44.53467" lon="6.21374">
        <ele>970.18</ele>
        <time>2015-07-14T08:40:11Z</time>
      </trkpt>
      <trkpt lat="44.53469" lon="6.21388">
        <ele>971.83</ele>
        <time>2015-07-14T08:40:18Z</time>
      </trkpt>
      <trkpt lat="44.53469" lon="6.21399">
        <ele>972.87</ele>
        <time>2015-07-14T08:40:24Z</time>
      </trkpt>
      <trkpt lat="44.53466" lon="6.21418">
        <ele>974.22</ele>
        <time>2015-07-14T08:40:33Z</time>
      </trkpt>
      <trkpt lat="44.53465" lon="6.21429">
        <ele>974.85</ele>
        <time>2015-07-14T08:40:39Z</time>
      </trkpt>
      <trkpt lat="44.53464" lon="6.21456">
        <ele>976.87</ele>
        <time>2015-07-14T08:40:52Z</time>
      </trkpt>
      <trkpt lat="44.53464" lon="6.21477">
        <ele>978.43</ele>
        <time>2015-07-14T08:41:01Z</time>
      </trkpt>
      <trkpt lat="44.53451" lon="6.21493">
        <ele>978.2</ele>
        <time>2015-07-14T08:41:09Z</time>
      </trkpt>
      <trkpt lat="44.53442" lon="6.21506">
        <ele>977.08</ele>
        <time>2015-07-14T08:41:13Z</time>
      </trkpt>
      <trkpt lat="44.53423" lon="6.21514">
        <ele>975.31</ele>
        <time>2015-07-14T08:41:18Z</time>
      </trkpt>
      <trkpt lat="44.534" lon="6.21532">
        <ele>971.87</ele>
        <time>2015-07-14T08:41:26Z</time>
      </trkpt>
      <trkpt lat="44.53388" lon="6.21539">
        <ele>970.52</ele>
        <time>2015-07-14T08:41:29Z</time>
      </trkpt>
      <trkpt lat="44.53377" lon="6.21544">
        <ele>969.14</ele>
        <time>2015-07-14T08:41:31Z</time>
      </trkpt>
      <trkpt lat="44.53373" lon="6.21552">
        <ele>967.33</ele>
        <time>2015-07-14T08:41:36Z</time>
      </trkpt>
      <trkpt lat="44.53362" lon="6.21567">
        <ele>965.08</ele>
        <time>2015-07-14T08:42:05Z</time>
      </trkpt>
      <trkpt lat="44.53371" lon="6.21571">
        <ele>964.41</ele>
        <time>2015-07-14T08:42:23Z</time>
      </trkpt>
      <trkpt lat="44.53373" lon="6.2157">
        <ele>964.21</ele>
        <time>2015-07-14T08:42:24Z</time>
      </trkpt>
      <trkpt lat="44.5338" lon="6.21569">
        <ele>963.53</ele>
        <time>2015-07-14T08:42:27Z</time>
      </trkpt>
      <trkpt lat="44.53397" lon="6.21567">
        <ele>961.7</ele>
        <time>2015-07-14T08:42:33Z</time>
      </trkpt>
      <trkpt lat="44.53421" lon="6.21575">
        <ele>958.87</ele>
        <time>2015-07-14T08:42:41Z</time>
      </trkpt>
      <trkpt lat="44.53447" lon="6.21565">
        <ele>955.19</ele>
        <time>2015-07-14T08:42:49Z</time>
      </trkpt>
      <trkpt lat="44.53472" lon="6.21546">
        <ele>953.66</ele>
        <time>2015-07-14T08:42:58Z</time>
      </trkpt>
      <trkpt lat="44.53488" lon="6.21522">
        <ele>952.65</ele>
        <time>2015-07-14T08:43:02Z</time>
      </trkpt>
      <trkpt lat="44.53507" lon="6.21495">
        <ele>950.86</ele>
        <time>2015-07-14T08:43:06Z</time>
      </trkpt>
      <trkpt lat="44.53519" lon="6.21452">
        <ele>945.89</ele>
        <time>2015-07-14T08:43:13Z</time>
      </trkpt>
      <trkpt lat="44.53519" lon="6.21447">
        <ele>945.34</ele>
        <time>2015-07-14T08:43:14Z</time>
      </trkpt>
      <trkpt lat="44.53523" lon="6.21422">
        <ele>944.01</ele>
        <time>2015-07-14T08:43:17Z</time>
      </trkpt>
      <trkpt lat="44.53527" lon="6.21392">
        <ele>941.89</ele>
        <time>2015-07-14T08:43:21Z</time>
      </trkpt>
      <trkpt lat="44.5354" lon="6.21367">
        <ele>941.26</ele>
        <time>2015-07-14T08:43:29Z</time>
      </trkpt>
      <trkpt lat="44.53542" lon="6.21366">
        <ele>941.37</ele>
        <time>2015-07-14T08:43:30Z</time>
      </trkpt>
      <trkpt lat="44.53547" lon="6.21364">
        <ele>941.87</ele>
        <time>2015-07-14T08:43:32Z</time>
      </trkpt>
      <trkpt lat="44.53551" lon="6.21362">
        <ele>942.92</ele>
        <time>2015-07-14T08:43:36Z</time>
      </trkpt>
      <trkpt lat="44.53554" lon="6.21348">
        <ele>943.46</ele>
        <time>2015-07-14T08:43:41Z</time>
      </trkpt>
      <trkpt lat="44.5355" lon="6.21321">
        <ele>942.67</ele>
        <time>2015-07-14T08:43:47Z</time>
      </trkpt>
      <trkpt lat="44.53553" lon="6.21318">
        <ele>941.56</ele>
        <time>2015-07-14T08:43:51Z</time>
      </trkpt>
      <trkpt lat="44.53557" lon="6.21319">
        <ele>941</ele>
        <time>2015-07-14T08:43:53Z</time>
      </trkpt>
      <trkpt lat="44.53566" lon="6.21319">
        <ele>940.1</ele>
        <time>2015-07-14T08:44:00Z</time>
      </trkpt>
      <trkpt lat="44.53581" lon="6.21293">
        <ele>939.38</ele>
        <time>2015-07-14T08:44:08Z</time>
      </trkpt>
      <trkpt lat="44.5358" lon="6.21274">
        <ele>939.16</ele>
        <time>2015-07-14T08:44:13Z</time>
      </trkpt>
      <trkpt lat="44.53582" lon="6.21271">
        <ele>939.15</ele>
        <time>2015-07-14T08:44:14Z</time>
      </trkpt>
      <trkpt lat="44.53584" lon="6.21269">
        <ele>939.14</ele>
        <time>2015-07-14T08:44:15Z</time>
      </trkpt>
      <trkpt lat="44.53586" lon="6.21268">
        <ele>939.14</ele>
        <time>2015-07-14T08:44:16Z</time>
      </trkpt>
      <trkpt lat="44.53587" lon="6.21267">
        <ele>939.15</ele>
        <time>2015-07-14T08:44:17Z</time>
      </trkpt>
      <trkpt lat="44.53589" lon="6.21266">
        <ele>939.17</ele>
        <time>2015-07-14T08:44:18Z</time>
      </trkpt>
      <trkpt lat="44.53591" lon="6.21266">
        <ele>939.19</ele>
        <time>2015-07-14T08:44:19Z</time>
      </trkpt>
      <trkpt lat="44.53594" lon="6.21266">
        <ele>939.19</ele>
        <time>2015-07-14T08:44:20Z</time>
      </trkpt>
      <trkpt lat="44.53598" lon="6.21264">
        <ele>939.19</ele>
        <time>2015-07-14T08:44:21Z</time>
      </trkpt>
      <trkpt lat="44.536" lon="6.21262">
        <ele>939.16</ele>
        <time>2015-07-14T08:44:22Z</time>
      </trkpt>
      <trkpt lat="44.53603" lon="6.2126">
        <ele>939.1</ele>
        <time>2015-07-14T08:44:23Z</time>
      </trkpt>
      <trkpt lat="44.53607" lon="6.21258">
        <ele>939.05</ele>
        <time>2015-07-14T08:44:24Z</time>
      </trkpt>
      <trkpt lat="44.5361" lon="6.21258">
        <ele>938.94</ele>
        <time>2015-07-14T08:44:25Z</time>
      </trkpt>
      <trkpt lat="44.53632" lon="6.21274">
        <ele>937.41</ele>
        <time>2015-07-14T08:44:33Z</time>
      </trkpt>
      <trkpt lat="44.53642" lon="6.21252">
        <ele>935.1</ele>
        <time>2015-07-14T08:44:42Z</time>
      </trkpt>
      <trkpt lat="44.53667" lon="6.21254">
        <ele>932.74</ele>
        <time>2015-07-14T08:44:50Z</time>
      </trkpt>
      <trkpt lat="44.53674" lon="6.21257">
        <ele>932.26</ele>
        <time>2015-07-14T08:44:52Z</time>
      </trkpt>
      <trkpt lat="44.53701" lon="6.21254">
        <ele>928.98</ele>
        <time>2015-07-14T08:45:01Z</time>
      </trkpt>
      <trkpt lat="44.5372" lon="6.21236">
        <ele>925.36</ele>
        <time>2015-07-14T08:45:10Z</time>
      </trkpt>
      <trkpt lat="44.53722" lon="6.21233">
        <ele>924.6</ele>
        <time>2015-07-14T08:45:11Z</time>
      </trkpt>
      <trkpt lat="44.53724" lon="6.2123">
        <ele>924.17</ele>
        <time>2015-07-14T08:45:12Z</time>
      </trkpt>
      <trkpt lat="44.53725" lon="6.2123">
        <ele>923.73</ele>
        <time>2015-07-14T08:45:13Z</time>
      </trkpt>
      <trkpt lat="44.53732" lon="6.2123">
        <ele>921.06</ele>
        <time>2015-07-14T08:45:21Z</time>
      </trkpt>
      <trkpt lat="44.53739" lon="6.21249">
        <ele>919.64</ele>
        <time>2015-07-14T08:45:29Z</time>
      </trkpt>
      <trkpt lat="44.53739" lon="6.21252">
        <ele>919.47</ele>
        <time>2015-07-14T08:45:30Z</time>
      </trkpt>
      <trkpt lat="44.5374" lon="6.21254">
        <ele>919.3</ele>
        <time>2015-07-14T08:45:31Z</time>
      </trkpt>
      <trkpt lat="44.5374" lon="6.21257">
        <ele>919.11</ele>
        <time>2015-07-14T08:45:32Z</time>
      </trkpt>
      <trkpt lat="44.5374" lon="6.2126">
        <ele>918.87</ele>
        <time>2015-07-14T08:45:33Z</time>
      </trkpt>
      <trkpt lat="44.5374" lon="6.21264">
        <ele>918.56</ele>
        <time>2015-07-14T08:45:34Z</time>
      </trkpt>
      <trkpt lat="44.53741" lon="6.21268">
        <ele>918.16</ele>
        <time>2015-07-14T08:45:35Z</time>
      </trkpt>
      <trkpt lat="44.5374" lon="6.21272">
        <ele>917.75</ele>
        <time>2015-07-14T08:45:36Z</time>
      </trkpt>
      <trkpt lat="44.5374" lon="6.21277">
        <ele>917.4</ele>
        <time>2015-07-14T08:45:37Z</time>
      </trkpt>
      <trkpt lat="44.5374" lon="6.21282">
        <ele>916.72</ele>
        <time>2015-07-14T08:45:38Z</time>
      </trkpt>
      <trkpt lat="44.53737" lon="6.21304">
        <ele>914.58</ele>
        <time>2015-07-14T08:45:43Z</time>
      </trkpt>
      <trkpt lat="44.53736" lon="6.21308">
        <ele>914</ele>
        <time>2015-07-14T08:45:44Z</time>
      </trkpt>
      <trkpt lat="44.53733" lon="6.21312">
        <ele>912.86</ele>
        <time>2015-07-14T08:45:46Z</time>
      </trkpt>
      <trkpt lat="44.53731" lon="6.21315">
        <ele>912.36</ele>
        <time>2015-07-14T08:45:47Z</time>
      </trkpt>
      <trkpt lat="44.53729" lon="6.21316">
        <ele>911.93</ele>
        <time>2015-07-14T08:45:48Z</time>
      </trkpt>
      <trkpt lat="44.53727" lon="6.21318">
        <ele>911.5</ele>
        <time>2015-07-14T08:45:49Z</time>
      </trkpt>
      <trkpt lat="44.53724" lon="6.2132">
        <ele>911.06</ele>
        <time>2015-07-14T08:45:50Z</time>
      </trkpt>
      <trkpt lat="44.53722" lon="6.21323">
        <ele>910.61</ele>
        <time>2015-07-14T08:45:51Z</time>
      </trkpt>
      <trkpt lat="44.53721" lon="6.21324">
        <ele>910.16</ele>
        <time>2015-07-14T08:45:52Z</time>
      </trkpt>
      <trkpt lat="44.53719" lon="6.21326">
        <ele>909.72</ele>
        <time>2015-07-14T08:45:53Z</time>
      </trkpt>
      <trkpt lat="44.53717" lon="6.21327">
        <ele>909.3</ele>
        <time>2015-07-14T08:45:54Z</time>
      </trkpt>
      <trkpt lat="44.53702" lon="6.21334">
        <ele>905.61</ele>
        <time>2015-07-14T08:46:02Z</time>
      </trkpt>
      <trkpt lat="44.53702" lon="6.21334">
        <ele>905.33</ele>
        <time>2015-07-14T08:46:03Z</time>
      </trkpt>
      <trkpt lat="44.53694" lon="6.21338">
        <ele>904.14</ele>
        <time>2015-07-14T08:46:13Z</time>
      </trkpt>
      <trkpt lat="44.53693" lon="6.21336">
        <ele>904.1</ele>
        <time>2015-07-14T08:46:14Z</time>
      </trkpt>
      <trkpt lat="44.53691" lon="6.21333">
        <ele>904.07</ele>
        <time>2015-07-14T08:46:15Z</time>
      </trkpt>
      <trkpt lat="44.5369" lon="6.21333">
        <ele>904.02</ele>
        <time>2015-07-14T08:46:16Z</time>
      </trkpt>
      <trkpt lat="44.53687" lon="6.21332">
        <ele>903.96</ele>
        <time>2015-07-14T08:46:17Z</time>
      </trkpt>
      <trkpt lat="44.53685" lon="6.21332">
        <ele>903.86</ele>
        <time>2015-07-14T08:46:18Z</time>
      </trkpt>
      <trkpt lat="44.53673" lon="6.21332">
        <ele>903.35</ele>
        <time>2015-07-14T08:46:25Z</time>
      </trkpt>
      <trkpt lat="44.53667" lon="6.21339">
        <ele>901.59</ele>
        <time>2015-07-14T08:46:33Z</time>
      </trkpt>
      <trkpt lat="44.53665" lon="6.21345">
        <ele>900.82</ele>
        <time>2015-07-14T08:46:37Z</time>
      </trkpt>
      <trkpt lat="44.53665" lon="6.21347">
        <ele>900.74</ele>
        <time>2015-07-14T08:46:38Z</time>
      </trkpt>
      <trkpt lat="44.53666" lon="6.21348">
        <ele>900.71</ele>
        <time>2015-07-14T08:46:41Z</time>
      </trkpt>
      <trkpt lat="44.53667" lon="6.21348">
        <ele>900.75</ele>
        <time>2015-07-14T08:46:42Z</time>
      </trkpt>
      <trkpt lat="44.53667" lon="6.21348">
        <ele>900.81</ele>
        <time>2015-07-14T08:46:43Z</time>
      </trkpt>
      <trkpt lat="44.53671" lon="6.2135">
        <ele>901.08</ele>
        <time>2015-07-14T08:46:47Z</time>
      </trkpt>
      <trkpt lat="44.53676" lon="6.2136">
        <ele>902.19</ele>
        <time>2015-07-14T08:46:53Z</time>
      </trkpt>
      <trkpt lat="44.53677" lon="6.21361">
        <ele>902.34</ele>
        <time>2015-07-14T08:46:54Z</time>
      </trkpt>
      <trkpt lat="44.53688" lon="6.21377">
        <ele>903.7</ele>
        <time>2015-07-14T08:47:05Z</time>
      </trkpt>
      <trkpt lat="44.5369" lon="6.21378">
        <ele>903.71</ele>
        <time>2015-07-14T08:47:06Z</time>
      </trkpt>
      <trkpt lat="44.53692" lon="6.21379">
        <ele>903.72</ele>
        <time>2015-07-14T08:47:07Z</time>
      </trkpt>
      <trkpt lat="44.53694" lon="6.21379">
        <ele>903.73</ele>
        <time>2015-07-14T08:47:08Z</time>
      </trkpt>
      <trkpt lat="44.53696" lon="6.2138">
        <ele>903.73</ele>
        <time>2015-07-14T08:47:09Z</time>
      </trkpt>
      <trkpt lat="44.53712" lon="6.21382">
        <ele>904.77</ele>
        <time>2015-07-14T08:47:20Z</time>
      </trkpt>
      <trkpt lat="44.53741" lon="6.21385">
        <ele>904.74</ele>
        <time>2015-07-14T08:47:31Z</time>
      </trkpt>
      <trkpt lat="44.5375" lon="6.2139">
        <ele>905.32</ele>
        <time>2015-07-14T08:47:42Z</time>
      </trkpt>
      <trkpt lat="44.53749" lon="6.21392">
        <ele>905.42</ele>
        <time>2015-07-14T08:48:07Z</time>
      </trkpt>
      <trkpt lat="44.53756" lon="6.21394">
        <ele>905.45</ele>
        <time>2015-07-14T08:48:19Z</time>
      </trkpt>
      <trkpt lat="44.53759" lon="6.21395">
        <ele>905.42</ele>
        <time>2015-07-14T08:48:20Z</time>
      </trkpt>
      <trkpt lat="44.53761" lon="6.21395">
        <ele>905.38</ele>
        <time>2015-07-14T08:48:21Z</time>
      </trkpt>
      <trkpt lat="44.53764" lon="6.21395">
        <ele>905.32</ele>
        <time>2015-07-14T08:48:22Z</time>
      </trkpt>
      <trkpt lat="44.53767" lon="6.21395">
        <ele>905.22</ele>
        <time>2015-07-14T08:48:23Z</time>
      </trkpt>
      <trkpt lat="44.53771" lon="6.21395">
        <ele>905.07</ele>
        <time>2015-07-14T08:48:24Z</time>
      </trkpt>
      <trkpt lat="44.53776" lon="6.21395">
        <ele>904.91</ele>
        <time>2015-07-14T08:48:25Z</time>
      </trkpt>
      <trkpt lat="44.5378" lon="6.21396">
        <ele>904.73</ele>
        <time>2015-07-14T08:48:26Z</time>
      </trkpt>
      <trkpt lat="44.53783" lon="6.21399">
        <ele>904.45</ele>
        <time>2015-07-14T08:48:27Z</time>
      </trkpt>
      <trkpt lat="44.53787" lon="6.21407">
        <ele>903.63</ele>
        <time>2015-07-14T08:48:29Z</time>
      </trkpt>
      <trkpt lat="44.53789" lon="6.21412">
        <ele>903.36</ele>
        <time>2015-07-14T08:48:30Z</time>
      </trkpt>
      <trkpt lat="44.53796" lon="6.21423">
        <ele>901.14</ele>
        <time>2015-07-14T08:48:37Z</time>
      </trkpt>
      <trkpt lat="44.53802" lon="6.21422">
        <ele>900.5</ele>
        <time>2015-07-14T08:48:40Z</time>
      </trkpt>
      <trkpt lat="44.53805" lon="6.2142">
        <ele>900.35</ele>
        <time>2015-07-14T08:48:41Z</time>
      </trkpt>
      <trkpt lat="44.53807" lon="6.21418">
        <ele>900.23</ele>
        <time>2015-07-14T08:48:42Z</time>
      </trkpt>
      <trkpt lat="44.5381" lon="6.21416">
        <ele>900.15</ele>
        <time>2015-07-14T08:48:43Z</time>
      </trkpt>
      <trkpt lat="44.53836" lon="6.21393">
        <ele>900.3</ele>
        <time>2015-07-14T08:48:54Z</time>
      </trkpt>
      <trkpt lat="44.53856" lon="6.21363">
        <ele>902.28</ele>
        <time>2015-07-14T08:49:10Z</time>
      </trkpt>
      <trkpt lat="44.53875" lon="6.21333">
        <ele>902.53</ele>
        <time>2015-07-14T08:49:22Z</time>
      </trkpt>
      <trkpt lat="44.53896" lon="6.21308">
        <ele>902.62</ele>
        <time>2015-07-14T08:49:32Z</time>
      </trkpt>
      <trkpt lat="44.53898" lon="6.21309">
        <ele>902.53</ele>
        <time>2015-07-14T08:49:33Z</time>
      </trkpt>
      <trkpt lat="44.53899" lon="6.21312">
        <ele>902.47</ele>
        <time>2015-07-14T08:49:34Z</time>
      </trkpt>
      <trkpt lat="44.53899" lon="6.21315">
        <ele>902.41</ele>
        <time>2015-07-14T08:49:35Z</time>
      </trkpt>
      <trkpt lat="44.53898" lon="6.21318">
        <ele>902.37</ele>
        <time>2015-07-14T08:49:36Z</time>
      </trkpt>
      <trkpt lat="44.53897" lon="6.2132">
        <ele>902.35</ele>
        <time>2015-07-14T08:49:37Z</time>
      </trkpt>
      <trkpt lat="44.53896" lon="6.21322">
        <ele>902.36</ele>
        <time>2015-07-14T08:49:38Z</time>
      </trkpt>
      <trkpt lat="44.53896" lon="6.21325">
        <ele>902.41</ele>
        <time>2015-07-14T08:49:39Z</time>
      </trkpt>
      <trkpt lat="44.53895" lon="6.21328">
        <ele>902.55</ele>
        <time>2015-07-14T08:49:40Z</time>
      </trkpt>
      <trkpt lat="44.53895" lon="6.2133">
        <ele>902.75</ele>
        <time>2015-07-14T08:49:41Z</time>
      </trkpt>
      <trkpt lat="44.5389" lon="6.21364">
        <ele>905.75</ele>
        <time>2015-07-14T08:49:57Z</time>
      </trkpt>
      <trkpt lat="44.53882" lon="6.21395">
        <ele>908.95</ele>
        <time>2015-07-14T08:50:13Z</time>
      </trkpt>
      <trkpt lat="44.53883" lon="6.21434">
        <ele>912.09</ele>
        <time>2015-07-14T08:50:32Z</time>
      </trkpt>
      <trkpt lat="44.53881" lon="6.21437">
        <ele>913.29</ele>
        <time>2015-07-14T08:50:38Z</time>
      </trkpt>
      <trkpt lat="44.53871" lon="6.21452">
        <ele>915.86</ele>
        <time>2015-07-14T08:50:56Z</time>
      </trkpt>
      <trkpt lat="44.53861" lon="6.21471">
        <ele>918.99</ele>
        <time>2015-07-14T08:51:16Z</time>
      </trkpt>
      <trkpt lat="44.53859" lon="6.21481">
        <ele>920.09</ele>
        <time>2015-07-14T08:51:23Z</time>
      </trkpt>
      <trkpt lat="44.53859" lon="6.21483">
        <ele>920.23</ele>
        <time>2015-07-14T08:51:24Z</time>
      </trkpt>
      <trkpt lat="44.53859" lon="6.21485">
        <ele>920.37</ele>
        <time>2015-07-14T08:51:25Z</time>
      </trkpt>
      <trkpt lat="44.53859" lon="6.21497">
        <ele>921.26</ele>
        <time>2015-07-14T08:51:33Z</time>
      </trkpt>
      <trkpt lat="44.53861" lon="6.21508">
        <ele>922.74</ele>
        <time>2015-07-14T08:51:41Z</time>
      </trkpt>
      <trkpt lat="44.53863" lon="6.21523">
        <ele>925.19</ele>
        <time>2015-07-14T08:51:55Z</time>
      </trkpt>
      <trkpt lat="44.53864" lon="6.21525">
        <ele>925.38</ele>
        <time>2015-07-14T08:51:56Z</time>
      </trkpt>
      <trkpt lat="44.5387" lon="6.21555">
        <ele>928.1</ele>
        <time>2015-07-14T08:52:15Z</time>
      </trkpt>
      <trkpt lat="44.53875" lon="6.21567">
        <ele>930.06</ele>
        <time>2015-07-14T08:52:29Z</time>
      </trkpt>
      <trkpt lat="44.53875" lon="6.21568">
        <ele>930.15</ele>
        <time>2015-07-14T08:53:07Z</time>
      </trkpt>
      <trkpt lat="44.53875" lon="6.2157">
        <ele>930.04</ele>
        <time>2015-07-14T08:53:24Z</time>
      </trkpt>
      <trkpt lat="44.53879" lon="6.21597">
        <ele>930.07</ele>
        <time>2015-07-14T08:53:38Z</time>
      </trkpt>
      <trkpt lat="44.5387" lon="6.2165">
        <ele>930.62</ele>
        <time>2015-07-14T08:53:52Z</time>
      </trkpt>
      <trkpt lat="44.53865" lon="6.21697">
        <ele>931.88</ele>
        <time>2015-07-14T08:54:08Z</time>
      </trkpt>
      <trkpt lat="44.53865" lon="6.21732">
        <ele>934.88</ele>
        <time>2015-07-14T08:54:24Z</time>
      </trkpt>
      <trkpt lat="44.53852" lon="6.21772">
        <ele>937.95</ele>
        <time>2015-07-14T08:54:43Z</time>
      </trkpt>
      <trkpt lat="44.5386" lon="6.21812">
        <ele>940.96</ele>
        <time>2015-07-14T08:55:02Z</time>
      </trkpt>
      <trkpt lat="44.53866" lon="6.21847">
        <ele>943.99</ele>
        <time>2015-07-14T08:55:22Z</time>
      </trkpt>
      <trkpt lat="44.53871" lon="6.21881">
        <ele>947.11</ele>
        <time>2015-07-14T08:55:40Z</time>
      </trkpt>
      <trkpt lat="44.53868" lon="6.2192">
        <ele>949.86</ele>
        <time>2015-07-14T08:55:59Z</time>
      </trkpt>
      <trkpt lat="44.53845" lon="6.21954">
        <ele>951.93</ele>
        <time>2015-07-14T08:56:19Z</time>
      </trkpt>
      <trkpt lat="44.53838" lon="6.21966">
        <ele>952.61</ele>
        <time>2015-07-14T08:56:27Z</time>
      </trkpt>
      <trkpt lat="44.53837" lon="6.21967">
        <ele>952.71</ele>
        <time>2015-07-14T08:56:28Z</time>
      </trkpt>
      <trkpt lat="44.53836" lon="6.21969">
        <ele>952.78</ele>
        <time>2015-07-14T08:56:29Z</time>
      </trkpt>
      <trkpt lat="44.53835" lon="6.2197">
        <ele>952.84</ele>
        <time>2015-07-14T08:56:30Z</time>
      </trkpt>
      <trkpt lat="44.53835" lon="6.21972">
        <ele>952.88</ele>
        <time>2015-07-14T08:56:31Z</time>
      </trkpt>
      <trkpt lat="44.53834" lon="6.21974">
        <ele>952.94</ele>
        <time>2015-07-14T08:56:32Z</time>
      </trkpt>
      <trkpt lat="44.53816" lon="6.22003">
        <ele>953.76</ele>
        <time>2015-07-14T08:56:49Z</time>
      </trkpt>
      <trkpt lat="44.53792" lon="6.22024">
        <ele>953.27</ele>
        <time>2015-07-14T08:57:07Z</time>
      </trkpt>
      <trkpt lat="44.5376" lon="6.22062">
        <ele>951.41</ele>
        <time>2015-07-14T08:57:18Z</time>
      </trkpt>
      <trkpt lat="44.53755" lon="6.22067">
        <ele>951.18</ele>
        <time>2015-07-14T08:57:24Z</time>
      </trkpt>
      <trkpt lat="44.53758" lon="6.22063">
        <ele>951.29</ele>
        <time>2015-07-14T08:57:27Z</time>
      </trkpt>
      <trkpt lat="44.53759" lon="6.22061">
        <ele>951.33</ele>
        <time>2015-07-14T08:57:28Z</time>
      </trkpt>
      <trkpt lat="44.53778" lon="6.22037">
        <ele>951.51</ele>
        <time>2015-07-14T08:57:39Z</time>
      </trkpt>
      <trkpt lat="44.53778" lon="6.22034">
        <ele>951.57</ele>
        <time>2015-07-14T08:57:40Z</time>
      </trkpt>
      <trkpt lat="44.53776" lon="6.22031">
        <ele>951.58</ele>
        <time>2015-07-14T08:57:41Z</time>
      </trkpt>
      <trkpt lat="44.53772" lon="6.2203">
        <ele>951.58</ele>
        <time>2015-07-14T08:57:42Z</time>
      </trkpt>
      <trkpt lat="44.53768" lon="6.22031">
        <ele>951.52</ele>
        <time>2015-07-14T08:57:43Z</time>
      </trkpt>
      <trkpt lat="44.53763" lon="6.22034">
        <ele>951.45</ele>
        <time>2015-07-14T08:57:44Z</time>
      </trkpt>
      <trkpt lat="44.53757" lon="6.22037">
        <ele>951.25</ele>
        <time>2015-07-14T08:57:45Z</time>
      </trkpt>
      <trkpt lat="44.53751" lon="6.22039">
        <ele>951.02</ele>
        <time>2015-07-14T08:57:46Z</time>
      </trkpt>
      <trkpt lat="44.53745" lon="6.22041">
        <ele>950.75</ele>
        <time>2015-07-14T08:57:47Z</time>
      </trkpt>
      <trkpt lat="44.53697" lon="6.22052">
        <ele>948.16</ele>
        <time>2015-07-14T08:57:54Z</time>
      </trkpt>
      <trkpt lat="44.53692" lon="6.22055">
        <ele>947.88</ele>
        <time>2015-07-14T08:57:55Z</time>
      </trkpt>
      <trkpt lat="44.53677" lon="6.22066">
        <ele>948.78</ele>
        <time>2015-07-14T08:58:03Z</time>
      </trkpt>
      <trkpt lat="44.5366" lon="6.22079">
        <ele>951.86</ele>
        <time>2015-07-14T08:58:16Z</time>
      </trkpt>
      <trkpt lat="44.53659" lon="6.22082">
        <ele>952.33</ele>
        <time>2015-07-14T08:58:18Z</time>
      </trkpt>
      <trkpt lat="44.53659" lon="6.22084">
        <ele>952.57</ele>
        <time>2015-07-14T08:58:19Z</time>
      </trkpt>
      <trkpt lat="44.53658" lon="6.22086">
        <ele>952.79</ele>
        <time>2015-07-14T08:58:20Z</time>
      </trkpt>
      <trkpt lat="44.53657" lon="6.22088">
        <ele>953.03</ele>
        <time>2015-07-14T08:58:21Z</time>
      </trkpt>
      <trkpt lat="44.53656" lon="6.22089">
        <ele>953.29</ele>
        <time>2015-07-14T08:58:22Z</time>
      </trkpt>
      <trkpt lat="44.53655" lon="6.2209">
        <ele>953.55</ele>
        <time>2015-07-14T08:58:23Z</time>
      </trkpt>
      <trkpt lat="44.53654" lon="6.2209">
        <ele>953.79</ele>
        <time>2015-07-14T08:58:24Z</time>
      </trkpt>
      <trkpt lat="44.53653" lon="6.2209">
        <ele>954</ele>
        <time>2015-07-14T08:58:25Z</time>
      </trkpt>
      <trkpt lat="44.53652" lon="6.22089">
        <ele>954.21</ele>
        <time>2015-07-14T08:58:26Z</time>
      </trkpt>
      <trkpt lat="44.5365" lon="6.22088">
        <ele>954.4</ele>
        <time>2015-07-14T08:58:27Z</time>
      </trkpt>
      <trkpt lat="44.5365" lon="6.22086">
        <ele>954.6</ele>
        <time>2015-07-14T08:58:28Z</time>
      </trkpt>
      <trkpt lat="44.53649" lon="6.22084">
        <ele>954.76</ele>
        <time>2015-07-14T08:58:29Z</time>
      </trkpt>
      <trkpt lat="44.5365" lon="6.22081">
        <ele>954.9</ele>
        <time>2015-07-14T08:58:30Z</time>
      </trkpt>
      <trkpt lat="44.5365" lon="6.2208">
        <ele>955.03</ele>
        <time>2015-07-14T08:58:31Z</time>
      </trkpt>
      <trkpt lat="44.5365" lon="6.22077">
        <ele>955.14</ele>
        <time>2015-07-14T08:58:32Z</time>
      </trkpt>
      <trkpt lat="44.5365" lon="6.22075">
        <ele>955.23</ele>
        <time>2015-07-14T08:58:33Z</time>
      </trkpt>
      <trkpt lat="44.53651" lon="6.22072">
        <ele>955.32</ele>
        <time>2015-07-14T08:58:34Z</time>
      </trkpt>
      <trkpt lat="44.53653" lon="6.22071">
        <ele>955.41</ele>
        <time>2015-07-14T08:58:35Z</time>
      </trkpt>
      <trkpt lat="44.53655" lon="6.22044">
        <ele>957.5</ele>
        <time>2015-07-14T08:58:50Z</time>
      </trkpt>
      <trkpt lat="44.53653" lon="6.22027">
        <ele>958.82</ele>
        <time>2015-07-14T08:58:59Z</time>
      </trkpt>
      <trkpt lat="44.53655" lon="6.22025">
        <ele>958.89</ele>
        <time>2015-07-14T08:59:00Z</time>
      </trkpt>
      <trkpt lat="44.53656" lon="6.22024">
        <ele>958.97</ele>
        <time>2015-07-14T08:59:01Z</time>
      </trkpt>
      <trkpt lat="44.53657" lon="6.22023">
        <ele>959.06</ele>
        <time>2015-07-14T08:59:02Z</time>
      </trkpt>
      <trkpt lat="44.53658" lon="6.22022">
        <ele>959.12</ele>
        <time>2015-07-14T08:59:03Z</time>
      </trkpt>
      <trkpt lat="44.53674" lon="6.22015">
        <ele>960.39</ele>
        <time>2015-07-14T08:59:15Z</time>
      </trkpt>
      <trkpt lat="44.53688" lon="6.21986">
        <ele>962.91</ele>
        <time>2015-07-14T08:59:32Z</time>
      </trkpt>
      <trkpt lat="44.53693" lon="6.21955">
        <ele>964.64</ele>
        <time>2015-07-14T08:59:46Z</time>
      </trkpt>
      <trkpt lat="44.53689" lon="6.21928">
        <ele>966.56</ele>
        <time>2015-07-14T09:00:01Z</time>
      </trkpt>
      <trkpt lat="44.53686" lon="6.2193">
        <ele>966.9</ele>
        <time>2015-07-14T09:00:03Z</time>
      </trkpt>
      <trkpt lat="44.53685" lon="6.21935">
        <ele>967.4</ele>
        <time>2015-07-14T09:00:06Z</time>
      </trkpt>
      <trkpt lat="44.53685" lon="6.21937">
        <ele>967.54</ele>
        <time>2015-07-14T09:00:07Z</time>
      </trkpt>
      <trkpt lat="44.53685" lon="6.21939">
        <ele>967.67</ele>
        <time>2015-07-14T09:00:08Z</time>
      </trkpt>
      <trkpt lat="44.53685" lon="6.21941">
        <ele>967.8</ele>
        <time>2015-07-14T09:00:09Z</time>
      </trkpt>
      <trkpt lat="44.53685" lon="6.21943">
        <ele>967.94</ele>
        <time>2015-07-14T09:00:10Z</time>
      </trkpt>
      <trkpt lat="44.53685" lon="6.21945">
        <ele>968.09</ele>
        <time>2015-07-14T09:00:11Z</time>
      </trkpt>
      <trkpt lat="44.53684" lon="6.21947">
        <ele>968.22</ele>
        <time>2015-07-14T09:00:12Z</time>
      </trkpt>
      <trkpt lat="44.53684" lon="6.21949">
        <ele>968.34</ele>
        <time>2015-07-14T09:00:13Z</time>
      </trkpt>
      <trkpt lat="44.53673" lon="6.21973">
        <ele>970.21</ele>
        <time>2015-07-14T09:00:26Z</time>
      </trkpt>
      <trkpt lat="44.53672" lon="6.21974">
        <ele>970.42</ele>
        <time>2015-07-14T09:00:27Z</time>
      </trkpt>
      <trkpt lat="44.53645" lon="6.21981">
        <ele>972.18</ele>
        <time>2015-07-14T09:00:41Z</time>
      </trkpt>
      <trkpt lat="44.53604" lon="6.21981">
        <ele>974.37</ele>
        <time>2015-07-14T09:01:01Z</time>
      </trkpt>
      <trkpt lat="44.53585" lon="6.2197">
        <ele>976.41</ele>
        <time>2015-07-14T09:01:13Z</time>
      </trkpt>
      <trkpt lat="44.53561" lon="6.21932">
        <ele>978.91</ele>
        <time>2015-07-14T09:01:32Z</time>
      </trkpt>
      <trkpt lat="44.5354" lon="6.21908">
        <ele>980.71</ele>
        <time>2015-07-14T09:01:47Z</time>
      </trkpt>
      <trkpt lat="44.53523" lon="6.21897">
        <ele>982.11</ele>
        <time>2015-07-14T09:01:58Z</time>
      </trkpt>
      <trkpt lat="44.53502" lon="6.21883">
        <ele>983.24</ele>
        <time>2015-07-14T09:02:10Z</time>
      </trkpt>
      <trkpt lat="44.53494" lon="6.2188">
        <ele>983.74</ele>
        <time>2015-07-14T09:02:14Z</time>
      </trkpt>
      <trkpt lat="44.53493" lon="6.21881">
        <ele>983.82</ele>
        <time>2015-07-14T09:02:15Z</time>
      </trkpt>
      <trkpt lat="44.53492" lon="6.21883">
        <ele>983.9</ele>
        <time>2015-07-14T09:02:16Z</time>
      </trkpt>
      <trkpt lat="44.53491" lon="6.21885">
        <ele>983.99</ele>
        <time>2015-07-14T09:02:17Z</time>
      </trkpt>
      <trkpt lat="44.53491" lon="6.21888">
        <ele>984.13</ele>
        <time>2015-07-14T09:02:18Z</time>
      </trkpt>
      <trkpt lat="44.53492" lon="6.2189">
        <ele>984.29</ele>
        <time>2015-07-14T09:02:19Z</time>
      </trkpt>
      <trkpt lat="44.53493" lon="6.21892">
        <ele>984.57</ele>
        <time>2015-07-14T09:02:20Z</time>
      </trkpt>
      <trkpt lat="44.53494" lon="6.21893">
        <ele>984.73</ele>
        <time>2015-07-14T09:02:21Z</time>
      </trkpt>
      <trkpt lat="44.53495" lon="6.21894">
        <ele>984.89</ele>
        <time>2015-07-14T09:02:22Z</time>
      </trkpt>
      <trkpt lat="44.53497" lon="6.21895">
        <ele>985.04</ele>
        <time>2015-07-14T09:02:23Z</time>
      </trkpt>
      <trkpt lat="44.53498" lon="6.21896">
        <ele>985.17</ele>
        <time>2015-07-14T09:02:24Z</time>
      </trkpt>
      <trkpt lat="44.53518" lon="6.21915">
        <ele>987.23</ele>
        <time>2015-07-14T09:02:38Z</time>
      </trkpt>
      <trkpt lat="44.5353" lon="6.21939">
        <ele>988.91</ele>
        <time>2015-07-14T09:02:51Z</time>
      </trkpt>
      <trkpt lat="44.53531" lon="6.21957">
        <ele>989.92</ele>
        <time>2015-07-14T09:02:59Z</time>
      </trkpt>
      <trkpt lat="44.5353" lon="6.21959">
        <ele>990.07</ele>
        <time>2015-07-14T09:03:00Z</time>
      </trkpt>
      <trkpt lat="44.53527" lon="6.21979">
        <ele>991.64</ele>
        <time>2015-07-14T09:03:10Z</time>
      </trkpt>
      <trkpt lat="44.53526" lon="6.21981">
        <ele>991.74</ele>
        <time>2015-07-14T09:03:11Z</time>
      </trkpt>
      <trkpt lat="44.53526" lon="6.21984">
        <ele>991.83</ele>
        <time>2015-07-14T09:03:12Z</time>
      </trkpt>
      <trkpt lat="44.53525" lon="6.21989">
        <ele>992.26</ele>
        <time>2015-07-14T09:03:15Z</time>
      </trkpt>
      <trkpt lat="44.53525" lon="6.21991">
        <ele>992.44</ele>
        <time>2015-07-14T09:03:16Z</time>
      </trkpt>
      <trkpt lat="44.53524" lon="6.21993">
        <ele>992.63</ele>
        <time>2015-07-14T09:03:17Z</time>
      </trkpt>
      <trkpt lat="44.53524" lon="6.21995">
        <ele>992.8</ele>
        <time>2015-07-14T09:03:18Z</time>
      </trkpt>
      <trkpt lat="44.53523" lon="6.21997">
        <ele>992.96</ele>
        <time>2015-07-14T09:03:19Z</time>
      </trkpt>
      <trkpt lat="44.53522" lon="6.22">
        <ele>993.13</ele>
        <time>2015-07-14T09:03:20Z</time>
      </trkpt>
      <trkpt lat="44.53516" lon="6.22033">
        <ele>995.23</ele>
        <time>2015-07-14T09:03:33Z</time>
      </trkpt>
      <trkpt lat="44.53506" lon="6.22072">
        <ele>998.34</ele>
        <time>2015-07-14T09:03:51Z</time>
      </trkpt>
      <trkpt lat="44.53509" lon="6.22102">
        <ele>1000.27</ele>
        <time>2015-07-14T09:04:06Z</time>
      </trkpt>
      <trkpt lat="44.53496" lon="6.22123">
        <ele>1002.18</ele>
        <time>2015-07-14T09:04:20Z</time>
      </trkpt>
      <trkpt lat="44.53494" lon="6.22126">
        <ele>1002.6</ele>
        <time>2015-07-14T09:04:23Z</time>
      </trkpt>
      <trkpt lat="44.53493" lon="6.22128">
        <ele>1002.8</ele>
        <time>2015-07-14T09:04:24Z</time>
      </trkpt>
      <trkpt lat="44.53484" lon="6.22153">
        <ele>1004.22</ele>
        <time>2015-07-14T09:04:38Z</time>
      </trkpt>
      <trkpt lat="44.53484" lon="6.22156">
        <ele>1004.32</ele>
        <time>2015-07-14T09:04:39Z</time>
      </trkpt>
      <trkpt lat="44.53479" lon="6.22191">
        <ele>1006.49</ele>
        <time>2015-07-14T09:04:56Z</time>
      </trkpt>
      <trkpt lat="44.53479" lon="6.22223">
        <ele>1008.47</ele>
        <time>2015-07-14T09:05:11Z</time>
      </trkpt>
      <trkpt lat="44.53477" lon="6.22246">
        <ele>1009.71</ele>
        <time>2015-07-14T09:05:23Z</time>
      </trkpt>
      <trkpt lat="44.53475" lon="6.22264">
        <ele>1010.92</ele>
        <time>2015-07-14T09:05:32Z</time>
      </trkpt>
      <trkpt lat="44.53475" lon="6.22266">
        <ele>1011.03</ele>
        <time>2015-07-14T09:05:33Z</time>
      </trkpt>
      <trkpt lat="44.53475" lon="6.22274">
        <ele>1011.44</ele>
        <time>2015-07-14T09:05:37Z</time>
      </trkpt>
      <trkpt lat="44.53474" lon="6.22276">
        <ele>1011.62</ele>
        <time>2015-07-14T09:05:38Z</time>
      </trkpt>
      <trkpt lat="44.53465" lon="6.22302">
        <ele>1013.26</ele>
        <time>2015-07-14T09:05:51Z</time>
      </trkpt>
      <trkpt lat="44.53436" lon="6.22307">
        <ele>1015.61</ele>
        <time>2015-07-14T09:06:10Z</time>
      </trkpt>
      <trkpt lat="44.53405" lon="6.22317">
        <ele>1018.1</ele>
        <time>2015-07-14T09:06:32Z</time>
      </trkpt>
      <trkpt lat="44.53376" lon="6.22326">
        <ele>1020.72</ele>
        <time>2015-07-14T09:06:53Z</time>
      </trkpt>
      <trkpt lat="44.53354" lon="6.22312">
        <ele>1022.34</ele>
        <time>2015-07-14T09:07:10Z</time>
      </trkpt>
      <trkpt lat="44.53337" lon="6.22287">
        <ele>1024.81</ele>
        <time>2015-07-14T09:07:30Z</time>
      </trkpt>
      <trkpt lat="44.53333" lon="6.22283">
        <ele>1025.48</ele>
        <time>2015-07-14T09:07:34Z</time>
      </trkpt>
      <trkpt lat="44.53332" lon="6.22282">
        <ele>1025.67</ele>
        <time>2015-07-14T09:07:35Z</time>
      </trkpt>
      <trkpt lat="44.5333" lon="6.22282">
        <ele>1025.85</ele>
        <time>2015-07-14T09:07:36Z</time>
      </trkpt>
      <trkpt lat="44.53329" lon="6.22283">
        <ele>1026</ele>
        <time>2015-07-14T09:07:37Z</time>
      </trkpt>
      <trkpt lat="44.53328" lon="6.22284">
        <ele>1026.12</ele>
        <time>2015-07-14T09:07:38Z</time>
      </trkpt>
      <trkpt lat="44.53327" lon="6.22285">
        <ele>1026.22</ele>
        <time>2015-07-14T09:07:39Z</time>
      </trkpt>
      <trkpt lat="44.53328" lon="6.22287">
        <ele>1027</ele>
        <time>2015-07-14T09:07:53Z</time>
      </trkpt>
      <trkpt lat="44.53329" lon="6.22291">
        <ele>1026.46</ele>
        <time>2015-07-14T09:08:45Z</time>
      </trkpt>
      <trkpt lat="44.53331" lon="6.22284">
        <ele>1027.42</ele>
        <time>2015-07-14T09:10:30Z</time>
      </trkpt>
      <trkpt lat="44.53333" lon="6.22289">
        <ele>1027.81</ele>
        <time>2015-07-14T09:12:02Z</time>
      </trkpt>
      <trkpt lat="44.53333" lon="6.2229">
        <ele>1027.48</ele>
        <time>2015-07-14T09:12:37Z</time>
      </trkpt>
      <trkpt lat="44.53335" lon="6.2229">
        <ele>1027.57</ele>
        <time>2015-07-14T09:13:11Z</time>
      </trkpt>
      <trkpt lat="44.53333" lon="6.22286">
        <ele>1028.17</ele>
        <time>2015-07-14T09:14:23Z</time>
      </trkpt>
      <trkpt lat="44.5333" lon="6.22285">
        <ele>1028.49</ele>
        <time>2015-07-14T09:14:51Z</time>
      </trkpt>
      <trkpt lat="44.53329" lon="6.2229">
        <ele>1028.41</ele>
        <time>2015-07-14T09:15:08Z</time>
      </trkpt>
      <trkpt lat="44.53324" lon="6.22307">
        <ele>1028.96</ele>
        <time>2015-07-14T09:15:21Z</time>
      </trkpt>
      <trkpt lat="44.53302" lon="6.22329">
        <ele>1030.86</ele>
        <time>2015-07-14T09:15:39Z</time>
      </trkpt>
      <trkpt lat="44.53285" lon="6.22349">
        <ele>1033.08</ele>
        <time>2015-07-14T09:15:56Z</time>
      </trkpt>
      <trkpt lat="44.53268" lon="6.22378">
        <ele>1034.44</ele>
        <time>2015-07-14T09:16:16Z</time>
      </trkpt>
      <trkpt lat="44.53267" lon="6.2238">
        <ele>1034.54</ele>
        <time>2015-07-14T09:16:17Z</time>
      </trkpt>
      <trkpt lat="44.53266" lon="6.22381">
        <ele>1034.65</ele>
        <time>2015-07-14T09:16:18Z</time>
      </trkpt>
      <trkpt lat="44.53266" lon="6.22382">
        <ele>1034.72</ele>
        <time>2015-07-14T09:16:19Z</time>
      </trkpt>
      <trkpt lat="44.53265" lon="6.22384">
        <ele>1034.81</ele>
        <time>2015-07-14T09:16:20Z</time>
      </trkpt>
      <trkpt lat="44.53264" lon="6.22395">
        <ele>1035.59</ele>
        <time>2015-07-14T09:16:28Z</time>
      </trkpt>
      <trkpt lat="44.53264" lon="6.22397">
        <ele>1035.72</ele>
        <time>2015-07-14T09:16:29Z</time>
      </trkpt>
      <trkpt lat="44.53264" lon="6.22398">
        <ele>1035.87</ele>
        <time>2015-07-14T09:16:30Z</time>
      </trkpt>
      <trkpt lat="44.53269" lon="6.22421">
        <ele>1038.16</ele>
        <time>2015-07-14T09:16:44Z</time>
      </trkpt>
      <trkpt lat="44.53274" lon="6.22445">
        <ele>1040.75</ele>
        <time>2015-07-14T09:17:00Z</time>
      </trkpt>
      <trkpt lat="44.53275" lon="6.2246">
        <ele>1042.68</ele>
        <time>2015-07-14T09:17:10Z</time>
      </trkpt>
      <trkpt lat="44.53275" lon="6.22461">
        <ele>1042.85</ele>
        <time>2015-07-14T09:17:11Z</time>
      </trkpt>
      <trkpt lat="44.53273" lon="6.22475">
        <ele>1044.99</ele>
        <time>2015-07-14T09:17:24Z</time>
      </trkpt>
      <trkpt lat="44.53271" lon="6.22493">
        <ele>1046.63</ele>
        <time>2015-07-14T09:17:42Z</time>
      </trkpt>
      <trkpt lat="44.53263" lon="6.22515">
        <ele>1049.73</ele>
        <time>2015-07-14T09:18:02Z</time>
      </trkpt>
      <trkpt lat="44.53268" lon="6.22536">
        <ele>1052.74</ele>
        <time>2015-07-14T09:18:22Z</time>
      </trkpt>
      <trkpt lat="44.53275" lon="6.22546">
        <ele>1053.8</ele>
        <time>2015-07-14T09:18:32Z</time>
      </trkpt>
      <trkpt lat="44.53275" lon="6.22547">
        <ele>1053.9</ele>
        <time>2015-07-14T09:18:33Z</time>
      </trkpt>
      <trkpt lat="44.53287" lon="6.22571">
        <ele>1056.27</ele>
        <time>2015-07-14T09:18:54Z</time>
      </trkpt>
      <trkpt lat="44.53301" lon="6.22594">
        <ele>1057.9</ele>
        <time>2015-07-14T09:19:10Z</time>
      </trkpt>
      <trkpt lat="44.53309" lon="6.226">
        <ele>1058.43</ele>
        <time>2015-07-14T09:19:35Z</time>
      </trkpt>
      <trkpt lat="44.5331" lon="6.22602">
        <ele>1058.48</ele>
        <time>2015-07-14T09:19:36Z</time>
      </trkpt>
      <trkpt lat="44.53311" lon="6.22603">
        <ele>1058.52</ele>
        <time>2015-07-14T09:19:37Z</time>
      </trkpt>
      <trkpt lat="44.53313" lon="6.22605">
        <ele>1058.58</ele>
        <time>2015-07-14T09:19:38Z</time>
      </trkpt>
      <trkpt lat="44.53314" lon="6.22606">
        <ele>1058.58</ele>
        <time>2015-07-14T09:19:39Z</time>
      </trkpt>
      <trkpt lat="44.53315" lon="6.22608">
        <ele>1058.65</ele>
        <time>2015-07-14T09:19:40Z</time>
      </trkpt>
      <trkpt lat="44.53316" lon="6.22609">
        <ele>1058.69</ele>
        <time>2015-07-14T09:19:41Z</time>
      </trkpt>
      <trkpt lat="44.53318" lon="6.22611">
        <ele>1058.73</ele>
        <time>2015-07-14T09:19:42Z</time>
      </trkpt>
      <trkpt lat="44.5332" lon="6.22612">
        <ele>1058.76</ele>
        <time>2015-07-14T09:19:43Z</time>
      </trkpt>
      <trkpt lat="44.53321" lon="6.22613">
        <ele>1058.8</ele>
        <time>2015-07-14T09:19:44Z</time>
      </trkpt>
      <trkpt lat="44.53344" lon="6.22628">
        <ele>1059.62</ele>
        <time>2015-07-14T09:19:58Z</time>
      </trkpt>
      <trkpt lat="44.53347" lon="6.22637">
        <ele>1059.91</ele>
        <time>2015-07-14T09:20:02Z</time>
      </trkpt>
      <trkpt lat="44.53347" lon="6.22641">
        <ele>1059.99</ele>
        <time>2015-07-14T09:20:03Z</time>
      </trkpt>
      <trkpt lat="44.53351" lon="6.2268">
        <ele>1060.14</ele>
        <time>2015-07-14T09:20:12Z</time>
      </trkpt>
      <trkpt lat="44.53353" lon="6.22687">
        <ele>1060.15</ele>
        <time>2015-07-14T09:20:13Z</time>
      </trkpt>
      <trkpt lat="44.53359" lon="6.22716">
        <ele>1060.03</ele>
        <time>2015-07-14T09:20:17Z</time>
      </trkpt>
      <trkpt lat="44.5336" lon="6.22723">
        <ele>1059.96</ele>
        <time>2015-07-14T09:20:18Z</time>
      </trkpt>
      <trkpt lat="44.53367" lon="6.22785">
        <ele>1058.77</ele>
        <time>2015-07-14T09:20:25Z</time>
      </trkpt>
      <trkpt lat="44.53367" lon="6.22794">
        <ele>1058.43</ele>
        <time>2015-07-14T09:20:26Z</time>
      </trkpt>
      <trkpt lat="44.53368" lon="6.22803">
        <ele>1058.13</ele>
        <time>2015-07-14T09:20:27Z</time>
      </trkpt>
      <trkpt lat="44.53377" lon="6.22858">
        <ele>1057.26</ele>
        <time>2015-07-14T09:20:34Z</time>
      </trkpt>
      <trkpt lat="44.53378" lon="6.22864">
        <ele>1057.29</ele>
        <time>2015-07-14T09:20:35Z</time>
      </trkpt>
      <trkpt lat="44.5338" lon="6.22871">
        <ele>1057.36</ele>
        <time>2015-07-14T09:20:36Z</time>
      </trkpt>
      <trkpt lat="44.53387" lon="6.22894">
        <ele>1058.55</ele>
        <time>2015-07-14T09:20:44Z</time>
      </trkpt>
      <trkpt lat="44.53394" lon="6.22899">
        <ele>1059.12</ele>
        <time>2015-07-14T09:20:53Z</time>
      </trkpt>
      <trkpt lat="44.53396" lon="6.22901">
        <ele>1059.14</ele>
        <time>2015-07-14T09:20:54Z</time>
      </trkpt>
      <trkpt lat="44.53397" lon="6.22903">
        <ele>1059.15</ele>
        <time>2015-07-14T09:20:55Z</time>
      </trkpt>
      <trkpt lat="44.53399" lon="6.22904">
        <ele>1059.14</ele>
        <time>2015-07-14T09:20:56Z</time>
      </trkpt>
      <trkpt lat="44.53401" lon="6.22907">
        <ele>1059.12</ele>
        <time>2015-07-14T09:20:57Z</time>
      </trkpt>
      <trkpt lat="44.53404" lon="6.2291">
        <ele>1059.08</ele>
        <time>2015-07-14T09:20:58Z</time>
      </trkpt>
      <trkpt lat="44.53407" lon="6.22913">
        <ele>1059</ele>
        <time>2015-07-14T09:20:59Z</time>
      </trkpt>
      <trkpt lat="44.53409" lon="6.22917">
        <ele>1058.88</ele>
        <time>2015-07-14T09:21:00Z</time>
      </trkpt>
      <trkpt lat="44.5341" lon="6.22921">
        <ele>1058.76</ele>
        <time>2015-07-14T09:21:01Z</time>
      </trkpt>
      <trkpt lat="44.53412" lon="6.22924">
        <ele>1058.66</ele>
        <time>2015-07-14T09:21:02Z</time>
      </trkpt>
      <trkpt lat="44.53414" lon="6.22927">
        <ele>1058.55</ele>
        <time>2015-07-14T09:21:03Z</time>
      </trkpt>
      <trkpt lat="44.53415" lon="6.22931">
        <ele>1058.47</ele>
        <time>2015-07-14T09:21:04Z</time>
      </trkpt>
      <trkpt lat="44.53418" lon="6.22934">
        <ele>1058.38</ele>
        <time>2015-07-14T09:21:05Z</time>
      </trkpt>
      <trkpt lat="44.53426" lon="6.2294">
        <ele>1058.25</ele>
        <time>2015-07-14T09:21:07Z</time>
      </trkpt>
      <trkpt lat="44.53437" lon="6.22951">
        <ele>1057.73</ele>
        <time>2015-07-14T09:21:10Z</time>
      </trkpt>
      <trkpt lat="44.53443" lon="6.22965">
        <ele>1056.97</ele>
        <time>2015-07-14T09:21:13Z</time>
      </trkpt>
      <trkpt lat="44.53459" lon="6.22984">
        <ele>1054.76</ele>
        <time>2015-07-14T09:21:17Z</time>
      </trkpt>
      <trkpt lat="44.53473" lon="6.22994">
        <ele>1051.93</ele>
        <time>2015-07-14T09:21:22Z</time>
      </trkpt>
      <trkpt lat="44.53473" lon="6.23">
        <ele>1050.99</ele>
        <time>2015-07-14T09:21:36Z</time>
      </trkpt>
      <trkpt lat="44.53476" lon="6.23003">
        <ele>1051.01</ele>
        <time>2015-07-14T09:21:42Z</time>
      </trkpt>
      <trkpt lat="44.53491" lon="6.23022">
        <ele>1050.25</ele>
        <time>2015-07-14T09:21:48Z</time>
      </trkpt>
      <trkpt lat="44.53499" lon="6.23033">
        <ele>1048.32</ele>
        <time>2015-07-14T09:21:51Z</time>
      </trkpt>
      <trkpt lat="44.53501" lon="6.23047">
        <ele>1044.22</ele>
        <time>2015-07-14T09:21:56Z</time>
      </trkpt>
      <trkpt lat="44.5351" lon="6.23064">
        <ele>1040.97</ele>
        <time>2015-07-14T09:22:01Z</time>
      </trkpt>
      <trkpt lat="44.53513" lon="6.23071">
        <ele>1039.77</ele>
        <time>2015-07-14T09:22:03Z</time>
      </trkpt>
      <trkpt lat="44.53518" lon="6.23092">
        <ele>1035.95</ele>
        <time>2015-07-14T09:22:08Z</time>
      </trkpt>
      <trkpt lat="44.5352" lon="6.23096">
        <ele>1035.95</ele>
        <time>2015-07-14T09:22:09Z</time>
      </trkpt>
      <trkpt lat="44.53528" lon="6.23111">
        <ele>1032.98</ele>
        <time>2015-07-14T09:22:13Z</time>
      </trkpt>
      <trkpt lat="44.53532" lon="6.23136">
        <ele>1029.3</ele>
        <time>2015-07-14T09:22:19Z</time>
      </trkpt>
      <trkpt lat="44.53535" lon="6.23139">
        <ele>1028.79</ele>
        <time>2015-07-14T09:22:20Z</time>
      </trkpt>
      <trkpt lat="44.53548" lon="6.23166">
        <ele>1025.49</ele>
        <time>2015-07-14T09:22:26Z</time>
      </trkpt>
      <trkpt lat="44.53566" lon="6.23204">
        <ele>1021.58</ele>
        <time>2015-07-14T09:22:32Z</time>
      </trkpt>
      <trkpt lat="44.53571" lon="6.23211">
        <ele>1020.96</ele>
        <time>2015-07-14T09:22:33Z</time>
      </trkpt>
      <trkpt lat="44.53578" lon="6.23228">
        <ele>1019.76</ele>
        <time>2015-07-14T09:22:35Z</time>
      </trkpt>
      <trkpt lat="44.53584" lon="6.23245">
        <ele>1018.13</ele>
        <time>2015-07-14T09:22:37Z</time>
      </trkpt>
      <trkpt lat="44.53591" lon="6.23274">
        <ele>1017.13</ele>
        <time>2015-07-14T09:22:40Z</time>
      </trkpt>
      <trkpt lat="44.53592" lon="6.23306">
        <ele>1016.64</ele>
        <time>2015-07-14T09:22:45Z</time>
      </trkpt>
      <trkpt lat="44.53595" lon="6.23322">
        <ele>1016.6</ele>
        <time>2015-07-14T09:22:47Z</time>
      </trkpt>
      <trkpt lat="44.53611" lon="6.23369">
        <ele>1015.69</ele>
        <time>2015-07-14T09:22:55Z</time>
      </trkpt>
      <trkpt lat="44.53614" lon="6.23378">
        <ele>1015.7</ele>
        <time>2015-07-14T09:22:57Z</time>
      </trkpt>
      <trkpt lat="44.53628" lon="6.23431">
        <ele>1017.07</ele>
        <time>2015-07-14T09:23:11Z</time>
      </trkpt>
      <trkpt lat="44.53638" lon="6.23485">
        <ele>1019.34</ele>
        <time>2015-07-14T09:23:25Z</time>
      </trkpt>
      <trkpt lat="44.5364" lon="6.23533">
        <ele>1020.51</ele>
        <time>2015-07-14T09:23:40Z</time>
      </trkpt>
      <trkpt lat="44.5364" lon="6.23582">
        <ele>1021.94</ele>
        <time>2015-07-14T09:23:56Z</time>
      </trkpt>
      <trkpt lat="44.53643" lon="6.23636">
        <ele>1022.81</ele>
        <time>2015-07-14T09:24:11Z</time>
      </trkpt>
      <trkpt lat="44.53639" lon="6.23653">
        <ele>1022.41</ele>
        <time>2015-07-14T09:24:21Z</time>
      </trkpt>
      <trkpt lat="44.53639" lon="6.23653">
        <ele>1022.18</ele>
        <time>2015-07-14T09:24:35Z</time>
      </trkpt>
      <trkpt lat="44.53627" lon="6.2367">
        <ele>1021.96</ele>
        <time>2015-07-14T09:24:41Z</time>
      </trkpt>
      <trkpt lat="44.53625" lon="6.23672">
        <ele>1021.73</ele>
        <time>2015-07-14T09:24:42Z</time>
      </trkpt>
      <trkpt lat="44.53623" lon="6.23674">
        <ele>1021.53</ele>
        <time>2015-07-14T09:24:43Z</time>
      </trkpt>
      <trkpt lat="44.53622" lon="6.23675">
        <ele>1021.33</ele>
        <time>2015-07-14T09:24:44Z</time>
      </trkpt>
      <trkpt lat="44.53621" lon="6.23679">
        <ele>1020.65</ele>
        <time>2015-07-14T09:24:47Z</time>
      </trkpt>
      <trkpt lat="44.53632" lon="6.23678">
        <ele>1019.27</ele>
        <time>2015-07-14T09:24:53Z</time>
      </trkpt>
      <trkpt lat="44.53636" lon="6.23678">
        <ele>1019.03</ele>
        <time>2015-07-14T09:24:54Z</time>
      </trkpt>
      <trkpt lat="44.53655" lon="6.23691">
        <ele>1017.53</ele>
        <time>2015-07-14T09:24:59Z</time>
      </trkpt>
      <trkpt lat="44.53659" lon="6.23699">
        <ele>1016.8</ele>
        <time>2015-07-14T09:25:01Z</time>
      </trkpt>
      <trkpt lat="44.53681" lon="6.23725">
        <ele>1013.87</ele>
        <time>2015-07-14T09:25:07Z</time>
      </trkpt>
      <trkpt lat="44.53716" lon="6.23768">
        <ele>1010.18</ele>
        <time>2015-07-14T09:25:14Z</time>
      </trkpt>
      <trkpt lat="44.53731" lon="6.23785">
        <ele>1008.09</ele>
        <time>2015-07-14T09:25:19Z</time>
      </trkpt>
      <trkpt lat="44.53734" lon="6.23796">
        <ele>1007.1</ele>
        <time>2015-07-14T09:25:23Z</time>
      </trkpt>
      <trkpt lat="44.53739" lon="6.23827">
        <ele>1008.37</ele>
        <time>2015-07-14T09:25:35Z</time>
      </trkpt>
      <trkpt lat="44.5374" lon="6.23837">
        <ele>1009.41</ele>
        <time>2015-07-14T09:25:40Z</time>
      </trkpt>
      <trkpt lat="44.5374" lon="6.23845">
        <ele>1010.34</ele>
        <time>2015-07-14T09:25:44Z</time>
      </trkpt>
      <trkpt lat="44.53736" lon="6.23855">
        <ele>1011.96</ele>
        <time>2015-07-14T09:25:54Z</time>
      </trkpt>
      <trkpt lat="44.53736" lon="6.23868">
        <ele>1012.08</ele>
        <time>2015-07-14T09:26:00Z</time>
      </trkpt>
      <trkpt lat="44.53739" lon="6.23873">
        <ele>1012.08</ele>
        <time>2015-07-14T09:26:02Z</time>
      </trkpt>
      <trkpt lat="44.53734" lon="6.23889">
        <ele>1011.98</ele>
        <time>2015-07-14T09:26:07Z</time>
      </trkpt>
      <trkpt lat="44.53721" lon="6.23917">
        <ele>1011.4</ele>
        <time>2015-07-14T09:26:15Z</time>
      </trkpt>
      <trkpt lat="44.53711" lon="6.23928">
        <ele>1010.78</ele>
        <time>2015-07-14T09:26:20Z</time>
      </trkpt>
      <trkpt lat="44.53715" lon="6.23955">
        <ele>1011.18</ele>
        <time>2015-07-14T09:26:29Z</time>
      </trkpt>
      <trkpt lat="44.53714" lon="6.23981">
        <ele>1012.61</ele>
        <time>2015-07-14T09:26:38Z</time>
      </trkpt>
      <trkpt lat="44.53709" lon="6.24042">
        <ele>1013.93</ele>
        <time>2015-07-14T09:26:55Z</time>
      </trkpt>
      <trkpt lat="44.53708" lon="6.24073">
        <ele>1014.08</ele>
        <time>2015-07-14T09:27:05Z</time>
      </trkpt>
      <trkpt lat="44.53702" lon="6.24086">
        <ele>1014.64</ele>
        <time>2015-07-14T09:27:12Z</time>
      </trkpt>
      <trkpt lat="44.53712" lon="6.24123">
        <ele>1015.24</ele>
        <time>2015-07-14T09:27:24Z</time>
      </trkpt>
      <trkpt lat="44.53717" lon="6.24168">
        <ele>1015.19</ele>
        <time>2015-07-14T09:27:35Z</time>
      </trkpt>
      <trkpt lat="44.53699" lon="6.24183">
        <ele>1015.39</ele>
        <time>2015-07-14T09:27:44Z</time>
      </trkpt>
      <trkpt lat="44.53665" lon="6.24192">
        <ele>1016.81</ele>
        <time>2015-07-14T09:27:58Z</time>
      </trkpt>
      <trkpt lat="44.5366" lon="6.2421">
        <ele>1017.21</ele>
        <time>2015-07-14T09:28:04Z</time>
      </trkpt>
      <trkpt lat="44.5366" lon="6.24213">
        <ele>1017.26</ele>
        <time>2015-07-14T09:28:05Z</time>
      </trkpt>
      <trkpt lat="44.5366" lon="6.24217">
        <ele>1017.31</ele>
        <time>2015-07-14T09:28:06Z</time>
      </trkpt>
      <trkpt lat="44.53665" lon="6.24266">
        <ele>1018.65</ele>
        <time>2015-07-14T09:28:20Z</time>
      </trkpt>
      <trkpt lat="44.53677" lon="6.24303">
        <ele>1019.93</ele>
        <time>2015-07-14T09:28:33Z</time>
      </trkpt>
      <trkpt lat="44.53667" lon="6.24358">
        <ele>1022.38</ele>
        <time>2015-07-14T09:28:51Z</time>
      </trkpt>
      <trkpt lat="44.53662" lon="6.2441">
        <ele>1024.44</ele>
        <time>2015-07-14T09:29:08Z</time>
      </trkpt>
      <trkpt lat="44.53659" lon="6.24449">
        <ele>1026.24</ele>
        <time>2015-07-14T09:29:25Z</time>
      </trkpt>
      <trkpt lat="44.53653" lon="6.24478">
        <ele>1028.55</ele>
        <time>2015-07-14T09:29:39Z</time>
      </trkpt>
      <trkpt lat="44.53644" lon="6.24508">
        <ele>1031.05</ele>
        <time>2015-07-14T09:29:53Z</time>
      </trkpt>
      <trkpt lat="44.53637" lon="6.24545">
        <ele>1032.75</ele>
        <time>2015-07-14T09:30:09Z</time>
      </trkpt>
      <trkpt lat="44.53625" lon="6.24575">
        <ele>1034.86</ele>
        <time>2015-07-14T09:30:23Z</time>
      </trkpt>
      <trkpt lat="44.53598" lon="6.2461">
        <ele>1035.21</ele>
        <time>2015-07-14T09:30:38Z</time>
      </trkpt>
      <trkpt lat="44.5358" lon="6.24637">
        <ele>1034.47</ele>
        <time>2015-07-14T09:30:44Z</time>
      </trkpt>
      <trkpt lat="44.53577" lon="6.24644">
        <ele>1034.25</ele>
        <time>2015-07-14T09:30:45Z</time>
      </trkpt>
      <trkpt lat="44.53574" lon="6.24651">
        <ele>1033.98</ele>
        <time>2015-07-14T09:30:46Z</time>
      </trkpt>
      <trkpt lat="44.53567" lon="6.24672">
        <ele>1032.59</ele>
        <time>2015-07-14T09:30:49Z</time>
      </trkpt>
      <trkpt lat="44.5356" lon="6.24692">
        <ele>1031.55</ele>
        <time>2015-07-14T09:30:52Z</time>
      </trkpt>
      <trkpt lat="44.53546" lon="6.24731">
        <ele>1030.02</ele>
        <time>2015-07-14T09:30:58Z</time>
      </trkpt>
      <trkpt lat="44.53548" lon="6.24767">
        <ele>1028.25</ele>
        <time>2015-07-14T09:31:05Z</time>
      </trkpt>
      <trkpt lat="44.53546" lon="6.24778">
        <ele>1027.99</ele>
        <time>2015-07-14T09:31:07Z</time>
      </trkpt>
      <trkpt lat="44.53538" lon="6.24798">
        <ele>1027.52</ele>
        <time>2015-07-14T09:31:11Z</time>
      </trkpt>
      <trkpt lat="44.53523" lon="6.24827">
        <ele>1027.24</ele>
        <time>2015-07-14T09:31:22Z</time>
      </trkpt>
      <trkpt lat="44.5353" lon="6.24846">
        <ele>1027.15</ele>
        <time>2015-07-14T09:31:29Z</time>
      </trkpt>
      <trkpt lat="44.53527" lon="6.24874">
        <ele>1027.79</ele>
        <time>2015-07-14T09:31:38Z</time>
      </trkpt>
      <trkpt lat="44.53514" lon="6.24922">
        <ele>1028.96</ele>
        <time>2015-07-14T09:31:54Z</time>
      </trkpt>
      <trkpt lat="44.53493" lon="6.24955">
        <ele>1029.62</ele>
        <time>2015-07-14T09:32:08Z</time>
      </trkpt>
      <trkpt lat="44.53492" lon="6.24961">
        <ele>1029.6</ele>
        <time>2015-07-14T09:32:18Z</time>
      </trkpt>
      <trkpt lat="44.53496" lon="6.24959">
        <ele>1029.58</ele>
        <time>2015-07-14T09:32:52Z</time>
      </trkpt>
      <trkpt lat="44.53504" lon="6.24958">
        <ele>1029.66</ele>
        <time>2015-07-14T09:33:25Z</time>
      </trkpt>
      <trkpt lat="44.53503" lon="6.24961">
        <ele>1029.58</ele>
        <time>2015-07-14T09:33:49Z</time>
      </trkpt>
      <trkpt lat="44.53502" lon="6.24967">
        <ele>1029.51</ele>
        <time>2015-07-14T09:33:53Z</time>
      </trkpt>
      <trkpt lat="44.53502" lon="6.24969">
        <ele>1029.5</ele>
        <time>2015-07-14T09:33:54Z</time>
      </trkpt>
      <trkpt lat="44.53501" lon="6.24972">
        <ele>1029.49</ele>
        <time>2015-07-14T09:33:55Z</time>
      </trkpt>
      <trkpt lat="44.535" lon="6.24974">
        <ele>1029.48</ele>
        <time>2015-07-14T09:33:56Z</time>
      </trkpt>
      <trkpt lat="44.53498" lon="6.24976">
        <ele>1029.48</ele>
        <time>2015-07-14T09:33:57Z</time>
      </trkpt>
      <trkpt lat="44.53497" lon="6.24978">
        <ele>1029.51</ele>
        <time>2015-07-14T09:33:58Z</time>
      </trkpt>
      <trkpt lat="44.53495" lon="6.2498">
        <ele>1029.55</ele>
        <time>2015-07-14T09:33:59Z</time>
      </trkpt>
      <trkpt lat="44.53473" lon="6.25015">
        <ele>1031.34</ele>
        <time>2015-07-14T09:34:15Z</time>
      </trkpt>
      <trkpt lat="44.53461" lon="6.25034">
        <ele>1032.52</ele>
        <time>2015-07-14T09:34:24Z</time>
      </trkpt>
      <trkpt lat="44.53453" lon="6.25042">
        <ele>1033.24</ele>
        <time>2015-07-14T09:34:31Z</time>
      </trkpt>
      <trkpt lat="44.53452" lon="6.25043">
        <ele>1033.38</ele>
        <time>2015-07-14T09:34:32Z</time>
      </trkpt>
      <trkpt lat="44.5344" lon="6.25051">
        <ele>1034.46</ele>
        <time>2015-07-14T09:34:42Z</time>
      </trkpt>
      <trkpt lat="44.53436" lon="6.25055">
        <ele>1035.13</ele>
        <time>2015-07-14T09:34:46Z</time>
      </trkpt>
      <trkpt lat="44.53429" lon="6.25059">
        <ele>1036.11</ele>
        <time>2015-07-14T09:34:51Z</time>
      </trkpt>
      <trkpt lat="44.53416" lon="6.25065">
        <ele>1037.16</ele>
        <time>2015-07-14T09:34:58Z</time>
      </trkpt>
      <trkpt lat="44.53414" lon="6.25066">
        <ele>1037.32</ele>
        <time>2015-07-14T09:34:59Z</time>
      </trkpt>
      <trkpt lat="44.53412" lon="6.25067">
        <ele>1037.47</ele>
        <time>2015-07-14T09:35:00Z</time>
      </trkpt>
      <trkpt lat="44.53411" lon="6.25067">
        <ele>1037.61</ele>
        <time>2015-07-14T09:35:01Z</time>
      </trkpt>
      <trkpt lat="44.53409" lon="6.25068">
        <ele>1037.76</ele>
        <time>2015-07-14T09:35:02Z</time>
      </trkpt>
      <trkpt lat="44.53408" lon="6.25069">
        <ele>1037.93</ele>
        <time>2015-07-14T09:35:03Z</time>
      </trkpt>
      <trkpt lat="44.53406" lon="6.2507">
        <ele>1038.09</ele>
        <time>2015-07-14T09:35:04Z</time>
      </trkpt>
      <trkpt lat="44.53402" lon="6.2507">
        <ele>1038.36</ele>
        <time>2015-07-14T09:35:06Z</time>
      </trkpt>
      <trkpt lat="44.534" lon="6.25071">
        <ele>1038.48</ele>
        <time>2015-07-14T09:35:07Z</time>
      </trkpt>
      <trkpt lat="44.53392" lon="6.25073">
        <ele>1038.95</ele>
        <time>2015-07-14T09:35:12Z</time>
      </trkpt>
      <trkpt lat="44.5339" lon="6.25075">
        <ele>1039</ele>
        <time>2015-07-14T09:35:13Z</time>
      </trkpt>
      <trkpt lat="44.53388" lon="6.25077">
        <ele>1039.02</ele>
        <time>2015-07-14T09:35:14Z</time>
      </trkpt>
      <trkpt lat="44.53385" lon="6.25082">
        <ele>1039.03</ele>
        <time>2015-07-14T09:35:16Z</time>
      </trkpt>
      <trkpt lat="44.53384" lon="6.25085">
        <ele>1039</ele>
        <time>2015-07-14T09:35:17Z</time>
      </trkpt>
      <trkpt lat="44.53379" lon="6.25094">
        <ele>1038.92</ele>
        <time>2015-07-14T09:35:21Z</time>
      </trkpt>
      <trkpt lat="44.53364" lon="6.25105">
        <ele>1040.26</ele>
        <time>2015-07-14T09:35:32Z</time>
      </trkpt>
      <trkpt lat="44.53351" lon="6.25121">
        <ele>1043.27</ele>
        <time>2015-07-14T09:35:49Z</time>
      </trkpt>
      <trkpt lat="44.5335" lon="6.25122">
        <ele>1043.48</ele>
        <time>2015-07-14T09:35:50Z</time>
      </trkpt>
      <trkpt lat="44.53337" lon="6.25141">
        <ele>1046.81</ele>
        <time>2015-07-14T09:36:08Z</time>
      </trkpt>
      <trkpt lat="44.53334" lon="6.25148">
        <ele>1047.93</ele>
        <time>2015-07-14T09:36:14Z</time>
      </trkpt>
      <trkpt lat="44.53325" lon="6.25157">
        <ele>1049.88</ele>
        <time>2015-07-14T09:36:29Z</time>
      </trkpt>
      <trkpt lat="44.53325" lon="6.25158">
        <ele>1049.99</ele>
        <time>2015-07-14T09:36:30Z</time>
      </trkpt>
      <trkpt lat="44.5331" lon="6.25158">
        <ele>1052.86</ele>
        <time>2015-07-14T09:36:46Z</time>
      </trkpt>
      <trkpt lat="44.53295" lon="6.25164">
        <ele>1054.43</ele>
        <time>2015-07-14T09:37:02Z</time>
      </trkpt>
      <trkpt lat="44.53278" lon="6.25167">
        <ele>1057.12</ele>
        <time>2015-07-14T09:37:22Z</time>
      </trkpt>
      <trkpt lat="44.53275" lon="6.25167">
        <ele>1058.39</ele>
        <time>2015-07-14T09:37:35Z</time>
      </trkpt>
      <trkpt lat="44.5327" lon="6.25164">
        <ele>1058.63</ele>
        <time>2015-07-14T09:38:07Z</time>
      </trkpt>
      <trkpt lat="44.53267" lon="6.25162">
        <ele>1058.57</ele>
        <time>2015-07-14T09:38:10Z</time>
      </trkpt>
      <trkpt lat="44.5326" lon="6.25165">
        <ele>1059.06</ele>
        <time>2015-07-14T09:38:15Z</time>
      </trkpt>
      <trkpt lat="44.53252" lon="6.25172">
        <ele>1059.96</ele>
        <time>2015-07-14T09:38:21Z</time>
      </trkpt>
      <trkpt lat="44.53241" lon="6.25182">
        <ele>1062.01</ele>
        <time>2015-07-14T09:38:29Z</time>
      </trkpt>
      <trkpt lat="44.53225" lon="6.25194">
        <ele>1064.44</ele>
        <time>2015-07-14T09:38:42Z</time>
      </trkpt>
      <trkpt lat="44.53222" lon="6.25197">
        <ele>1064.68</ele>
        <time>2015-07-14T09:38:44Z</time>
      </trkpt>
      <trkpt lat="44.53208" lon="6.25212">
        <ele>1067.11</ele>
        <time>2015-07-14T09:38:59Z</time>
      </trkpt>
      <trkpt lat="44.53196" lon="6.25231">
        <ele>1070.23</ele>
        <time>2015-07-14T09:39:14Z</time>
      </trkpt>
      <trkpt lat="44.53193" lon="6.25236">
        <ele>1070.85</ele>
        <time>2015-07-14T09:39:18Z</time>
      </trkpt>
      <trkpt lat="44.53184" lon="6.25251">
        <ele>1072.69</ele>
        <time>2015-07-14T09:39:31Z</time>
      </trkpt>
      <trkpt lat="44.53186" lon="6.25273">
        <ele>1072.47</ele>
        <time>2015-07-14T09:39:40Z</time>
      </trkpt>
      <trkpt lat="44.53185" lon="6.25275">
        <ele>1072.3</ele>
        <time>2015-07-14T09:39:41Z</time>
      </trkpt>
      <trkpt lat="44.53201" lon="6.25304">
        <ele>1068.77</ele>
        <time>2015-07-14T09:39:51Z</time>
      </trkpt>
      <trkpt lat="44.5321" lon="6.25336">
        <ele>1064.88</ele>
        <time>2015-07-14T09:39:59Z</time>
      </trkpt>
      <trkpt lat="44.53211" lon="6.25359">
        <ele>1061.39</ele>
        <time>2015-07-14T09:40:05Z</time>
      </trkpt>
      <trkpt lat="44.53209" lon="6.2537">
        <ele>1060.27</ele>
        <time>2015-07-14T09:40:07Z</time>
      </trkpt>
      <trkpt lat="44.53201" lon="6.25399">
        <ele>1056.58</ele>
        <time>2015-07-14T09:40:13Z</time>
      </trkpt>
      <trkpt lat="44.532" lon="6.25418">
        <ele>1053.11</ele>
        <time>2015-07-14T09:40:18Z</time>
      </trkpt>
      <trkpt lat="44.53201" lon="6.25445">
        <ele>1049.87</ele>
        <time>2015-07-14T09:40:25Z</time>
      </trkpt>
      <trkpt lat="44.53205" lon="6.25453">
        <ele>1049.02</ele>
        <time>2015-07-14T09:40:27Z</time>
      </trkpt>
      <trkpt lat="44.53227" lon="6.25489">
        <ele>1045.53</ele>
        <time>2015-07-14T09:40:35Z</time>
      </trkpt>
      <trkpt lat="44.53233" lon="6.25497">
        <ele>1044.84</ele>
        <time>2015-07-14T09:40:37Z</time>
      </trkpt>
      <trkpt lat="44.53237" lon="6.25548">
        <ele>1042.04</ele>
        <time>2015-07-14T09:40:50Z</time>
      </trkpt>
      <trkpt lat="44.53237" lon="6.25553">
        <ele>1041.68</ele>
        <time>2015-07-14T09:40:52Z</time>
      </trkpt>
      <trkpt lat="44.53235" lon="6.25555">
        <ele>1041.55</ele>
        <time>2015-07-14T09:40:53Z</time>
      </trkpt>
      <trkpt lat="44.53233" lon="6.25555">
        <ele>1041.46</ele>
        <time>2015-07-14T09:40:54Z</time>
      </trkpt>
      <trkpt lat="44.53232" lon="6.25556">
        <ele>1041.41</ele>
        <time>2015-07-14T09:40:55Z</time>
      </trkpt>
      <trkpt lat="44.53231" lon="6.25557">
        <ele>1041.37</ele>
        <time>2015-07-14T09:40:56Z</time>
      </trkpt>
      <trkpt lat="44.53229" lon="6.25558">
        <ele>1041.37</ele>
        <time>2015-07-14T09:40:57Z</time>
      </trkpt>
      <trkpt lat="44.53228" lon="6.25559">
        <ele>1041.37</ele>
        <time>2015-07-14T09:40:58Z</time>
      </trkpt>
      <trkpt lat="44.53226" lon="6.2556">
        <ele>1041.39</ele>
        <time>2015-07-14T09:40:59Z</time>
      </trkpt>
      <trkpt lat="44.53225" lon="6.25562">
        <ele>1041.39</ele>
        <time>2015-07-14T09:41:00Z</time>
      </trkpt>
      <trkpt lat="44.53223" lon="6.25563">
        <ele>1041.41</ele>
        <time>2015-07-14T09:41:01Z</time>
      </trkpt>
      <trkpt lat="44.53222" lon="6.25564">
        <ele>1041.43</ele>
        <time>2015-07-14T09:41:02Z</time>
      </trkpt>
      <trkpt lat="44.5322" lon="6.25565">
        <ele>1041.43</ele>
        <time>2015-07-14T09:41:03Z</time>
      </trkpt>
      <trkpt lat="44.53219" lon="6.25567">
        <ele>1041.37</ele>
        <time>2015-07-14T09:41:04Z</time>
      </trkpt>
      <trkpt lat="44.53215" lon="6.25573">
        <ele>1041.29</ele>
        <time>2015-07-14T09:41:16Z</time>
      </trkpt>
      <trkpt lat="44.53214" lon="6.25573">
        <ele>1041.12</ele>
        <time>2015-07-14T09:41:54Z</time>
      </trkpt>
      <trkpt lat="44.532" lon="6.25586">
        <ele>1041.42</ele>
        <time>2015-07-14T09:42:09Z</time>
      </trkpt>
      <trkpt lat="44.53172" lon="6.25623">
        <ele>1040.54</ele>
        <time>2015-07-14T09:42:21Z</time>
      </trkpt>
      <trkpt lat="44.53145" lon="6.25676">
        <ele>1040.47</ele>
        <time>2015-07-14T09:42:34Z</time>
      </trkpt>
      <trkpt lat="44.53133" lon="6.25696">
        <ele>1040.59</ele>
        <time>2015-07-14T09:42:39Z</time>
      </trkpt>
      <trkpt lat="44.5311" lon="6.25724">
        <ele>1040.12</ele>
        <time>2015-07-14T09:42:45Z</time>
      </trkpt>
      <trkpt lat="44.53106" lon="6.25729">
        <ele>1039.97</ele>
        <time>2015-07-14T09:42:46Z</time>
      </trkpt>
      <trkpt lat="44.53098" lon="6.2574">
        <ele>1039.57</ele>
        <time>2015-07-14T09:42:48Z</time>
      </trkpt>
      <trkpt lat="44.53095" lon="6.25745">
        <ele>1039.41</ele>
        <time>2015-07-14T09:42:49Z</time>
      </trkpt>
      <trkpt lat="44.53091" lon="6.25751">
        <ele>1039.26</ele>
        <time>2015-07-14T09:42:50Z</time>
      </trkpt>
      <trkpt lat="44.53085" lon="6.25764">
        <ele>1039</ele>
        <time>2015-07-14T09:42:52Z</time>
      </trkpt>
      <trkpt lat="44.53072" lon="6.25807">
        <ele>1038.29</ele>
        <time>2015-07-14T09:42:58Z</time>
      </trkpt>
      <trkpt lat="44.53063" lon="6.25845">
        <ele>1038.2</ele>
        <time>2015-07-14T09:43:04Z</time>
      </trkpt>
      <trkpt lat="44.53061" lon="6.25852">
        <ele>1038.22</ele>
        <time>2015-07-14T09:43:05Z</time>
      </trkpt>
      <trkpt lat="44.53055" lon="6.25868">
        <ele>1038.26</ele>
        <time>2015-07-14T09:43:08Z</time>
      </trkpt>
      <trkpt lat="44.53027" lon="6.25911">
        <ele>1038.51</ele>
        <time>2015-07-14T09:43:18Z</time>
      </trkpt>
      <trkpt lat="44.53" lon="6.25962">
        <ele>1038.77</ele>
        <time>2015-07-14T09:43:29Z</time>
      </trkpt>
      <trkpt lat="44.52993" lon="6.25978">
        <ele>1038.54</ele>
        <time>2015-07-14T09:43:32Z</time>
      </trkpt>
      <trkpt lat="44.52982" lon="6.25997">
        <ele>1038.38</ele>
        <time>2015-07-14T09:43:36Z</time>
      </trkpt>
      <trkpt lat="44.52979" lon="6.26003">
        <ele>1038.37</ele>
        <time>2015-07-14T09:43:37Z</time>
      </trkpt>
      <trkpt lat="44.52969" lon="6.26016">
        <ele>1038.3</ele>
        <time>2015-07-14T09:43:40Z</time>
      </trkpt>
      <trkpt lat="44.5295" lon="6.26038">
        <ele>1038.28</ele>
        <time>2015-07-14T09:43:45Z</time>
      </trkpt>
      <trkpt lat="44.52936" lon="6.26047">
        <ele>1038.19</ele>
        <time>2015-07-14T09:43:48Z</time>
      </trkpt>
      <trkpt lat="44.52931" lon="6.2605">
        <ele>1038.14</ele>
        <time>2015-07-14T09:43:49Z</time>
      </trkpt>
      <trkpt lat="44.52926" lon="6.26051">
        <ele>1038.06</ele>
        <time>2015-07-14T09:43:50Z</time>
      </trkpt>
      <trkpt lat="44.5292" lon="6.26052">
        <ele>1038.01</ele>
        <time>2015-07-14T09:43:51Z</time>
      </trkpt>
      <trkpt lat="44.52914" lon="6.26052">
        <ele>1037.92</ele>
        <time>2015-07-14T09:43:52Z</time>
      </trkpt>
      <trkpt lat="44.52904" lon="6.26052">
        <ele>1037.79</ele>
        <time>2015-07-14T09:43:54Z</time>
      </trkpt>
      <trkpt lat="44.529" lon="6.26054">
        <ele>1037.75</ele>
        <time>2015-07-14T09:43:55Z</time>
      </trkpt>
      <trkpt lat="44.52891" lon="6.26058">
        <ele>1037.67</ele>
        <time>2015-07-14T09:43:57Z</time>
      </trkpt>
      <trkpt lat="44.52887" lon="6.26061">
        <ele>1037.67</ele>
        <time>2015-07-14T09:43:58Z</time>
      </trkpt>
      <trkpt lat="44.52883" lon="6.26064">
        <ele>1037.67</ele>
        <time>2015-07-14T09:43:59Z</time>
      </trkpt>
      <trkpt lat="44.52879" lon="6.26066">
        <ele>1037.67</ele>
        <time>2015-07-14T09:44:00Z</time>
      </trkpt>
      <trkpt lat="44.52875" lon="6.26069">
        <ele>1037.69</ele>
        <time>2015-07-14T09:44:01Z</time>
      </trkpt>
      <trkpt lat="44.5286" lon="6.26082">
        <ele>1037.73</ele>
        <time>2015-07-14T09:44:05Z</time>
      </trkpt>
      <trkpt lat="44.52856" lon="6.26087">
        <ele>1037.71</ele>
        <time>2015-07-14T09:44:06Z</time>
      </trkpt>
      <trkpt lat="44.52824" lon="6.26138">
        <ele>1036.87</ele>
        <time>2015-07-14T09:44:14Z</time>
      </trkpt>
      <trkpt lat="44.5282" lon="6.26145">
        <ele>1036.6</ele>
        <time>2015-07-14T09:44:15Z</time>
      </trkpt>
      <trkpt lat="44.52816" lon="6.2615">
        <ele>1036.33</ele>
        <time>2015-07-14T09:44:16Z</time>
      </trkpt>
      <trkpt lat="44.52757" lon="6.26213">
        <ele>1034.96</ele>
        <time>2015-07-14T09:44:30Z</time>
      </trkpt>
      <trkpt lat="44.527" lon="6.26263">
        <ele>1035.46</ele>
        <time>2015-07-14T09:44:44Z</time>
      </trkpt>
      <trkpt lat="44.52646" lon="6.26279">
        <ele>1036.64</ele>
        <time>2015-07-14T09:44:57Z</time>
      </trkpt>
      <trkpt lat="44.52636" lon="6.26286">
        <ele>1036.7</ele>
        <time>2015-07-14T09:45:00Z</time>
      </trkpt>
      <trkpt lat="44.52632" lon="6.2629">
        <ele>1036.72</ele>
        <time>2015-07-14T09:45:01Z</time>
      </trkpt>
      <trkpt lat="44.52628" lon="6.26295">
        <ele>1036.74</ele>
        <time>2015-07-14T09:45:02Z</time>
      </trkpt>
      <trkpt lat="44.52626" lon="6.26301">
        <ele>1036.74</ele>
        <time>2015-07-14T09:45:03Z</time>
      </trkpt>
      <trkpt lat="44.52624" lon="6.26307">
        <ele>1036.74</ele>
        <time>2015-07-14T09:45:04Z</time>
      </trkpt>
      <trkpt lat="44.52622" lon="6.26314">
        <ele>1036.75</ele>
        <time>2015-07-14T09:45:05Z</time>
      </trkpt>
      <trkpt lat="44.52621" lon="6.26321">
        <ele>1036.76</ele>
        <time>2015-07-14T09:45:06Z</time>
      </trkpt>
      <trkpt lat="44.5262" lon="6.26328">
        <ele>1036.77</ele>
        <time>2015-07-14T09:45:07Z</time>
      </trkpt>
      <trkpt lat="44.5262" lon="6.26335">
        <ele>1036.75</ele>
        <time>2015-07-14T09:45:08Z</time>
      </trkpt>
      <trkpt lat="44.52619" lon="6.26342">
        <ele>1036.75</ele>
        <time>2015-07-14T09:45:09Z</time>
      </trkpt>
      <trkpt lat="44.52614" lon="6.26384">
        <ele>1036.8</ele>
        <time>2015-07-14T09:45:15Z</time>
      </trkpt>
      <trkpt lat="44.52612" lon="6.2639">
        <ele>1036.81</ele>
        <time>2015-07-14T09:45:16Z</time>
      </trkpt>
      <trkpt lat="44.52609" lon="6.26395">
        <ele>1036.82</ele>
        <time>2015-07-14T09:45:17Z</time>
      </trkpt>
      <trkpt lat="44.52605" lon="6.264">
        <ele>1036.85</ele>
        <time>2015-07-14T09:45:18Z</time>
      </trkpt>
      <trkpt lat="44.52602" lon="6.26404">
        <ele>1036.89</ele>
        <time>2015-07-14T09:45:19Z</time>
      </trkpt>
      <trkpt lat="44.52597" lon="6.26408">
        <ele>1036.93</ele>
        <time>2015-07-14T09:45:20Z</time>
      </trkpt>
      <trkpt lat="44.52593" lon="6.26411">
        <ele>1036.97</ele>
        <time>2015-07-14T09:45:21Z</time>
      </trkpt>
      <trkpt lat="44.52589" lon="6.26414">
        <ele>1037.01</ele>
        <time>2015-07-14T09:45:22Z</time>
      </trkpt>
      <trkpt lat="44.52542" lon="6.26449">
        <ele>1039.21</ele>
        <time>2015-07-14T09:45:36Z</time>
      </trkpt>
      <trkpt lat="44.52507" lon="6.26476">
        <ele>1041.93</ele>
        <time>2015-07-14T09:45:49Z</time>
      </trkpt>
      <trkpt lat="44.52457" lon="6.26517">
        <ele>1045.01</ele>
        <time>2015-07-14T09:46:06Z</time>
      </trkpt>
      <trkpt lat="44.52426" lon="6.26531">
        <ele>1047.95</ele>
        <time>2015-07-14T09:46:21Z</time>
      </trkpt>
      <trkpt lat="44.52398" lon="6.26546">
        <ele>1047.23</ele>
        <time>2015-07-14T09:46:31Z</time>
      </trkpt>
      <trkpt lat="44.52397" lon="6.26547">
        <ele>1046.88</ele>
        <time>2015-07-14T09:46:32Z</time>
      </trkpt>
      <trkpt lat="44.52395" lon="6.26549">
        <ele>1046.6</ele>
        <time>2015-07-14T09:46:33Z</time>
      </trkpt>
      <trkpt lat="44.52394" lon="6.2655">
        <ele>1046.38</ele>
        <time>2015-07-14T09:46:34Z</time>
      </trkpt>
      <trkpt lat="44.52392" lon="6.26552">
        <ele>1046.22</ele>
        <time>2015-07-14T09:46:35Z</time>
      </trkpt>
      <trkpt lat="44.5239" lon="6.26555">
        <ele>1046.1</ele>
        <time>2015-07-14T09:46:36Z</time>
      </trkpt>
      <trkpt lat="44.52388" lon="6.26556">
        <ele>1046.03</ele>
        <time>2015-07-14T09:46:37Z</time>
      </trkpt>
      <trkpt lat="44.52385" lon="6.26558">
        <ele>1046</ele>
        <time>2015-07-14T09:46:38Z</time>
      </trkpt>
      <trkpt lat="44.52382" lon="6.26559">
        <ele>1045.99</ele>
        <time>2015-07-14T09:46:39Z</time>
      </trkpt>
      <trkpt lat="44.52367" lon="6.26558">
        <ele>1045.79</ele>
        <time>2015-07-14T09:46:43Z</time>
      </trkpt>
      <trkpt lat="44.52346" lon="6.26556">
        <ele>1045.79</ele>
        <time>2015-07-14T09:46:52Z</time>
      </trkpt>
      <trkpt lat="44.52345" lon="6.26557">
        <ele>1046.05</ele>
        <time>2015-07-14T09:46:53Z</time>
      </trkpt>
      <trkpt lat="44.52344" lon="6.26558">
        <ele>1046.3</ele>
        <time>2015-07-14T09:46:54Z</time>
      </trkpt>
      <trkpt lat="44.5233" lon="6.26562">
        <ele>1049.31</ele>
        <time>2015-07-14T09:47:08Z</time>
      </trkpt>
      <trkpt lat="44.52314" lon="6.26563">
        <ele>1051.69</ele>
        <time>2015-07-14T09:47:22Z</time>
      </trkpt>
      <trkpt lat="44.52296" lon="6.2657">
        <ele>1052.44</ele>
        <time>2015-07-14T09:47:33Z</time>
      </trkpt>
      <trkpt lat="44.52282" lon="6.26576">
        <ele>1053.29</ele>
        <time>2015-07-14T09:47:39Z</time>
      </trkpt>
      <trkpt lat="44.52277" lon="6.26576">
        <ele>1053.26</ele>
        <time>2015-07-14T09:47:40Z</time>
      </trkpt>
      <trkpt lat="44.52272" lon="6.26575">
        <ele>1053.11</ele>
        <time>2015-07-14T09:47:41Z</time>
      </trkpt>
      <trkpt lat="44.52269" lon="6.26573">
        <ele>1052.93</ele>
        <time>2015-07-14T09:47:42Z</time>
      </trkpt>
      <trkpt lat="44.52266" lon="6.2657">
        <ele>1052.74</ele>
        <time>2015-07-14T09:47:43Z</time>
      </trkpt>
      <trkpt lat="44.52258" lon="6.26563">
        <ele>1052.31</ele>
        <time>2015-07-14T09:47:46Z</time>
      </trkpt>
      <trkpt lat="44.52256" lon="6.26563">
        <ele>1052.25</ele>
        <time>2015-07-14T09:47:47Z</time>
      </trkpt>
      <trkpt lat="44.52254" lon="6.26563">
        <ele>1052.2</ele>
        <time>2015-07-14T09:47:48Z</time>
      </trkpt>
      <trkpt lat="44.52252" lon="6.26564">
        <ele>1052.17</ele>
        <time>2015-07-14T09:47:49Z</time>
      </trkpt>
      <trkpt lat="44.5225" lon="6.26565">
        <ele>1052.18</ele>
        <time>2015-07-14T09:47:50Z</time>
      </trkpt>
      <trkpt lat="44.52248" lon="6.26566">
        <ele>1052.23</ele>
        <time>2015-07-14T09:47:51Z</time>
      </trkpt>
      <trkpt lat="44.52237" lon="6.26594">
        <ele>1054.84</ele>
        <time>2015-07-14T09:48:05Z</time>
      </trkpt>
      <trkpt lat="44.52221" lon="6.26609">
        <ele>1056.42</ele>
        <time>2015-07-14T09:48:17Z</time>
      </trkpt>
      <trkpt lat="44.52205" lon="6.26623">
        <ele>1058.11</ele>
        <time>2015-07-14T09:48:29Z</time>
      </trkpt>
      <trkpt lat="44.52179" lon="6.26632">
        <ele>1060.6</ele>
        <time>2015-07-14T09:48:43Z</time>
      </trkpt>
      <trkpt lat="44.5214" lon="6.2664">
        <ele>1060.45</ele>
        <time>2015-07-14T09:48:57Z</time>
      </trkpt>
      <trkpt lat="44.52096" lon="6.26652">
        <ele>1060.11</ele>
        <time>2015-07-14T09:49:12Z</time>
      </trkpt>
      <trkpt lat="44.52075" lon="6.26682">
        <ele>1059.98</ele>
        <time>2015-07-14T09:49:22Z</time>
      </trkpt>
      <trkpt lat="44.52071" lon="6.26689">
        <ele>1061.18</ele>
        <time>2015-07-14T09:49:33Z</time>
      </trkpt>
      <trkpt lat="44.52066" lon="6.26693">
        <ele>1061.19</ele>
        <time>2015-07-14T09:49:53Z</time>
      </trkpt>
      <trkpt lat="44.52037" lon="6.26704">
        <ele>1061.49</ele>
        <time>2015-07-14T09:50:04Z</time>
      </trkpt>
      <trkpt lat="44.52015" lon="6.267">
        <ele>1061.81</ele>
        <time>2015-07-14T09:50:13Z</time>
      </trkpt>
      <trkpt lat="44.52007" lon="6.26708">
        <ele>1062</ele>
        <time>2015-07-14T09:50:17Z</time>
      </trkpt>
      <trkpt lat="44.51999" lon="6.26726">
        <ele>1063.29</ele>
        <time>2015-07-14T09:50:27Z</time>
      </trkpt>
      <trkpt lat="44.51988" lon="6.26731">
        <ele>1064.99</ele>
        <time>2015-07-14T09:50:34Z</time>
      </trkpt>
      <trkpt lat="44.51972" lon="6.26745">
        <ele>1067.84</ele>
        <time>2015-07-14T09:50:47Z</time>
      </trkpt>
      <trkpt lat="44.51957" lon="6.26756">
        <ele>1070</ele>
        <time>2015-07-14T09:51:00Z</time>
      </trkpt>
      <trkpt lat="44.51955" lon="6.26758">
        <ele>1070.27</ele>
        <time>2015-07-14T09:51:02Z</time>
      </trkpt>
      <trkpt lat="44.51941" lon="6.2676">
        <ele>1071.84</ele>
        <time>2015-07-14T09:51:11Z</time>
      </trkpt>
      <trkpt lat="44.51935" lon="6.26762">
        <ele>1072.62</ele>
        <time>2015-07-14T09:51:15Z</time>
      </trkpt>
      <trkpt lat="44.51916" lon="6.26772">
        <ele>1075.57</ele>
        <time>2015-07-14T09:51:30Z</time>
      </trkpt>
      <trkpt lat="44.51896" lon="6.26776">
        <ele>1077.68</ele>
        <time>2015-07-14T09:51:44Z</time>
      </trkpt>
      <trkpt lat="44.51868" lon="6.26776">
        <ele>1079.66</ele>
        <time>2015-07-14T09:52:00Z</time>
      </trkpt>
      <trkpt lat="44.51859" lon="6.26776">
        <ele>1080.49</ele>
        <time>2015-07-14T09:52:06Z</time>
      </trkpt>
      <trkpt lat="44.51845" lon="6.26774">
        <ele>1083.05</ele>
        <time>2015-07-14T09:52:16Z</time>
      </trkpt>
      <trkpt lat="44.51823" lon="6.26771">
        <ele>1085.67</ele>
        <time>2015-07-14T09:52:31Z</time>
      </trkpt>
      <trkpt lat="44.51803" lon="6.26771">
        <ele>1087.56</ele>
        <time>2015-07-14T09:52:46Z</time>
      </trkpt>
      <trkpt lat="44.51781" lon="6.2677">
        <ele>1088.76</ele>
        <time>2015-07-14T09:53:00Z</time>
      </trkpt>
      <trkpt lat="44.51753" lon="6.26766">
        <ele>1090.08</ele>
        <time>2015-07-14T09:53:19Z</time>
      </trkpt>
      <trkpt lat="44.51752" lon="6.26767">
        <ele>1090.17</ele>
        <time>2015-07-14T09:53:20Z</time>
      </trkpt>
      <trkpt lat="44.51747" lon="6.26768">
        <ele>1090.49</ele>
        <time>2015-07-14T09:53:35Z</time>
      </trkpt>
      <trkpt lat="44.51748" lon="6.2677">
        <ele>1090.24</ele>
        <time>2015-07-14T09:53:53Z</time>
      </trkpt>
      <trkpt lat="44.51744" lon="6.26777">
        <ele>1090.17</ele>
        <time>2015-07-14T09:53:57Z</time>
      </trkpt>
      <trkpt lat="44.51743" lon="6.26779">
        <ele>1090.15</ele>
        <time>2015-07-14T09:53:58Z</time>
      </trkpt>
      <trkpt lat="44.51723" lon="6.26815">
        <ele>1089.55</ele>
        <time>2015-07-14T09:54:10Z</time>
      </trkpt>
      <trkpt lat="44.51701" lon="6.26859">
        <ele>1089.53</ele>
        <time>2015-07-14T09:54:25Z</time>
      </trkpt>
      <trkpt lat="44.51676" lon="6.26917">
        <ele>1091.03</ele>
        <time>2015-07-14T09:54:42Z</time>
      </trkpt>
      <trkpt lat="44.51663" lon="6.26958">
        <ele>1091.93</ele>
        <time>2015-07-14T09:54:56Z</time>
      </trkpt>
      <trkpt lat="44.51644" lon="6.26996">
        <ele>1092.08</ele>
        <time>2015-07-14T09:55:09Z</time>
      </trkpt>
      <trkpt lat="44.51612" lon="6.27036">
        <ele>1092.07</ele>
        <time>2015-07-14T09:55:24Z</time>
      </trkpt>
      <trkpt lat="44.51603" lon="6.27067">
        <ele>1091.42</ele>
        <time>2015-07-14T09:55:30Z</time>
      </trkpt>
      <trkpt lat="44.51602" lon="6.27073">
        <ele>1091.33</ele>
        <time>2015-07-14T09:55:31Z</time>
      </trkpt>
      <trkpt lat="44.51602" lon="6.27079">
        <ele>1091.26</ele>
        <time>2015-07-14T09:55:32Z</time>
      </trkpt>
      <trkpt lat="44.51602" lon="6.27084">
        <ele>1091.19</ele>
        <time>2015-07-14T09:55:33Z</time>
      </trkpt>
      <trkpt lat="44.51602" lon="6.27088">
        <ele>1091.14</ele>
        <time>2015-07-14T09:55:34Z</time>
      </trkpt>
      <trkpt lat="44.51603" lon="6.27092">
        <ele>1091.08</ele>
        <time>2015-07-14T09:55:35Z</time>
      </trkpt>
      <trkpt lat="44.51602" lon="6.27097">
        <ele>1091.05</ele>
        <time>2015-07-14T09:55:36Z</time>
      </trkpt>
      <trkpt lat="44.51601" lon="6.27101">
        <ele>1091.03</ele>
        <time>2015-07-14T09:55:37Z</time>
      </trkpt>
      <trkpt lat="44.516" lon="6.27104">
        <ele>1091.04</ele>
        <time>2015-07-14T09:55:38Z</time>
      </trkpt>
      <trkpt lat="44.51599" lon="6.27108">
        <ele>1091.08</ele>
        <time>2015-07-14T09:55:39Z</time>
      </trkpt>
      <trkpt lat="44.51598" lon="6.27111">
        <ele>1091.17</ele>
        <time>2015-07-14T09:55:40Z</time>
      </trkpt>
      <trkpt lat="44.51596" lon="6.27114">
        <ele>1091.28</ele>
        <time>2015-07-14T09:55:41Z</time>
      </trkpt>
      <trkpt lat="44.51596" lon="6.27118">
        <ele>1091.39</ele>
        <time>2015-07-14T09:55:42Z</time>
      </trkpt>
      <trkpt lat="44.51594" lon="6.27121">
        <ele>1091.46</ele>
        <time>2015-07-14T09:55:43Z</time>
      </trkpt>
      <trkpt lat="44.51592" lon="6.27123">
        <ele>1091.53</ele>
        <time>2015-07-14T09:55:44Z</time>
      </trkpt>
      <trkpt lat="44.51591" lon="6.27125">
        <ele>1091.56</ele>
        <time>2015-07-14T09:55:45Z</time>
      </trkpt>
      <trkpt lat="44.51589" lon="6.27127">
        <ele>1091.52</ele>
        <time>2015-07-14T09:55:46Z</time>
      </trkpt>
      <trkpt lat="44.51586" lon="6.27126">
        <ele>1090.89</ele>
        <time>2015-07-14T09:55:59Z</time>
      </trkpt>
      <trkpt lat="44.5158" lon="6.27131">
        <ele>1090.55</ele>
        <time>2015-07-14T09:56:39Z</time>
      </trkpt>
      <trkpt lat="44.51578" lon="6.27134">
        <ele>1090.39</ele>
        <time>2015-07-14T09:57:03Z</time>
      </trkpt>
      <trkpt lat="44.51577" lon="6.27135">
        <ele>1090.37</ele>
        <time>2015-07-14T09:57:04Z</time>
      </trkpt>
      <trkpt lat="44.51576" lon="6.27137">
        <ele>1090.33</ele>
        <time>2015-07-14T09:57:05Z</time>
      </trkpt>
      <trkpt lat="44.51575" lon="6.2714">
        <ele>1090.3</ele>
        <time>2015-07-14T09:57:06Z</time>
      </trkpt>
      <trkpt lat="44.51573" lon="6.27144">
        <ele>1090.2</ele>
        <time>2015-07-14T09:57:07Z</time>
      </trkpt>
      <trkpt lat="44.51565" lon="6.27172">
        <ele>1089.43</ele>
        <time>2015-07-14T09:57:12Z</time>
      </trkpt>
      <trkpt lat="44.51566" lon="6.27178">
        <ele>1089.27</ele>
        <time>2015-07-14T09:57:13Z</time>
      </trkpt>
      <trkpt lat="44.51568" lon="6.27184">
        <ele>1089.14</ele>
        <time>2015-07-14T09:57:14Z</time>
      </trkpt>
      <trkpt lat="44.5157" lon="6.27188">
        <ele>1089.01</ele>
        <time>2015-07-14T09:57:15Z</time>
      </trkpt>
      <trkpt lat="44.51572" lon="6.27191">
        <ele>1088.9</ele>
        <time>2015-07-14T09:57:16Z</time>
      </trkpt>
      <trkpt lat="44.51586" lon="6.27215">
        <ele>1089.04</ele>
        <time>2015-07-14T09:57:28Z</time>
      </trkpt>
      <trkpt lat="44.5159" lon="6.27225">
        <ele>1089.25</ele>
        <time>2015-07-14T09:57:34Z</time>
      </trkpt>
      <trkpt lat="44.51591" lon="6.27226">
        <ele>1089.29</ele>
        <time>2015-07-14T09:57:35Z</time>
      </trkpt>
      <trkpt lat="44.51605" lon="6.27262">
        <ele>1089.11</ele>
        <time>2015-07-14T09:57:49Z</time>
      </trkpt>
      <trkpt lat="44.51605" lon="6.27268">
        <ele>1089.05</ele>
        <time>2015-07-14T09:57:50Z</time>
      </trkpt>
      <trkpt lat="44.51603" lon="6.27292">
        <ele>1088.48</ele>
        <time>2015-07-14T09:57:54Z</time>
      </trkpt>
      <trkpt lat="44.51595" lon="6.27339">
        <ele>1087.59</ele>
        <time>2015-07-14T09:58:04Z</time>
      </trkpt>
      <trkpt lat="44.51594" lon="6.2735">
        <ele>1087.67</ele>
        <time>2015-07-14T09:58:07Z</time>
      </trkpt>
      <trkpt lat="44.51594" lon="6.27353">
        <ele>1087.78</ele>
        <time>2015-07-14T09:58:08Z</time>
      </trkpt>
      <trkpt lat="44.51596" lon="6.27357">
        <ele>1087.9</ele>
        <time>2015-07-14T09:58:09Z</time>
      </trkpt>
      <trkpt lat="44.51596" lon="6.27361">
        <ele>1088.01</ele>
        <time>2015-07-14T09:58:10Z</time>
      </trkpt>
      <trkpt lat="44.51597" lon="6.27365">
        <ele>1088.1</ele>
        <time>2015-07-14T09:58:11Z</time>
      </trkpt>
      <trkpt lat="44.51598" lon="6.2737">
        <ele>1088.19</ele>
        <time>2015-07-14T09:58:12Z</time>
      </trkpt>
      <trkpt lat="44.51598" lon="6.27375">
        <ele>1088.25</ele>
        <time>2015-07-14T09:58:13Z</time>
      </trkpt>
      <trkpt lat="44.51599" lon="6.2738">
        <ele>1088.29</ele>
        <time>2015-07-14T09:58:14Z</time>
      </trkpt>
      <trkpt lat="44.51598" lon="6.27386">
        <ele>1088.32</ele>
        <time>2015-07-14T09:58:15Z</time>
      </trkpt>
      <trkpt lat="44.51598" lon="6.27399">
        <ele>1088.27</ele>
        <time>2015-07-14T09:58:17Z</time>
      </trkpt>
      <trkpt lat="44.51597" lon="6.27407">
        <ele>1088.18</ele>
        <time>2015-07-14T09:58:18Z</time>
      </trkpt>
      <trkpt lat="44.51593" lon="6.27485">
        <ele>1085.28</ele>
        <time>2015-07-14T09:58:26Z</time>
      </trkpt>
      <trkpt lat="44.51595" lon="6.27496">
        <ele>1084.78</ele>
        <time>2015-07-14T09:58:27Z</time>
      </trkpt>
      <trkpt lat="44.51598" lon="6.27528">
        <ele>1083.07</ele>
        <time>2015-07-14T09:58:30Z</time>
      </trkpt>
      <trkpt lat="44.51598" lon="6.27539">
        <ele>1082.36</ele>
        <time>2015-07-14T09:58:31Z</time>
      </trkpt>
      <trkpt lat="44.51596" lon="6.2755">
        <ele>1081.66</ele>
        <time>2015-07-14T09:58:32Z</time>
      </trkpt>
      <trkpt lat="44.51594" lon="6.27562">
        <ele>1080.97</ele>
        <time>2015-07-14T09:58:33Z</time>
      </trkpt>
      <trkpt lat="44.51591" lon="6.27573">
        <ele>1080.3</ele>
        <time>2015-07-14T09:58:34Z</time>
      </trkpt>
      <trkpt lat="44.51583" lon="6.27605">
        <ele>1078.05</ele>
        <time>2015-07-14T09:58:37Z</time>
      </trkpt>
      <trkpt lat="44.51582" lon="6.27615">
        <ele>1077.34</ele>
        <time>2015-07-14T09:58:38Z</time>
      </trkpt>
      <trkpt lat="44.51581" lon="6.27624">
        <ele>1076.59</ele>
        <time>2015-07-14T09:58:39Z</time>
      </trkpt>
      <trkpt lat="44.51582" lon="6.2767">
        <ele>1073.2</ele>
        <time>2015-07-14T09:58:44Z</time>
      </trkpt>
      <trkpt lat="44.51583" lon="6.27678">
        <ele>1072.59</ele>
        <time>2015-07-14T09:58:45Z</time>
      </trkpt>
      <trkpt lat="44.51585" lon="6.27686">
        <ele>1071.91</ele>
        <time>2015-07-14T09:58:46Z</time>
      </trkpt>
      <trkpt lat="44.51588" lon="6.27694">
        <ele>1071.16</ele>
        <time>2015-07-14T09:58:47Z</time>
      </trkpt>
      <trkpt lat="44.5159" lon="6.27701">
        <ele>1070.37</ele>
        <time>2015-07-14T09:58:48Z</time>
      </trkpt>
      <trkpt lat="44.51591" lon="6.27708">
        <ele>1069.56</ele>
        <time>2015-07-14T09:58:49Z</time>
      </trkpt>
      <trkpt lat="44.5159" lon="6.27714">
        <ele>1067.85</ele>
        <time>2015-07-14T09:58:50Z</time>
      </trkpt>
      <trkpt lat="44.51589" lon="6.27719">
        <ele>1067.85</ele>
        <time>2015-07-14T09:58:51Z</time>
      </trkpt>
      <trkpt lat="44.51588" lon="6.27724">
        <ele>1066.2</ele>
        <time>2015-07-14T09:58:52Z</time>
      </trkpt>
      <trkpt lat="44.51589" lon="6.27729">
        <ele>1065.48</ele>
        <time>2015-07-14T09:58:53Z</time>
      </trkpt>
      <trkpt lat="44.5159" lon="6.27733">
        <ele>1064.77</ele>
        <time>2015-07-14T09:58:54Z</time>
      </trkpt>
      <trkpt lat="44.51592" lon="6.27736">
        <ele>1064.02</ele>
        <time>2015-07-14T09:58:55Z</time>
      </trkpt>
      <trkpt lat="44.51595" lon="6.2774">
        <ele>1063.26</ele>
        <time>2015-07-14T09:58:56Z</time>
      </trkpt>
      <trkpt lat="44.51599" lon="6.27742">
        <ele>1062.54</ele>
        <time>2015-07-14T09:58:57Z</time>
      </trkpt>
      <trkpt lat="44.51603" lon="6.27744">
        <ele>1061.82</ele>
        <time>2015-07-14T09:58:58Z</time>
      </trkpt>
      <trkpt lat="44.51608" lon="6.27745">
        <ele>1061.04</ele>
        <time>2015-07-14T09:58:59Z</time>
      </trkpt>
      <trkpt lat="44.51612" lon="6.27744">
        <ele>1060.23</ele>
        <time>2015-07-14T09:59:00Z</time>
      </trkpt>
      <trkpt lat="44.51616" lon="6.27742">
        <ele>1059.44</ele>
        <time>2015-07-14T09:59:01Z</time>
      </trkpt>
      <trkpt lat="44.5162" lon="6.2774">
        <ele>1058.7</ele>
        <time>2015-07-14T09:59:02Z</time>
      </trkpt>
      <trkpt lat="44.51625" lon="6.27741">
        <ele>1058.05</ele>
        <time>2015-07-14T09:59:03Z</time>
      </trkpt>
      <trkpt lat="44.51628" lon="6.27743">
        <ele>1057.51</ele>
        <time>2015-07-14T09:59:04Z</time>
      </trkpt>
      <trkpt lat="44.5163" lon="6.27747">
        <ele>1057.06</ele>
        <time>2015-07-14T09:59:05Z</time>
      </trkpt>
      <trkpt lat="44.51631" lon="6.27752">
        <ele>1056.67</ele>
        <time>2015-07-14T09:59:06Z</time>
      </trkpt>
      <trkpt lat="44.51629" lon="6.27756">
        <ele>1056.29</ele>
        <time>2015-07-14T09:59:07Z</time>
      </trkpt>
      <trkpt lat="44.51626" lon="6.27759">
        <ele>1055.93</ele>
        <time>2015-07-14T09:59:08Z</time>
      </trkpt>
      <trkpt lat="44.51622" lon="6.27762">
        <ele>1055.59</ele>
        <time>2015-07-14T09:59:09Z</time>
      </trkpt>
      <trkpt lat="44.51619" lon="6.27765">
        <ele>1055.26</ele>
        <time>2015-07-14T09:59:10Z</time>
      </trkpt>
      <trkpt lat="44.51615" lon="6.27769">
        <ele>1054.87</ele>
        <time>2015-07-14T09:59:11Z</time>
      </trkpt>
      <trkpt lat="44.51613" lon="6.27774">
        <ele>1054.44</ele>
        <time>2015-07-14T09:59:12Z</time>
      </trkpt>
      <trkpt lat="44.51611" lon="6.2778">
        <ele>1053.99</ele>
        <time>2015-07-14T09:59:13Z</time>
      </trkpt>
      <trkpt lat="44.51611" lon="6.27786">
        <ele>1053.51</ele>
        <time>2015-07-14T09:59:14Z</time>
      </trkpt>
      <trkpt lat="44.51612" lon="6.27792">
        <ele>1053.05</ele>
        <time>2015-07-14T09:59:15Z</time>
      </trkpt>
      <trkpt lat="44.51614" lon="6.27799">
        <ele>1052.13</ele>
        <time>2015-07-14T09:59:16Z</time>
      </trkpt>
      <trkpt lat="44.51617" lon="6.27804">
        <ele>1051.67</ele>
        <time>2015-07-14T09:59:17Z</time>
      </trkpt>
      <trkpt lat="44.51621" lon="6.27808">
        <ele>1051.23</ele>
        <time>2015-07-14T09:59:18Z</time>
      </trkpt>
      <trkpt lat="44.51625" lon="6.27812">
        <ele>1050.81</ele>
        <time>2015-07-14T09:59:19Z</time>
      </trkpt>
      <trkpt lat="44.51638" lon="6.27825">
        <ele>1049.72</ele>
        <time>2015-07-14T09:59:22Z</time>
      </trkpt>
      <trkpt lat="44.51671" lon="6.2787">
        <ele>1047.82</ele>
        <time>2015-07-14T09:59:33Z</time>
      </trkpt>
      <trkpt lat="44.51671" lon="6.27875">
        <ele>1047.8</ele>
        <time>2015-07-14T09:59:34Z</time>
      </trkpt>
      <trkpt lat="44.51669" lon="6.27879">
        <ele>1047.77</ele>
        <time>2015-07-14T09:59:35Z</time>
      </trkpt>
      <trkpt lat="44.51668" lon="6.27883">
        <ele>1047.73</ele>
        <time>2015-07-14T09:59:36Z</time>
      </trkpt>
      <trkpt lat="44.51667" lon="6.27886">
        <ele>1047.71</ele>
        <time>2015-07-14T09:59:37Z</time>
      </trkpt>
      <trkpt lat="44.51658" lon="6.27936">
        <ele>1047.3</ele>
        <time>2015-07-14T09:59:47Z</time>
      </trkpt>
      <trkpt lat="44.51658" lon="6.27942">
        <ele>1047.23</ele>
        <time>2015-07-14T09:59:48Z</time>
      </trkpt>
      <trkpt lat="44.51657" lon="6.27948">
        <ele>1047.11</ele>
        <time>2015-07-14T09:59:49Z</time>
      </trkpt>
      <trkpt lat="44.51656" lon="6.27961">
        <ele>1046.75</ele>
        <time>2015-07-14T09:59:51Z</time>
      </trkpt>
      <trkpt lat="44.51659" lon="6.27966">
        <ele>1046.46</ele>
        <time>2015-07-14T09:59:52Z</time>
      </trkpt>
      <trkpt lat="44.51662" lon="6.27971">
        <ele>1046.1</ele>
        <time>2015-07-14T09:59:53Z</time>
      </trkpt>
      <trkpt lat="44.51667" lon="6.27973">
        <ele>1045.74</ele>
        <time>2015-07-14T09:59:54Z</time>
      </trkpt>
      <trkpt lat="44.51672" lon="6.27976">
        <ele>1045.35</ele>
        <time>2015-07-14T09:59:55Z</time>
      </trkpt>
      <trkpt lat="44.51677" lon="6.27979">
        <ele>1044.85</ele>
        <time>2015-07-14T09:59:56Z</time>
      </trkpt>
      <trkpt lat="44.51682" lon="6.27983">
        <ele>1044.28</ele>
        <time>2015-07-14T09:59:57Z</time>
      </trkpt>
      <trkpt lat="44.51687" lon="6.27989">
        <ele>1043.71</ele>
        <time>2015-07-14T09:59:58Z</time>
      </trkpt>
      <trkpt lat="44.5169" lon="6.27996">
        <ele>1043.17</ele>
        <time>2015-07-14T09:59:59Z</time>
      </trkpt>
      <trkpt lat="44.51693" lon="6.28005">
        <ele>1042.63</ele>
        <time>2015-07-14T10:00:00Z</time>
      </trkpt>
      <trkpt lat="44.51696" lon="6.28014">
        <ele>1042.02</ele>
        <time>2015-07-14T10:00:01Z</time>
      </trkpt>
      <trkpt lat="44.51698" lon="6.28023">
        <ele>1041.37</ele>
        <time>2015-07-14T10:00:02Z</time>
      </trkpt>
      <trkpt lat="44.517" lon="6.28033">
        <ele>1040.78</ele>
        <time>2015-07-14T10:00:03Z</time>
      </trkpt>
      <trkpt lat="44.517" lon="6.28044">
        <ele>1040.26</ele>
        <time>2015-07-14T10:00:04Z</time>
      </trkpt>
      <trkpt lat="44.51699" lon="6.28056">
        <ele>1039.72</ele>
        <time>2015-07-14T10:00:05Z</time>
      </trkpt>
      <trkpt lat="44.51698" lon="6.28067">
        <ele>1038.52</ele>
        <time>2015-07-14T10:00:06Z</time>
      </trkpt>
      <trkpt lat="44.51695" lon="6.2811">
        <ele>1035.11</ele>
        <time>2015-07-14T10:00:11Z</time>
      </trkpt>
      <trkpt lat="44.51695" lon="6.28116">
        <ele>1034.59</ele>
        <time>2015-07-14T10:00:12Z</time>
      </trkpt>
      <trkpt lat="44.51694" lon="6.28122">
        <ele>1034.15</ele>
        <time>2015-07-14T10:00:13Z</time>
      </trkpt>
      <trkpt lat="44.51692" lon="6.28129">
        <ele>1033.76</ele>
        <time>2015-07-14T10:00:14Z</time>
      </trkpt>
      <trkpt lat="44.51692" lon="6.28136">
        <ele>1033.38</ele>
        <time>2015-07-14T10:00:15Z</time>
      </trkpt>
      <trkpt lat="44.51694" lon="6.28143">
        <ele>1032.91</ele>
        <time>2015-07-14T10:00:16Z</time>
      </trkpt>
      <trkpt lat="44.51696" lon="6.28149">
        <ele>1032.38</ele>
        <time>2015-07-14T10:00:17Z</time>
      </trkpt>
      <trkpt lat="44.517" lon="6.28156">
        <ele>1031.83</ele>
        <time>2015-07-14T10:00:18Z</time>
      </trkpt>
      <trkpt lat="44.51704" lon="6.28162">
        <ele>1031.2</ele>
        <time>2015-07-14T10:00:19Z</time>
      </trkpt>
      <trkpt lat="44.51709" lon="6.28168">
        <ele>1030.52</ele>
        <time>2015-07-14T10:00:20Z</time>
      </trkpt>
      <trkpt lat="44.51729" lon="6.28209">
        <ele>1027.1</ele>
        <time>2015-07-14T10:00:25Z</time>
      </trkpt>
      <trkpt lat="44.51734" lon="6.28217">
        <ele>1026.22</ele>
        <time>2015-07-14T10:00:26Z</time>
      </trkpt>
      <trkpt lat="44.51748" lon="6.28238">
        <ele>1024.2</ele>
        <time>2015-07-14T10:00:29Z</time>
      </trkpt>
      <trkpt lat="44.51751" lon="6.28246">
        <ele>1023.72</ele>
        <time>2015-07-14T10:00:30Z</time>
      </trkpt>
      <trkpt lat="44.51753" lon="6.28254">
        <ele>1022.94</ele>
        <time>2015-07-14T10:00:31Z</time>
      </trkpt>
      <trkpt lat="44.51755" lon="6.2826">
        <ele>1022.6</ele>
        <time>2015-07-14T10:00:32Z</time>
      </trkpt>
      <trkpt lat="44.51756" lon="6.28265">
        <ele>1022.3</ele>
        <time>2015-07-14T10:00:33Z</time>
      </trkpt>
      <trkpt lat="44.51757" lon="6.28269">
        <ele>1022.05</ele>
        <time>2015-07-14T10:00:34Z</time>
      </trkpt>
      <trkpt lat="44.51758" lon="6.28273">
        <ele>1021.85</ele>
        <time>2015-07-14T10:00:35Z</time>
      </trkpt>
      <trkpt lat="44.51758" lon="6.28277">
        <ele>1021.69</ele>
        <time>2015-07-14T10:00:36Z</time>
      </trkpt>
      <trkpt lat="44.51758" lon="6.2828">
        <ele>1021.58</ele>
        <time>2015-07-14T10:00:37Z</time>
      </trkpt>
      <trkpt lat="44.51757" lon="6.28294">
        <ele>1021.58</ele>
        <time>2015-07-14T10:00:41Z</time>
      </trkpt>
      <trkpt lat="44.51755" lon="6.28305">
        <ele>1021.6</ele>
        <time>2015-07-14T10:00:43Z</time>
      </trkpt>
      <trkpt lat="44.51749" lon="6.28322">
        <ele>1021.5</ele>
        <time>2015-07-14T10:00:46Z</time>
      </trkpt>
      <trkpt lat="44.51741" lon="6.28356">
        <ele>1018.91</ele>
        <time>2015-07-14T10:00:54Z</time>
      </trkpt>
      <trkpt lat="44.51737" lon="6.28366">
        <ele>1017.62</ele>
        <time>2015-07-14T10:00:57Z</time>
      </trkpt>
      <trkpt lat="44.51722" lon="6.28391">
        <ele>1015.33</ele>
        <time>2015-07-14T10:01:06Z</time>
      </trkpt>
      <trkpt lat="44.51719" lon="6.28394">
        <ele>1015.12</ele>
        <time>2015-07-14T10:01:07Z</time>
      </trkpt>
      <trkpt lat="44.51704" lon="6.28408">
        <ele>1014.47</ele>
        <time>2015-07-14T10:01:11Z</time>
      </trkpt>
      <trkpt lat="44.51687" lon="6.28424">
        <ele>1013.49</ele>
        <time>2015-07-14T10:01:16Z</time>
      </trkpt>
      <trkpt lat="44.5167" lon="6.28452">
        <ele>1010.7</ele>
        <time>2015-07-14T10:01:24Z</time>
      </trkpt>
      <trkpt lat="44.51666" lon="6.28455">
        <ele>1010.54</ele>
        <time>2015-07-14T10:01:26Z</time>
      </trkpt>
      <trkpt lat="44.51646" lon="6.28463">
        <ele>1010.06</ele>
        <time>2015-07-14T10:01:33Z</time>
      </trkpt>
      <trkpt lat="44.51627" lon="6.28463">
        <ele>1008.41</ele>
        <time>2015-07-14T10:01:39Z</time>
      </trkpt>
      <trkpt lat="44.51609" lon="6.28474">
        <ele>1004.83</ele>
        <time>2015-07-14T10:01:45Z</time>
      </trkpt>
      <trkpt lat="44.51605" lon="6.28476">
        <ele>1004.25</ele>
        <time>2015-07-14T10:01:46Z</time>
      </trkpt>
      <trkpt lat="44.51585" lon="6.28475">
        <ele>1000.24</ele>
        <time>2015-07-14T10:01:53Z</time>
      </trkpt>
      <trkpt lat="44.51571" lon="6.28485">
        <ele>997.15</ele>
        <time>2015-07-14T10:01:58Z</time>
      </trkpt>
      <trkpt lat="44.51569" lon="6.28487">
        <ele>996.56</ele>
        <time>2015-07-14T10:01:59Z</time>
      </trkpt>
      <trkpt lat="44.51559" lon="6.28495">
        <ele>994.27</ele>
        <time>2015-07-14T10:02:04Z</time>
      </trkpt>
      <trkpt lat="44.51556" lon="6.28499">
        <ele>992.02</ele>
        <time>2015-07-14T10:02:09Z</time>
      </trkpt>
      <trkpt lat="44.51551" lon="6.28505">
        <ele>989.95</ele>
        <time>2015-07-14T10:02:16Z</time>
      </trkpt>
      <trkpt lat="44.51546" lon="6.28515">
        <ele>989.02</ele>
        <time>2015-07-14T10:02:20Z</time>
      </trkpt>
      <trkpt lat="44.51546" lon="6.28556">
        <ele>985.83</ele>
        <time>2015-07-14T10:02:29Z</time>
      </trkpt>
      <trkpt lat="44.51542" lon="6.2857">
        <ele>984.68</ele>
        <time>2015-07-14T10:02:32Z</time>
      </trkpt>
      <trkpt lat="44.51539" lon="6.28595">
        <ele>983.68</ele>
        <time>2015-07-14T10:02:38Z</time>
      </trkpt>
      <trkpt lat="44.51535" lon="6.28609">
        <ele>983.52</ele>
        <time>2015-07-14T10:02:41Z</time>
      </trkpt>
      <trkpt lat="44.51524" lon="6.28619">
        <ele>983.59</ele>
        <time>2015-07-14T10:02:46Z</time>
      </trkpt>
      <trkpt lat="44.51498" lon="6.2864">
        <ele>982.49</ele>
        <time>2015-07-14T10:02:53Z</time>
      </trkpt>
      <trkpt lat="44.51486" lon="6.28678">
        <ele>980.59</ele>
        <time>2015-07-14T10:03:00Z</time>
      </trkpt>
      <trkpt lat="44.51479" lon="6.2871">
        <ele>981.06</ele>
        <time>2015-07-14T10:03:11Z</time>
      </trkpt>
      <trkpt lat="44.51476" lon="6.28709">
        <ele>981.22</ele>
        <time>2015-07-14T10:03:53Z</time>
      </trkpt>
      <trkpt lat="44.51475" lon="6.28709">
        <ele>980.85</ele>
        <time>2015-07-14T10:04:16Z</time>
      </trkpt>
      <trkpt lat="44.51473" lon="6.28711">
        <ele>980.96</ele>
        <time>2015-07-14T10:04:40Z</time>
      </trkpt>
      <trkpt lat="44.51474" lon="6.28714">
        <ele>980.42</ele>
        <time>2015-07-14T10:05:06Z</time>
      </trkpt>
      <trkpt lat="44.51475" lon="6.28747">
        <ele>978.44</ele>
        <time>2015-07-14T10:05:17Z</time>
      </trkpt>
      <trkpt lat="44.51477" lon="6.28751">
        <ele>978.04</ele>
        <time>2015-07-14T10:05:18Z</time>
      </trkpt>
      <trkpt lat="44.51493" lon="6.2878">
        <ele>974.44</ele>
        <time>2015-07-14T10:05:26Z</time>
      </trkpt>
      <trkpt lat="44.51504" lon="6.28794">
        <ele>971.21</ele>
        <time>2015-07-14T10:05:34Z</time>
      </trkpt>
      <trkpt lat="44.51508" lon="6.28801">
        <ele>969.98</ele>
        <time>2015-07-14T10:05:37Z</time>
      </trkpt>
      <trkpt lat="44.5152" lon="6.28827">
        <ele>967.3</ele>
        <time>2015-07-14T10:05:46Z</time>
      </trkpt>
      <trkpt lat="44.51514" lon="6.28854">
        <ele>963.94</ele>
        <time>2015-07-14T10:05:54Z</time>
      </trkpt>
      <trkpt lat="44.51507" lon="6.2888">
        <ele>959.97</ele>
        <time>2015-07-14T10:06:00Z</time>
      </trkpt>
      <trkpt lat="44.51506" lon="6.28885">
        <ele>959.4</ele>
        <time>2015-07-14T10:06:01Z</time>
      </trkpt>
      <trkpt lat="44.51519" lon="6.28922">
        <ele>956.33</ele>
        <time>2015-07-14T10:06:12Z</time>
      </trkpt>
      <trkpt lat="44.51528" lon="6.28959">
        <ele>956.28</ele>
        <time>2015-07-14T10:06:21Z</time>
      </trkpt>
      <trkpt lat="44.51552" lon="6.28983">
        <ele>956.51</ele>
        <time>2015-07-14T10:06:31Z</time>
      </trkpt>
      <trkpt lat="44.51582" lon="6.28994">
        <ele>956.31</ele>
        <time>2015-07-14T10:06:41Z</time>
      </trkpt>
      <trkpt lat="44.51596" lon="6.29008">
        <ele>956.19</ele>
        <time>2015-07-14T10:06:51Z</time>
      </trkpt>
      <trkpt lat="44.51597" lon="6.2901">
        <ele>956.41</ele>
        <time>2015-07-14T10:07:23Z</time>
      </trkpt>
      <trkpt lat="44.516" lon="6.2901">
        <ele>956.03</ele>
        <time>2015-07-14T10:07:57Z</time>
      </trkpt>
      <trkpt lat="44.51612" lon="6.29023">
        <ele>955.33</ele>
        <time>2015-07-14T10:08:04Z</time>
      </trkpt>
      <trkpt lat="44.51611" lon="6.29029">
        <ele>953.71</ele>
        <time>2015-07-14T10:08:10Z</time>
      </trkpt>
      <trkpt lat="44.5161" lon="6.29034">
        <ele>952.46</ele>
        <time>2015-07-14T10:08:13Z</time>
      </trkpt>
      <trkpt lat="44.51621" lon="6.29042">
        <ele>950.22</ele>
        <time>2015-07-14T10:08:20Z</time>
      </trkpt>
      <trkpt lat="44.51629" lon="6.29055">
        <ele>948.61</ele>
        <time>2015-07-14T10:08:25Z</time>
      </trkpt>
      <trkpt lat="44.51638" lon="6.29062">
        <ele>947.19</ele>
        <time>2015-07-14T10:08:29Z</time>
      </trkpt>
      <trkpt lat="44.51655" lon="6.29064">
        <ele>944.38</ele>
        <time>2015-07-14T10:08:35Z</time>
      </trkpt>
      <trkpt lat="44.51673" lon="6.29054">
        <ele>941.24</ele>
        <time>2015-07-14T10:08:44Z</time>
      </trkpt>
      <trkpt lat="44.51675" lon="6.2906">
        <ele>939.5</ele>
        <time>2015-07-14T10:08:49Z</time>
      </trkpt>
      <trkpt lat="44.51677" lon="6.29067">
        <ele>936.95</ele>
        <time>2015-07-14T10:09:01Z</time>
      </trkpt>
      <trkpt lat="44.51671" lon="6.29094">
        <ele>935.27</ele>
        <time>2015-07-14T10:09:10Z</time>
      </trkpt>
      <trkpt lat="44.51671" lon="6.29095">
        <ele>934.9</ele>
        <time>2015-07-14T10:09:11Z</time>
      </trkpt>
      <trkpt lat="44.5167" lon="6.29094">
        <ele>932.04</ele>
        <time>2015-07-14T10:09:25Z</time>
      </trkpt>
      <trkpt lat="44.51671" lon="6.29096">
        <ele>931.74</ele>
        <time>2015-07-14T10:09:56Z</time>
      </trkpt>
      <trkpt lat="44.51681" lon="6.29094">
        <ele>931.58</ele>
        <time>2015-07-14T10:10:19Z</time>
      </trkpt>
      <trkpt lat="44.51686" lon="6.29089">
        <ele>931.15</ele>
        <time>2015-07-14T10:10:21Z</time>
      </trkpt>
      <trkpt lat="44.51715" lon="6.29082">
        <ele>928.35</ele>
        <time>2015-07-14T10:10:29Z</time>
      </trkpt>
      <trkpt lat="44.51745" lon="6.29073">
        <ele>924.75</ele>
        <time>2015-07-14T10:10:38Z</time>
      </trkpt>
      <trkpt lat="44.51748" lon="6.29071">
        <ele>924.75</ele>
        <time>2015-07-14T10:10:39Z</time>
      </trkpt>
      <trkpt lat="44.51771" lon="6.29074">
        <ele>922.16</ele>
        <time>2015-07-14T10:10:44Z</time>
      </trkpt>
      <trkpt lat="44.51801" lon="6.29068">
        <ele>919.83</ele>
        <time>2015-07-14T10:10:53Z</time>
      </trkpt>
      <trkpt lat="44.51805" lon="6.29062">
        <ele>919.35</ele>
        <time>2015-07-14T10:10:55Z</time>
      </trkpt>
      <trkpt lat="44.5182" lon="6.29051">
        <ele>919.1</ele>
        <time>2015-07-14T10:11:01Z</time>
      </trkpt>
      <trkpt lat="44.51832" lon="6.2904">
        <ele>918.65</ele>
        <time>2015-07-14T10:11:05Z</time>
      </trkpt>
      <trkpt lat="44.51838" lon="6.29034">
        <ele>917.81</ele>
        <time>2015-07-14T10:11:08Z</time>
      </trkpt>
      <trkpt lat="44.51867" lon="6.29024">
        <ele>915.3</ele>
        <time>2015-07-14T10:11:16Z</time>
      </trkpt>
      <trkpt lat="44.51873" lon="6.2902">
        <ele>914.44</ele>
        <time>2015-07-14T10:11:18Z</time>
      </trkpt>
      <trkpt lat="44.51879" lon="6.29017">
        <ele>913.65</ele>
        <time>2015-07-14T10:11:20Z</time>
      </trkpt>
      <trkpt lat="44.51893" lon="6.29005">
        <ele>911.6</ele>
        <time>2015-07-14T10:11:25Z</time>
      </trkpt>
      <trkpt lat="44.51903" lon="6.29005">
        <ele>910.7</ele>
        <time>2015-07-14T10:11:28Z</time>
      </trkpt>
      <trkpt lat="44.51925" lon="6.2901">
        <ele>908.94</ele>
        <time>2015-07-14T10:11:35Z</time>
      </trkpt>
      <trkpt lat="44.51954" lon="6.28993">
        <ele>906.05</ele>
        <time>2015-07-14T10:11:43Z</time>
      </trkpt>
      <trkpt lat="44.51982" lon="6.28994">
        <ele>903.17</ele>
        <time>2015-07-14T10:11:50Z</time>
      </trkpt>
      <trkpt lat="44.51999" lon="6.28981">
        <ele>901.12</ele>
        <time>2015-07-14T10:11:55Z</time>
      </trkpt>
      <trkpt lat="44.52001" lon="6.28977">
        <ele>900.38</ele>
        <time>2015-07-14T10:11:56Z</time>
      </trkpt>
      <trkpt lat="44.52011" lon="6.28972">
        <ele>898.06</ele>
        <time>2015-07-14T10:12:02Z</time>
      </trkpt>
      <trkpt lat="44.52018" lon="6.29002">
        <ele>894.2</ele>
        <time>2015-07-14T10:12:11Z</time>
      </trkpt>
      <trkpt lat="44.52024" lon="6.29019">
        <ele>891.16</ele>
        <time>2015-07-14T10:12:16Z</time>
      </trkpt>
      <trkpt lat="44.52026" lon="6.29028">
        <ele>890.05</ele>
        <time>2015-07-14T10:12:18Z</time>
      </trkpt>
      <trkpt lat="44.52031" lon="6.2903">
        <ele>888.33</ele>
        <time>2015-07-14T10:12:21Z</time>
      </trkpt>
      <trkpt lat="44.52035" lon="6.29028">
        <ele>887</ele>
        <time>2015-07-14T10:12:23Z</time>
      </trkpt>
      <trkpt lat="44.5207" lon="6.29021">
        <ele>884.97</ele>
        <time>2015-07-14T10:12:33Z</time>
      </trkpt>
      <trkpt lat="44.52106" lon="6.29008">
        <ele>883.62</ele>
        <time>2015-07-14T10:12:41Z</time>
      </trkpt>
      <trkpt lat="44.5211" lon="6.29006">
        <ele>883.38</ele>
        <time>2015-07-14T10:12:42Z</time>
      </trkpt>
      <trkpt lat="44.52114" lon="6.29006">
        <ele>883.16</ele>
        <time>2015-07-14T10:12:43Z</time>
      </trkpt>
      <trkpt lat="44.52116" lon="6.29007">
        <ele>882.91</ele>
        <time>2015-07-14T10:12:44Z</time>
      </trkpt>
      <trkpt lat="44.52119" lon="6.29005">
        <ele>881.1</ele>
        <time>2015-07-14T10:12:56Z</time>
      </trkpt>
      <trkpt lat="44.52121" lon="6.29001">
        <ele>880.61</ele>
        <time>2015-07-14T10:13:14Z</time>
      </trkpt>
      <trkpt lat="44.52122" lon="6.29">
        <ele>880.6</ele>
        <time>2015-07-14T10:13:15Z</time>
      </trkpt>
      <trkpt lat="44.52124" lon="6.28999">
        <ele>880.59</ele>
        <time>2015-07-14T10:13:16Z</time>
      </trkpt>
      <trkpt lat="44.52126" lon="6.28997">
        <ele>880.58</ele>
        <time>2015-07-14T10:13:17Z</time>
      </trkpt>
      <trkpt lat="44.52129" lon="6.28996">
        <ele>880.59</ele>
        <time>2015-07-14T10:13:18Z</time>
      </trkpt>
      <trkpt lat="44.52145" lon="6.28987">
        <ele>880.34</ele>
        <time>2015-07-14T10:13:22Z</time>
      </trkpt>
      <trkpt lat="44.52162" lon="6.28977">
        <ele>879.61</ele>
        <time>2015-07-14T10:13:25Z</time>
      </trkpt>
      <trkpt lat="44.52167" lon="6.28972">
        <ele>879.28</ele>
        <time>2015-07-14T10:13:26Z</time>
      </trkpt>
      <trkpt lat="44.52193" lon="6.2895">
        <ele>877.67</ele>
        <time>2015-07-14T10:13:31Z</time>
      </trkpt>
      <trkpt lat="44.52198" lon="6.28948">
        <ele>877.43</ele>
        <time>2015-07-14T10:13:32Z</time>
      </trkpt>
      <trkpt lat="44.52203" lon="6.28946">
        <ele>877.25</ele>
        <time>2015-07-14T10:13:33Z</time>
      </trkpt>
      <trkpt lat="44.5222" lon="6.2894">
        <ele>876.47</ele>
        <time>2015-07-14T10:13:39Z</time>
      </trkpt>
      <trkpt lat="44.52235" lon="6.28948">
        <ele>875.04</ele>
        <time>2015-07-14T10:13:44Z</time>
      </trkpt>
      <trkpt lat="44.52251" lon="6.28944">
        <ele>872.87</ele>
        <time>2015-07-14T10:13:48Z</time>
      </trkpt>
      <trkpt lat="44.52258" lon="6.28943">
        <ele>871.66</ele>
        <time>2015-07-14T10:13:50Z</time>
      </trkpt>
      <trkpt lat="44.52263" lon="6.28945">
        <ele>871.12</ele>
        <time>2015-07-14T10:13:51Z</time>
      </trkpt>
      <trkpt lat="44.52267" lon="6.28948">
        <ele>870.63</ele>
        <time>2015-07-14T10:13:52Z</time>
      </trkpt>
      <trkpt lat="44.52269" lon="6.28953">
        <ele>870.17</ele>
        <time>2015-07-14T10:13:53Z</time>
      </trkpt>
      <trkpt lat="44.5227" lon="6.28958">
        <ele>869.66</ele>
        <time>2015-07-14T10:13:54Z</time>
      </trkpt>
      <trkpt lat="44.52271" lon="6.28963">
        <ele>869.17</ele>
        <time>2015-07-14T10:13:55Z</time>
      </trkpt>
      <trkpt lat="44.52272" lon="6.28967">
        <ele>868.73</ele>
        <time>2015-07-14T10:13:56Z</time>
      </trkpt>
      <trkpt lat="44.52273" lon="6.28971">
        <ele>868.29</ele>
        <time>2015-07-14T10:13:57Z</time>
      </trkpt>
      <trkpt lat="44.52282" lon="6.28988">
        <ele>865.12</ele>
        <time>2015-07-14T10:14:02Z</time>
      </trkpt>
      <trkpt lat="44.52285" lon="6.2899">
        <ele>864.61</ele>
        <time>2015-07-14T10:14:03Z</time>
      </trkpt>
      <trkpt lat="44.52289" lon="6.28991">
        <ele>864.17</ele>
        <time>2015-07-14T10:14:04Z</time>
      </trkpt>
      <trkpt lat="44.52294" lon="6.28991">
        <ele>863.75</ele>
        <time>2015-07-14T10:14:05Z</time>
      </trkpt>
      <trkpt lat="44.52299" lon="6.2899">
        <ele>863.33</ele>
        <time>2015-07-14T10:14:06Z</time>
      </trkpt>
      <trkpt lat="44.52304" lon="6.28991">
        <ele>862.93</ele>
        <time>2015-07-14T10:14:07Z</time>
      </trkpt>
      <trkpt lat="44.52309" lon="6.28991">
        <ele>862.53</ele>
        <time>2015-07-14T10:14:08Z</time>
      </trkpt>
      <trkpt lat="44.52315" lon="6.28991">
        <ele>862.16</ele>
        <time>2015-07-14T10:14:09Z</time>
      </trkpt>
      <trkpt lat="44.5238" lon="6.28991">
        <ele>859.11</ele>
        <time>2015-07-14T10:14:18Z</time>
      </trkpt>
      <trkpt lat="44.52451" lon="6.29002">
        <ele>855.14</ele>
        <time>2015-07-14T10:14:26Z</time>
      </trkpt>
      <trkpt lat="44.52514" lon="6.29012">
        <ele>852.09</ele>
        <time>2015-07-14T10:14:33Z</time>
      </trkpt>
      <trkpt lat="44.52559" lon="6.29018">
        <ele>850.51</ele>
        <time>2015-07-14T10:14:38Z</time>
      </trkpt>
      <trkpt lat="44.52567" lon="6.29014">
        <ele>850.18</ele>
        <time>2015-07-14T10:14:39Z</time>
      </trkpt>
      <trkpt lat="44.52574" lon="6.29006">
        <ele>849.84</ele>
        <time>2015-07-14T10:14:40Z</time>
      </trkpt>
      <trkpt lat="44.52585" lon="6.28992">
        <ele>849.32</ele>
        <time>2015-07-14T10:14:42Z</time>
      </trkpt>
      <trkpt lat="44.52592" lon="6.28991">
        <ele>849.13</ele>
        <time>2015-07-14T10:14:43Z</time>
      </trkpt>
      <trkpt lat="44.52597" lon="6.28992">
        <ele>848.99</ele>
        <time>2015-07-14T10:14:44Z</time>
      </trkpt>
      <trkpt lat="44.52603" lon="6.28991">
        <ele>848.89</ele>
        <time>2015-07-14T10:14:45Z</time>
      </trkpt>
      <trkpt lat="44.52608" lon="6.28989">
        <ele>848.86</ele>
        <time>2015-07-14T10:14:46Z</time>
      </trkpt>
      <trkpt lat="44.52613" lon="6.28985">
        <ele>848.89</ele>
        <time>2015-07-14T10:14:47Z</time>
      </trkpt>
      <trkpt lat="44.52617" lon="6.28981">
        <ele>848.91</ele>
        <time>2015-07-14T10:14:48Z</time>
      </trkpt>
      <trkpt lat="44.52622" lon="6.28978">
        <ele>848.93</ele>
        <time>2015-07-14T10:14:49Z</time>
      </trkpt>
      <trkpt lat="44.52628" lon="6.28976">
        <ele>848.96</ele>
        <time>2015-07-14T10:14:50Z</time>
      </trkpt>
      <trkpt lat="44.52633" lon="6.28976">
        <ele>848.96</ele>
        <time>2015-07-14T10:14:51Z</time>
      </trkpt>
      <trkpt lat="44.52638" lon="6.28978">
        <ele>848.95</ele>
        <time>2015-07-14T10:14:52Z</time>
      </trkpt>
      <trkpt lat="44.52642" lon="6.2898">
        <ele>848.92</ele>
        <time>2015-07-14T10:14:53Z</time>
      </trkpt>
      <trkpt lat="44.52646" lon="6.28982">
        <ele>848.92</ele>
        <time>2015-07-14T10:14:54Z</time>
      </trkpt>
      <trkpt lat="44.52651" lon="6.28983">
        <ele>848.94</ele>
        <time>2015-07-14T10:14:55Z</time>
      </trkpt>
      <trkpt lat="44.52655" lon="6.28984">
        <ele>848.96</ele>
        <time>2015-07-14T10:14:56Z</time>
      </trkpt>
      <trkpt lat="44.52689" lon="6.28982">
        <ele>848.68</ele>
        <time>2015-07-14T10:15:05Z</time>
      </trkpt>
      <trkpt lat="44.52695" lon="6.28977">
        <ele>848.51</ele>
        <time>2015-07-14T10:15:07Z</time>
      </trkpt>
      <trkpt lat="44.52695" lon="6.28974">
        <ele>848.44</ele>
        <time>2015-07-14T10:15:08Z</time>
      </trkpt>
      <trkpt lat="44.52695" lon="6.28971">
        <ele>848.4</ele>
        <time>2015-07-14T10:15:09Z</time>
      </trkpt>
      <trkpt lat="44.52696" lon="6.28958">
        <ele>849.88</ele>
        <time>2015-07-14T10:15:16Z</time>
      </trkpt>
      <trkpt lat="44.52717" lon="6.28943">
        <ele>852.99</ele>
        <time>2015-07-14T10:15:31Z</time>
      </trkpt>
      <trkpt lat="44.52728" lon="6.28931">
        <ele>855.17</ele>
        <time>2015-07-14T10:15:46Z</time>
      </trkpt>
      <trkpt lat="44.52734" lon="6.2892">
        <ele>856.56</ele>
        <time>2015-07-14T10:15:56Z</time>
      </trkpt>
      <trkpt lat="44.52735" lon="6.28919">
        <ele>856.67</ele>
        <time>2015-07-14T10:15:57Z</time>
      </trkpt>
      <trkpt lat="44.52738" lon="6.28913">
        <ele>858.54</ele>
        <time>2015-07-14T10:16:17Z</time>
      </trkpt>
      <trkpt lat="44.52742" lon="6.28907">
        <ele>859.33</ele>
        <time>2015-07-14T10:16:30Z</time>
      </trkpt>
      <trkpt lat="44.52744" lon="6.28906">
        <ele>859.27</ele>
        <time>2015-07-14T10:16:35Z</time>
      </trkpt>
      <trkpt lat="44.52745" lon="6.28906">
        <ele>859.26</ele>
        <time>2015-07-14T10:16:36Z</time>
      </trkpt>
      <trkpt lat="44.52749" lon="6.28902">
        <ele>859.23</ele>
        <time>2015-07-14T10:16:38Z</time>
      </trkpt>
      <trkpt lat="44.52771" lon="6.28869">
        <ele>858.84</ele>
        <time>2015-07-14T10:16:50Z</time>
      </trkpt>
      <trkpt lat="44.52788" lon="6.28836">
        <ele>859.26</ele>
        <time>2015-07-14T10:17:02Z</time>
      </trkpt>
      <trkpt lat="44.52791" lon="6.28826">
        <ele>859.44</ele>
        <time>2015-07-14T10:17:06Z</time>
      </trkpt>
      <trkpt lat="44.52791" lon="6.28823">
        <ele>859.47</ele>
        <time>2015-07-14T10:17:07Z</time>
      </trkpt>
      <trkpt lat="44.52791" lon="6.2882">
        <ele>859.52</ele>
        <time>2015-07-14T10:17:08Z</time>
      </trkpt>
      <trkpt lat="44.52787" lon="6.28803">
        <ele>860</ele>
        <time>2015-07-14T10:17:15Z</time>
      </trkpt>
      <trkpt lat="44.52788" lon="6.288">
        <ele>860.09</ele>
        <time>2015-07-14T10:17:16Z</time>
      </trkpt>
      <trkpt lat="44.52788" lon="6.28798">
        <ele>860.19</ele>
        <time>2015-07-14T10:17:17Z</time>
      </trkpt>
      <trkpt lat="44.52789" lon="6.28794">
        <ele>860.28</ele>
        <time>2015-07-14T10:17:18Z</time>
      </trkpt>
      <trkpt lat="44.52789" lon="6.28791">
        <ele>860.37</ele>
        <time>2015-07-14T10:17:19Z</time>
      </trkpt>
      <trkpt lat="44.5279" lon="6.28788">
        <ele>860.49</ele>
        <time>2015-07-14T10:17:20Z</time>
      </trkpt>
      <trkpt lat="44.5279" lon="6.28786">
        <ele>860.51</ele>
        <time>2015-07-14T10:17:21Z</time>
      </trkpt>
      <trkpt lat="44.52791" lon="6.28783">
        <ele>860.53</ele>
        <time>2015-07-14T10:17:22Z</time>
      </trkpt>
      <trkpt lat="44.52792" lon="6.28781">
        <ele>860.55</ele>
        <time>2015-07-14T10:17:23Z</time>
      </trkpt>
      <trkpt lat="44.52798" lon="6.28768">
        <ele>861.07</ele>
        <time>2015-07-14T10:17:29Z</time>
      </trkpt>
      <trkpt lat="44.52817" lon="6.28751">
        <ele>862.44</ele>
        <time>2015-07-14T10:17:44Z</time>
      </trkpt>
      <trkpt lat="44.52836" lon="6.28731">
        <ele>863.67</ele>
        <time>2015-07-14T10:18:00Z</time>
      </trkpt>
      <trkpt lat="44.5286" lon="6.28707">
        <ele>864.71</ele>
        <time>2015-07-14T10:18:17Z</time>
      </trkpt>
      <trkpt lat="44.52886" lon="6.28681">
        <ele>865.62</ele>
        <time>2015-07-14T10:18:34Z</time>
      </trkpt>
      <trkpt lat="44.52915" lon="6.28657">
        <ele>866.56</ele>
        <time>2015-07-14T10:18:51Z</time>
      </trkpt>
      <trkpt lat="44.52953" lon="6.2862">
        <ele>866.81</ele>
        <time>2015-07-14T10:19:08Z</time>
      </trkpt>
      <trkpt lat="44.52997" lon="6.28573">
        <ele>866.06</ele>
        <time>2015-07-14T10:19:25Z</time>
      </trkpt>
      <trkpt lat="44.53011" lon="6.28556">
        <ele>865.91</ele>
        <time>2015-07-14T10:19:30Z</time>
      </trkpt>
      <trkpt lat="44.53027" lon="6.28533">
        <ele>865.41</ele>
        <time>2015-07-14T10:19:35Z</time>
      </trkpt>
      <trkpt lat="44.53036" lon="6.28514">
        <ele>865.02</ele>
        <time>2015-07-14T10:19:38Z</time>
      </trkpt>
      <trkpt lat="44.53045" lon="6.28479">
        <ele>864.16</ele>
        <time>2015-07-14T10:19:42Z</time>
      </trkpt>
      <trkpt lat="44.53046" lon="6.28457">
        <ele>863.48</ele>
        <time>2015-07-14T10:19:44Z</time>
      </trkpt>
      <trkpt lat="44.53058" lon="6.28407">
        <ele>859.63</ele>
        <time>2015-07-14T10:19:49Z</time>
      </trkpt>
      <trkpt lat="44.53068" lon="6.28371">
        <ele>856.04</ele>
        <time>2015-07-14T10:19:53Z</time>
      </trkpt>
      <trkpt lat="44.53088" lon="6.28346">
        <ele>851.89</ele>
        <time>2015-07-14T10:19:58Z</time>
      </trkpt>
      <trkpt lat="44.53105" lon="6.28338">
        <ele>849.54</ele>
        <time>2015-07-14T10:20:02Z</time>
      </trkpt>
      <trkpt lat="44.53118" lon="6.28335">
        <ele>848.89</ele>
        <time>2015-07-14T10:20:05Z</time>
      </trkpt>
      <trkpt lat="44.53149" lon="6.2831">
        <ele>849.69</ele>
        <time>2015-07-14T10:20:16Z</time>
      </trkpt>
      <trkpt lat="44.53201" lon="6.28252">
        <ele>849.03</ele>
        <time>2015-07-14T10:20:32Z</time>
      </trkpt>
      <trkpt lat="44.53224" lon="6.28228">
        <ele>847.68</ele>
        <time>2015-07-14T10:20:37Z</time>
      </trkpt>
      <trkpt lat="44.53252" lon="6.2821">
        <ele>846.5</ele>
        <time>2015-07-14T10:20:45Z</time>
      </trkpt>
      <trkpt lat="44.53281" lon="6.28182">
        <ele>849.9</ele>
        <time>2015-07-14T10:21:01Z</time>
      </trkpt>
      <trkpt lat="44.53304" lon="6.2816">
        <ele>851.14</ele>
        <time>2015-07-14T10:21:17Z</time>
      </trkpt>
      <trkpt lat="44.53324" lon="6.28136">
        <ele>851.39</ele>
        <time>2015-07-14T10:21:30Z</time>
      </trkpt>
      <trkpt lat="44.53374" lon="6.28085">
        <ele>851.08</ele>
        <time>2015-07-14T10:21:48Z</time>
      </trkpt>
      <trkpt lat="44.53435" lon="6.28031">
        <ele>851.55</ele>
        <time>2015-07-14T10:22:06Z</time>
      </trkpt>
      <trkpt lat="44.53494" lon="6.28">
        <ele>851.78</ele>
        <time>2015-07-14T10:22:23Z</time>
      </trkpt>
      <trkpt lat="44.53537" lon="6.27967">
        <ele>852.49</ele>
        <time>2015-07-14T10:22:37Z</time>
      </trkpt>
      <trkpt lat="44.53573" lon="6.27914">
        <ele>853.63</ele>
        <time>2015-07-14T10:22:53Z</time>
      </trkpt>
      <trkpt lat="44.53605" lon="6.27882">
        <ele>852.92</ele>
        <time>2015-07-14T10:23:03Z</time>
      </trkpt>
      <trkpt lat="44.53613" lon="6.27881">
        <ele>852.67</ele>
        <time>2015-07-14T10:23:05Z</time>
      </trkpt>
      <trkpt lat="44.53665" lon="6.27904">
        <ele>853.17</ele>
        <time>2015-07-14T10:23:18Z</time>
      </trkpt>
      <trkpt lat="44.53689" lon="6.27901">
        <ele>853.11</ele>
        <time>2015-07-14T10:23:24Z</time>
      </trkpt>
      <trkpt lat="44.5372" lon="6.27881">
        <ele>852.86</ele>
        <time>2015-07-14T10:23:32Z</time>
      </trkpt>
      <trkpt lat="44.53744" lon="6.27891">
        <ele>853.13</ele>
        <time>2015-07-14T10:23:39Z</time>
      </trkpt>
      <trkpt lat="44.53747" lon="6.27893">
        <ele>853.18</ele>
        <time>2015-07-14T10:23:40Z</time>
      </trkpt>
      <trkpt lat="44.53751" lon="6.27896">
        <ele>853.23</ele>
        <time>2015-07-14T10:23:41Z</time>
      </trkpt>
      <trkpt lat="44.53781" lon="6.27895">
        <ele>853.73</ele>
        <time>2015-07-14T10:23:50Z</time>
      </trkpt>
      <trkpt lat="44.53821" lon="6.27878">
        <ele>854.04</ele>
        <time>2015-07-14T10:24:02Z</time>
      </trkpt>
      <trkpt lat="44.53862" lon="6.27861">
        <ele>854.79</ele>
        <time>2015-07-14T10:24:13Z</time>
      </trkpt>
      <trkpt lat="44.53897" lon="6.27845">
        <ele>855.7</ele>
        <time>2015-07-14T10:24:25Z</time>
      </trkpt>
      <trkpt lat="44.53932" lon="6.27824">
        <ele>856.3</ele>
        <time>2015-07-14T10:24:39Z</time>
      </trkpt>
      <trkpt lat="44.53963" lon="6.27803">
        <ele>856.99</ele>
        <time>2015-07-14T10:24:51Z</time>
      </trkpt>
      <trkpt lat="44.53983" lon="6.27802">
        <ele>857.55</ele>
        <time>2015-07-14T10:24:59Z</time>
      </trkpt>
      <trkpt lat="44.53992" lon="6.27822">
        <ele>857.99</ele>
        <time>2015-07-14T10:25:05Z</time>
      </trkpt>
      <trkpt lat="44.54022" lon="6.27862">
        <ele>859.07</ele>
        <time>2015-07-14T10:25:18Z</time>
      </trkpt>
      <trkpt lat="44.54061" lon="6.27862">
        <ele>860.15</ele>
        <time>2015-07-14T10:25:31Z</time>
      </trkpt>
      <trkpt lat="44.54096" lon="6.27798">
        <ele>859.77</ele>
        <time>2015-07-14T10:25:46Z</time>
      </trkpt>
      <trkpt lat="44.54148" lon="6.27711">
        <ele>861.48</ele>
        <time>2015-07-14T10:26:07Z</time>
      </trkpt>
      <trkpt lat="44.54199" lon="6.27633">
        <ele>862.82</ele>
        <time>2015-07-14T10:26:28Z</time>
      </trkpt>
      <trkpt lat="44.54209" lon="6.27637">
        <ele>862.89</ele>
        <time>2015-07-14T10:26:31Z</time>
      </trkpt>
      <trkpt lat="44.54213" lon="6.2764">
        <ele>862.84</ele>
        <time>2015-07-14T10:26:32Z</time>
      </trkpt>
      <trkpt lat="44.54223" lon="6.27646">
        <ele>862.61</ele>
        <time>2015-07-14T10:26:34Z</time>
      </trkpt>
      <trkpt lat="44.54228" lon="6.27647">
        <ele>862.46</ele>
        <time>2015-07-14T10:26:35Z</time>
      </trkpt>
      <trkpt lat="44.54233" lon="6.27646">
        <ele>862.29</ele>
        <time>2015-07-14T10:26:36Z</time>
      </trkpt>
      <trkpt lat="44.54237" lon="6.27644">
        <ele>862.15</ele>
        <time>2015-07-14T10:26:37Z</time>
      </trkpt>
      <trkpt lat="44.54239" lon="6.27641">
        <ele>862.04</ele>
        <time>2015-07-14T10:26:38Z</time>
      </trkpt>
      <trkpt lat="44.54241" lon="6.27638">
        <ele>861.97</ele>
        <time>2015-07-14T10:26:39Z</time>
      </trkpt>
      <trkpt lat="44.54243" lon="6.27635">
        <ele>862.02</ele>
        <time>2015-07-14T10:26:40Z</time>
      </trkpt>
      <trkpt lat="44.54268" lon="6.27604">
        <ele>863.69</ele>
        <time>2015-07-14T10:26:54Z</time>
      </trkpt>
      <trkpt lat="44.54301" lon="6.27567">
        <ele>866.13</ele>
        <time>2015-07-14T10:27:11Z</time>
      </trkpt>
      <trkpt lat="44.54328" lon="6.27576">
        <ele>867.81</ele>
        <time>2015-07-14T10:27:24Z</time>
      </trkpt>
      <trkpt lat="44.54349" lon="6.2759">
        <ele>869.61</ele>
        <time>2015-07-14T10:27:36Z</time>
      </trkpt>
      <trkpt lat="44.54374" lon="6.2761">
        <ele>871.04</ele>
        <time>2015-07-14T10:27:49Z</time>
      </trkpt>
      <trkpt lat="44.54393" lon="6.27637">
        <ele>873.14</ele>
        <time>2015-07-14T10:28:02Z</time>
      </trkpt>
      <trkpt lat="44.54416" lon="6.2766">
        <ele>874.6</ele>
        <time>2015-07-14T10:28:15Z</time>
      </trkpt>
      <trkpt lat="44.54444" lon="6.27684">
        <ele>875.16</ele>
        <time>2015-07-14T10:28:28Z</time>
      </trkpt>
      <trkpt lat="44.54447" lon="6.27695">
        <ele>875.2</ele>
        <time>2015-07-14T10:28:31Z</time>
      </trkpt>
      <trkpt lat="44.54446" lon="6.277">
        <ele>875.2</ele>
        <time>2015-07-14T10:28:32Z</time>
      </trkpt>
      <trkpt lat="44.54442" lon="6.27734">
        <ele>874.48</ele>
        <time>2015-07-14T10:28:39Z</time>
      </trkpt>
      <trkpt lat="44.5444" lon="6.27737">
        <ele>874.36</ele>
        <time>2015-07-14T10:28:40Z</time>
      </trkpt>
      <trkpt lat="44.54437" lon="6.27739">
        <ele>874.27</ele>
        <time>2015-07-14T10:28:41Z</time>
      </trkpt>
      <trkpt lat="44.54422" lon="6.27746">
        <ele>873.21</ele>
        <time>2015-07-14T10:28:50Z</time>
      </trkpt>
      <trkpt lat="44.54418" lon="6.27758">
        <ele>872.36</ele>
        <time>2015-07-14T10:29:03Z</time>
      </trkpt>
      <trkpt lat="44.5441" lon="6.27765">
        <ele>872.05</ele>
        <time>2015-07-14T10:29:10Z</time>
      </trkpt>
      <trkpt lat="44.54394" lon="6.27775">
        <ele>871.72</ele>
        <time>2015-07-14T10:29:19Z</time>
      </trkpt>
      <trkpt lat="44.5439" lon="6.27773">
        <ele>871.43</ele>
        <time>2015-07-14T10:29:31Z</time>
      </trkpt>
      <trkpt lat="44.54387" lon="6.27763">
        <ele>871.26</ele>
        <time>2015-07-14T10:29:48Z</time>
      </trkpt>
      <trkpt lat="44.54385" lon="6.27765">
        <ele>871.71</ele>
        <time>2015-07-14T10:30:17Z</time>
      </trkpt>
      <trkpt lat="44.54385" lon="6.27764">
        <ele>858.3</ele>
        <time>2015-07-14T10:30:31Z</time>
      </trkpt>
    </trkseg>
  </trk>
</gpx>